[[{"header":{"parameterUnit":"m.s-1","parameterCategory":1,"la1":30.6,"la2":29.2853,"lo1":-89.7004,"lo2":-87.6739,"dy":0.0162,"dx":0.0183,"nx":112,"ny":82,"refTime":"2023-10-10T18:00:00:Z","depth":0,"parameterNumber":2,"parameterNumberName":"U-component_of_WINDS"},"data":[0.0,0.0,0.0,0.0,0.0,0.0,0.0,0.0,0.0,0.0,0.0,0.0,0.0,0.0,0.0,0.0,0.0,0.0,0.0,0.0,0.0,0.0,0.0,0.0,0.0,0.0,0.0,0.0,0.0,0.0,0.0,0.0,0.0,0.0,0.0,0.0,0.0,0.0,0.0,0.0,0.0,0.0,0.0,0.0,0.0,0.0,0.0,0.0,0.0,0.0,0.0,0.0,0.0,0.0,0.0,0.0,0.0,0.0,0.0,0.0,0.0,0.0,0.0,0.0,0.0,0.0,0.0,0.0,0.0,0.0,0.0,0.0,0.0,0.0,0.0,0.0,0.0,0.0,0.0,0.0,0.0,0.0,0.0,0.0,0.0,0.0,0.0,0.0,0.0,0.0,2.3285,2.4271,2.478,2.4933,2.4564,2.3677,2.2672,2.1452,0.0,0.0,0.0,0.0,0.0,0.0,0.0,0.0,0.0,0.0,0.0,0.0,0.0,0.0,0.0,0.0,0.0,0.0,0.0,0.0,0.0,0.0,0.0,0.0,0.0,0.0,0.0,0.0,0.0,0.0,0.0,0.0,0.0,0.0,0.0,0.0,0.0,0.0,0.0,0.0,0.0,0.0,0.0,0.0,0.0,0.0,0.0,0.0,0.0,0.0,0.0,0.0,0.0,0.0,0.0,0.0,0.0,0.0,0.0,0.0,0.0,0.0,0.0,0.0,0.0,0.0,0.0,0.0,0.0,0.0,0.0,0.0,0.0,0.0,0.0,0.0,0.0,0.0,0.0,0.0,0.0,0.0,0.0,0.0,0.0,0.0,0.0,0.0,0.0,0.0,0.0,0.0,0.0,0.0,0.0,0.0,0.0,0.0,0.0,0.0,0.0,0.0,0.0,0.0,2.2384,2.4142,2.4131,2.3963,2.3672,2.2513,2.1417,2.0594,0.0,0.0,0.0,0.0,0.0,0.0,0.0,0.0,0.0,0.0,0.0,0.0,0.0,0.0,0.0,0.0,0.0,0.0,0.0,0.0,0.0,0.0,0.0,0.0,0.0,0.0,0.0,0.0,0.0,0.0,0.0,0.0,0.0,0.0,0.0,0.0,0.0,0.0,0.0,0.0,0.0,0.0,0.0,0.0,0.0,0.0,0.0,0.0,0.0,0.0,0.0,0.0,0.0,0.0,0.0,0.0,0.0,0.0,0.0,0.0,0.0,0.0,0.0,0.0,0.0,0.0,0.0,0.0,0.0,0.0,0.0,0.0,0.0,0.0,0.0,0.0,0.0,0.0,0.0,0.0,0.0,0.0,0.0,0.0,0.0,0.0,0.0,0.0,0.0,0.0,0.0,0.0,0.0,0.0,0.0,0.0,0.0,0.0,0.0,0.0,0.0,0.0,0.0,2.0992,2.218,2.3776,2.3361,2.3022,2.3072,2.2172,2.1237,2.0578,1.94,0.0,0.0,0.0,0.0,0.0,0.0,0.0,0.0,0.0,0.0,0.0,0.0,0.0,0.0,0.0,0.0,0.0,0.0,0.0,0.0,0.0,0.0,0.0,0.0,0.0,0.0,0.0,0.0,0.0,0.0,0.0,0.0,0.0,0.0,0.0,0.0,0.0,0.0,0.0,0.0,0.0,0.0,0.0,0.0,0.0,0.0,0.0,0.0,0.0,0.0,0.0,0.0,0.0,0.0,0.0,0.0,0.0,0.0,0.0,0.0,0.0,0.0,0.0,0.0,0.0,0.0,0.0,0.0,0.0,0.0,0.0,0.0,0.0,0.0,0.0,0.0,0.0,0.0,0.0,0.0,0.0,0.0,0.0,0.0,0.0,0.0,0.0,0.0,0.0,0.0,0.0,0.0,0.0,0.0,0.0,0.0,0.0,0.0,0.0,0.0,0.0,0.0,2.0994,2.1721,2.2932,2.2453,2.2182,2.2546,2.1776,2.1062,2.0533,1.9047,0.0,0.0,0.0,0.0,0.0,0.0,0.0,0.0,0.0,0.0,0.0,0.0,0.0,0.0,0.0,0.0,0.0,0.0,0.0,0.0,0.0,0.0,0.0,0.0,0.0,0.0,0.0,0.0,0.0,0.0,0.0,0.0,0.0,0.0,0.0,0.0,0.0,0.0,0.0,0.0,0.0,0.0,0.0,0.0,0.0,0.0,0.0,0.0,0.0,0.0,0.0,0.0,0.0,0.0,0.0,0.0,0.0,0.0,0.0,0.0,0.0,0.0,0.0,0.0,0.0,0.0,0.0,0.0,0.0,0.0,0.0,0.0,0.0,0.0,0.0,0.0,0.0,0.0,0.0,0.0,0.0,0.0,0.0,0.0,0.0,0.0,0.0,0.0,0.0,0.0,0.0,0.0,0.0,0.0,0.0,0.0,0.0,0.0,0.0,0.0,0.0,0.0,1.9809,2.0601,2.1028,2.1272,2.1528,2.202,2.0832,2.0107,2.0102,1.8645,0.0,0.0,0.0,0.0,0.0,0.0,0.0,0.0,0.0,0.0,0.0,0.0,0.0,0.0,0.0,0.0,0.0,0.0,0.0,0.0,0.0,0.0,0.0,0.0,0.0,0.0,0.0,0.0,0.0,0.0,0.0,0.0,0.0,0.0,0.0,0.0,0.0,0.0,0.0,0.0,0.0,0.0,0.0,0.0,0.0,0.0,0.0,0.0,0.0,0.0,0.0,0.0,0.0,0.0,0.0,0.0,0.0,0.0,0.0,0.0,0.0,0.0,0.0,0.0,0.0,0.0,0.0,0.0,0.0,0.0,0.0,0.0,0.0,0.0,0.0,0.0,0.0,0.0,0.0,0.0,0.0,0.0,0.0,0.0,0.0,0.0,0.0,0.0,0.0,0.0,0.0,0.0,0.0,0.0,0.0,0.0,0.0,0.0,0.0,0.0,0.0,0.0,1.9415,2.027,2.0861,2.0973,2.1188,2.1663,2.0773,2.0052,1.976,0.0,0.0,0.0,0.0,0.0,0.0,0.0,0.0,0.0,0.0,0.0,0.0,0.0,0.0,0.0,0.0,0.0,0.0,0.0,0.0,0.0,0.0,0.0,0.0,0.0,0.0,0.0,0.0,0.0,0.0,0.0,0.0,0.0,0.0,0.0,0.0,0.0,0.0,0.0,0.0,0.0,0.0,0.0,0.0,0.0,0.0,0.0,0.0,0.0,0.0,0.0,0.0,0.0,0.0,0.0,0.0,0.0,0.0,0.0,0.0,0.0,0.0,0.0,0.0,0.0,0.0,0.0,0.0,0.0,0.0,0.0,0.0,0.0,0.0,0.0,0.0,0.0,0.0,0.0,0.0,0.0,0.0,0.0,0.0,0.0,0.0,0.0,0.0,0.0,0.0,0.0,0.0,0.0,0.0,0.0,0.0,0.0,0.0,0.0,0.0,0.0,0.0,1.819,1.9084,1.9933,2.0582,2.0556,2.0675,2.1186,2.0428,1.9743,1.9315,0.0,0.0,0.0,0.0,0.0,0.0,0.0,0.0,0.0,0.0,0.0,0.0,0.0,0.0,0.0,0.0,0.0,0.0,0.0,0.0,0.0,0.0,0.0,0.0,0.0,0.0,0.0,0.0,0.0,0.0,0.0,0.0,0.0,0.0,0.0,0.0,0.0,0.0,0.0,0.0,0.0,0.0,0.0,0.0,0.0,0.0,0.0,0.0,0.0,0.0,0.0,0.0,0.0,0.0,0.0,0.0,0.0,0.0,0.0,0.0,0.0,0.0,0.0,0.0,0.0,0.0,0.0,0.0,0.0,0.0,0.0,0.0,0.0,0.0,0.0,0.0,0.0,0.0,0.0,0.0,0.0,0.0,0.0,0.0,0.0,0.0,0.0,0.0,0.0,0.0,0.0,0.0,0.0,0.0,0.0,0.0,0.0,0.0,0.0,0.0,0.0,0.0,1.8129,1.8828,1.9483,2.002,1.9813,1.9863,2.0536,1.9815,1.9152,0.0,0.0,0.0,0.0,0.0,0.0,0.0,0.0,0.0,0.0,0.0,0.0,0.0,0.0,0.0,0.0,0.0,0.0,0.0,0.0,0.0,0.0,0.0,0.0,0.0,0.0,0.0,0.0,0.0,0.0,0.0,0.0,0.0,0.0,0.0,0.0,0.0,0.0,0.0,0.0,0.0,0.0,0.0,0.0,0.0,0.0,0.0,0.0,0.0,0.0,0.0,0.0,0.0,0.0,0.0,0.0,0.0,0.0,0.0,0.0,0.0,0.0,0.0,0.0,0.0,0.0,0.0,0.0,0.0,0.0,0.0,0.0,0.0,0.0,0.0,0.0,0.0,0.0,0.0,0.0,0.0,0.0,0.0,0.0,0.0,0.0,0.0,0.0,0.0,0.0,0.0,0.0,0.0,0.0,0.0,0.0,0.0,0.0,0.0,0.0,0.0,0.0,0.0,1.7966,1.8902,1.9539,1.9747,1.9813,1.9856,1.9873,1.9557,1.9015,1.8228,0.0,0.0,0.0,0.0,0.0,0.0,0.0,0.0,0.0,0.0,0.0,0.0,0.0,0.0,0.0,0.0,0.0,0.0,0.0,0.0,0.0,0.0,0.0,0.0,0.0,0.0,0.0,0.0,0.0,0.0,0.0,0.0,0.0,0.0,0.0,0.0,0.0,0.0,0.0,0.0,0.0,0.0,0.0,0.0,0.0,0.0,0.0,0.0,0.0,0.0,0.0,0.0,0.0,0.0,0.0,0.0,0.0,0.0,0.0,0.0,0.0,0.0,0.0,0.0,0.0,0.0,0.0,0.0,0.0,0.0,0.0,0.0,0.0,0.0,0.0,0.0,0.0,0.0,0.0,0.0,0.0,0.0,0.0,0.0,0.0,0.0,0.0,0.0,0.0,0.0,0.0,0.0,0.0,0.0,0.0,0.0,0.0,0.0,0.0,0.0,0.0,0.0,1.7513,1.8699,1.9473,1.9605,1.9615,1.9605,1.9473,1.9341,1.8822,1.7916,0.0,0.0,0.0,0.0,0.0,0.0,0.0,0.0,0.0,0.0,0.0,0.0,0.0,0.0,0.0,0.0,0.0,0.0,0.0,0.0,0.0,0.0,0.0,0.0,0.0,0.0,0.0,0.0,0.0,0.0,0.0,0.0,0.0,0.0,0.0,0.0,0.0,0.0,0.0,0.0,0.0,0.0,0.0,0.0,0.0,0.0,0.0,0.0,0.0,0.0,0.0,0.0,0.0,0.0,0.0,0.0,0.0,0.0,0.0,0.0,0.0,0.0,0.0,0.0,0.0,0.0,0.0,0.0,0.0,0.0,0.0,0.0,0.0,0.0,0.0,0.0,0.0,0.0,0.0,0.0,0.0,0.0,0.0,0.0,0.0,0.0,0.0,0.0,0.0,0.0,0.0,0.0,0.0,0.0,0.0,0.0,0.0,0.0,0.0,0.0,0.0,0.0,1.7053,1.8397,1.9341,1.9539,1.9417,1.9274,1.9285,1.9142,1.8616,1.7667,0.0,0.0,0.0,0.0,0.0,0.0,0.0,0.0,0.0,0.0,0.0,0.0,0.0,0.0,0.0,0.0,0.0,0.0,0.0,0.0,0.0,0.0,0.0,0.0,0.0,0.0,0.0,0.0,0.0,0.0,0.0,0.0,0.0,0.0,0.0,0.0,0.0,0.0,0.0,0.0,0.0,0.0,0.0,0.0,0.0,0.0,0.0,0.0,0.0,0.0,0.0,0.0,0.0,0.0,0.0,0.0,0.0,0.0,0.0,0.0,0.0,-0.0717,0.0,0.0,0.0,0.0,0.0,0.0,0.0,0.0,0.0,0.0,0.0,0.0,0.0,0.0,0.0,0.0,0.0,0.0,0.0,0.0,0.0,0.0,0.0,0.0,0.0,0.0,0.0,0.0,0.0,0.0,0.0,0.0,0.0,0.0,0.0,0.0,0.0,0.0,0.0,0.0,1.7352,1.8537,1.9351,1.9351,1.9351,1.9274,1.9142,1.8586,1.7883,1.702,1.6456,0.0,0.0,0.0,0.0,0.0,0.0,0.0,0.0,0.0,0.0,0.0,0.0,0.0,0.0,0.0,0.0,0.0,0.0,0.0,0.0,0.0,0.0,0.0,0.0,0.0,0.0,0.0,0.0,0.0,0.0,0.0,0.0,0.0,0.0,0.0,0.0,0.0,0.0,0.0,0.0,0.0,0.0,0.0,0.0,0.0,0.0,0.0,0.0,0.0,0.0,0.0,0.0,0.0,0.0,0.0,0.0,0.0,0.0,0.0,-0.0496,-0.067,0.0,0.0,0.0,0.0,0.0,0.0,0.0,0.0,0.0,0.0,0.0,0.0,0.0,0.0,0.0,0.0,0.0,0.0,0.0,0.0,0.0,0.0,0.0,0.0,0.0,0.0,0.0,0.0,0.0,0.0,0.0,0.0,0.0,0.0,0.0,0.0,0.0,0.0,0.0,0.0,1.6892,1.8314,1.9285,1.9208,1.9274,1.9285,1.9131,1.8452,1.7762,1.7105,1.6355,0.0,0.0,0.0,0.0,0.0,0.0,0.0,0.0,0.0,0.0,0.0,0.0,0.0,0.0,0.0,0.0,0.0,0.0,0.0,0.0,0.0,0.0,0.0,0.0,0.0,0.0,0.0,0.0,0.0,0.0,0.0,0.0,0.0,0.0,0.0,0.0,0.0,0.0,0.0,0.0,0.0,0.0,0.0,0.0,0.0,0.0,0.0,0.0,0.0,0.0,0.0,0.0,0.0,-0.0841,-0.0963,-0.253,-0.0552,-0.0111,-0.1014,-0.0958,-0.0515,0.0,-0.1402,0.0,0.0,0.0,0.0,0.0,0.0,0.0,0.0,0.0,0.0,0.0,0.0,0.0,0.0,0.0,0.0,0.0,0.0,0.0,0.0,0.0,0.0,1.1101,1.1625,1.1545,1.1451,1.2016,0.0,0.0,0.0,0.0,0.0,0.0,0.0,0.0,0.0,0.0,0.0,1.6407,1.7945,1.9075,1.9075,1.9208,1.9208,1.9142,1.8307,1.7639,1.7137,1.6315,1.527,0.0,0.0,0.0,0.0,0.0,0.0,0.0,0.0,0.0,0.0,0.0,0.0,0.0,0.0,0.0,0.0,0.0,0.0,0.0,0.0,0.0,0.0,0.0,0.0,0.0,0.0,0.0,0.0,0.0,0.0,0.0,0.0,-0.2714,-0.286,0.0,0.0,0.0,0.0,0.0,0.0,0.0,0.0,0.0,0.0,0.0,0.0,0.0,-0.31,-0.2947,-0.193,-0.1528,-0.1774,-0.0555,-0.0112,-0.0457,-0.0114,0.0,-0.0117,-0.0116,0.0,-0.097,-0.106,0.0,0.0,0.0,0.0,0.0,0.0,0.0,0.0,0.0,0.0,0.0,0.0,0.0,0.0,0.0,0.0,0.0,0.0,0.0,0.0,0.0,0.0,1.1425,1.216,1.2129,1.2075,1.2774,1.2244,1.1887,1.2985,1.2988,1.3027,0.0,0.0,0.0,0.0,0.0,0.0,1.6665,1.759,1.8385,1.8998,1.9142,1.9142,1.9075,1.7833,1.6893,1.6466,1.5112,1.413,1.3661,1.3645,0.0,0.0,0.0,0.0,0.0,0.0,0.0,0.0,0.0,0.0,0.0,0.0,0.0,0.0,0.0,0.0,0.0,0.0,0.0,0.0,0.0,0.0,0.0,0.0,0.0,0.0,0.0,0.0,0.0,-0.357,-0.3544,-0.4212,-0.452,-0.5048,0.0,0.0,0.0,0.0,0.0,0.0,0.0,0.0,0.0,-0.2229,-0.2138,-0.1874,-0.1334,-0.0792,-0.0687,-0.0692,-0.0231,0.0,0.0,0.0236,0.0119,0.0,0.0242,0.0,-0.0577,-0.0445,-0.1404,-0.2841,0.0,0.0,0.0,0.0,-0.0795,0.0404,0.3229,0.4138,0.4329,0.6023,0.0,0.0,0.0,0.0,0.0,0.0,0.0,0.8649,0.9492,1.0422,1.1184,1.1591,1.1854,1.2152,1.2598,1.2417,1.2447,1.3342,1.3494,1.3705,1.3963,1.432,0.0,0.0,0.0,1.5705,1.6219,1.7276,1.8006,1.8101,1.8475,1.8448,1.788,1.6997,1.6238,1.5721,1.4833,1.4252,1.3894,1.3878,1.3719,0.0,0.0,0.0,0.0,0.0,0.0,0.0,0.0,0.0,0.0,0.0,0.0,0.0,0.0,0.0,0.0,0.0,0.0,0.0,0.0,0.0,0.0,0.0,0.0,0.0,0.0,0.0,0.0,-0.3908,-0.3705,-0.5068,-0.4606,-0.4739,0.0,0.0,0.0,0.0,0.0,0.0,-0.4279,-0.406,-0.3137,-0.1411,-0.1249,-0.0814,0.0,0.0,0.0,0.0,0.0,0.0,0.0,0.024,0.0241,0.0,0.0244,0.0242,0.0,0.0,-0.0563,-0.1426,-0.1497,-0.1877,-0.2452,-0.143,-0.0827,-0.021,0.2516,0.3566,0.3975,0.5542,0.6051,0.6111,0.5988,0.0,0.0,0.0,0.0,0.8548,0.9759,1.0505,1.0934,1.1085,1.1463,1.1955,1.2261,1.2498,1.2837,1.3576,1.3951,1.4257,1.434,1.4787,0.0,1.4697,1.5133,1.5517,1.5625,1.6569,1.7226,1.7207,1.7684,1.7691,1.6865,1.6431,1.5914,1.524,1.4849,1.4522,1.426,1.4252,1.4077,1.3719,0.0,0.0,0.0,0.0,0.0,0.0,0.0,0.0,0.0,0.0,0.0,0.0,0.0,0.0,0.0,0.0,0.0,0.0,0.0,0.0,0.0,0.0,0.0,0.0,0.0,0.0,0.0,0.0,0.0,-0.3865,-0.2702,0.0,0.0,0.0,0.0,-0.5898,-0.5338,-0.4416,-0.3365,-0.2331,-0.1258,-0.0115,-0.0118,0.0,0.0,0.0,0.0,0.0,0.0,0.0,0.0,0.0,0.0,0.0,0.0,0.0,0.0,0.0,-0.0584,-0.1565,-0.1563,-0.164,-0.1486,-0.0424,0.0642,0.185,0.2937,0.4132,0.5096,0.5112,0.5623,0.6236,0.6113,0.6072,0.0,0.0,0.8434,0.8936,1.041,1.0896,1.0896,1.091,1.1224,1.1528,1.1967,1.2243,1.2774,1.3879,1.4099,1.4328,1.4621,0.0,1.5062,1.4697,1.4641,1.4798,1.5189,1.5274,1.573,1.6724,1.6874,1.6865,1.6782,1.6431,1.5914,1.524,1.4849,1.4561,1.4617,1.4537,1.445,1.4093,1.3632,0.0,0.0,0.0,0.0,0.0,0.0,0.0,0.0,0.0,0.0,0.0,0.0,0.0,0.0,0.0,0.0,0.0,0.0,0.0,0.0,0.0,0.0,0.0,0.0,0.0,0.0,0.0,0.0,-0.3794,-0.2694,0.0,-0.3968,-0.3393,-0.2919,-0.3256,-0.2348,-0.1544,-0.1116,-0.0812,-0.0356,0.0,0.0,0.0,0.0,0.0,0.0,0.0,0.0,0.0,0.0,0.0,0.0,0.0,0.0,0.0471,0.1177,0.1184,0.0467,-0.0569,-0.0563,-0.0111,0.066,0.0989,0.1874,0.31,0.416,0.4798,0.5318,0.5798,0.6134,0.6369,0.6325,0.67,0.7287,0.8358,0.9084,0.9718,1.0794,1.0995,1.0896,1.0896,1.1387,1.1817,1.1759,1.2158,1.2801,1.3393,1.385,1.4167,1.4088,1.4714,1.5062,1.4697,1.4569,1.4577,1.4494,1.4908,1.5141,1.5043,1.5794,1.598,1.5097,1.545,1.538,1.4566,1.4584,1.4569,1.4569,1.4569,1.4514,1.4458,1.3901,1.3461,0.0,0.0,0.0,0.0,0.0,0.0,0.0,0.0,0.0,0.0,0.0,0.0,0.0,0.0,0.0,0.0,0.0,0.0,0.0,0.0,0.0,0.0,0.0,0.0,0.0,-0.3388,-0.2707,-0.4152,-0.2519,-0.1898,-0.3265,-0.2024,-0.1187,-0.12,-0.0451,0.0,0.0,0.0,0.0,0.0,0.0,0.0,0.0,0.0,0.0,0.0,0.0,0.0,0.0,0.0464,0.0579,0.0579,0.1042,0.1615,0.2294,0.2294,0.1818,0.1121,0.1127,0.1682,0.233,0.233,0.2763,0.3622,0.4774,0.506,0.5229,0.6254,0.6537,0.6437,0.6437,0.6734,0.7431,0.8524,0.9225,0.9805,1.0817,1.0943,1.0768,1.0702,1.0977,1.1289,1.1324,1.1752,1.2326,1.2971,1.3642,1.402,1.386,1.4645,1.5062,1.4697,1.4466,1.4331,1.3982,1.4228,1.4362,1.4072,1.4817,1.5182,1.4637,1.5053,1.5115,1.4498,1.4584,1.4569,1.4569,1.4569,1.4569,1.4569,1.4011,1.3361,1.2618,0.0,0.0,0.0,0.0,0.0,0.0,0.0,0.0,0.0,0.0,0.0,0.0,0.0,0.0,0.0,0.0,0.0,0.0,0.0,0.0,0.0,0.0,0.0,-0.4201,-0.3289,-0.3067,-0.455,-0.2163,-0.0986,-0.2296,-0.0902,0.0,0.0,0.0,0.0,0.0,0.0,0.0,0.0,0.0,0.0,0.0,0.0,0.0,0.0,0.0,0.0,0.0115,0.1353,0.1901,0.19,0.3129,0.3541,0.3486,0.3486,0.3343,0.3309,0.3481,0.3478,0.3486,0.3486,0.3339,0.3501,0.4669,0.4928,0.506,0.6197,0.6532,0.6437,0.6437,0.6434,0.6833,0.8326,0.8821,0.9174,1.056,1.0731,1.0518,1.0319,1.019,1.023,1.0774,1.0883,1.1299,1.2597,1.3324,1.3853,1.4177,1.4726,1.5046,1.4697,1.4339,0.0,1.3624,1.3298,1.334,1.3887,1.4013,1.4429,1.5542,1.5326,1.5129,1.5197,1.4787,1.4569,1.4569,1.4569,1.4569,1.4569,1.3901,1.2939,1.1505,0.0,0.0,0.0,0.0,0.0,0.0,0.0,0.0,0.0,0.0,0.0,0.0,0.0,0.0,0.0,0.0,0.0,0.0,0.0,0.0,0.0,-0.3512,-0.2839,-0.3089,-0.2286,-0.1609,-0.1624,-0.0881,-0.0448,-0.068,-0.0226,0.0,0.0,0.0,0.0,0.0,0.0,0.0,0.0,0.0,0.0,0.0,0.0,0.0,0.0,0.0905,0.1233,0.1218,0.2421,0.2945,0.2801,0.3124,0.3761,0.46,0.46,0.5014,0.5638,0.3992,0.3775,0.46,0.46,0.5075,0.5728,0.6041,0.6072,0.5977,0.6385,0.6464,0.6437,0.6437,0.7232,0.8226,0.8726,0.9522,1.0386,1.0815,1.0627,1.0343,1.0286,1.0512,1.0721,1.082,1.1508,1.2245,1.3033,1.3518,1.3859,1.4171,1.4518,1.4752,1.4657,1.4339,1.3982,1.3624,1.3298,1.3148,1.334,1.3769,1.4148,1.4521,1.4866,1.4965,1.4749,1.4657,1.4569,1.4569,1.4569,1.4497,1.4274,1.3613,1.2876,0.0,0.0,0.0,0.0,0.0,0.0,0.0,0.0,0.0,0.0,0.0,0.0,0.0,0.0,0.0,0.0,0.0,0.0,0.0,0.0,0.0,0.0,-0.2861,-0.2231,-0.2079,-0.1608,-0.1206,-0.0773,-0.0561,-0.0341,-0.023,-0.0115,0.0,0.0,0.0,0.0,0.0,0.0,0.0,0.0,0.0,0.0,0.0,0.0455,0.0676,0.0665,0.1883,0.2414,0.2266,0.3559,0.4074,0.4035,0.4459,0.5075,0.567,0.567,0.6066,0.6554,0.0,0.0,0.0,0.0,0.5982,0.6543,0.6543,0.6497,0.6437,0.6437,0.6634,0.6933,0.6933,0.7684,0.8717,0.9112,0.9665,1.0364,1.0562,1.0639,1.0517,1.042,1.0651,1.095,1.1018,1.1408,1.2011,1.2955,1.3307,0.0,1.4251,1.4486,1.4522,1.4442,1.4117,1.3767,1.3418,1.3211,1.3147,1.3282,1.3745,1.4255,1.4763,1.4882,0.0,0.0,0.0,1.4569,1.4569,1.4569,0.0,0.0,0.0,1.3331,1.282,1.2599,0.0,0.0,1.2546,1.3148,0.0,0.0,0.0,0.0,0.0,0.0,0.0,0.0,0.0,0.0,0.0,0.0,0.0,0.0,0.0,0.0,-0.2243,-0.1586,-0.1419,-0.1316,-0.1213,-0.1232,-0.0795,-0.0459,-0.0345,-0.0116,0.0,0.0,0.0117,0.0235,0.0235,0.0352,0.0,0.0,0.0,0.0455,0.0448,0.1453,0.1883,0.1855,0.3046,0.3554,0.3387,0.4657,0.5183,0.5172,0.6335,0.67,0.6597,0.6597,0.6535,0.6458,0.6676,0.6695,0.6586,0.6478,0.6437,0.6437,0.6437,0.0,0.0,0.6534,0.7033,0.763,0.773,0.8119,0.8764,0.9536,0.9588,0.967,1.0229,1.0701,1.0894,1.0681,1.0789,1.0963,1.1162,1.1134,1.1401,1.2654,1.2973,1.3404,1.4425,1.4569,1.4522,1.4164,1.3815,1.3465,1.3132,1.3092,1.3219,1.3545,1.3902,0.0,1.5587,1.495,1.4879,1.5621,1.4991,1.4569,1.4569,1.4569,1.4425,1.4129,1.4057,1.3848,1.3492,1.3492,1.366,1.3989,1.272,1.3173,0.0,0.0,0.0,0.0,0.0,0.0,0.0,0.0,0.0,0.0,0.0,0.0,0.0,0.0,0.0,-0.3053,-0.2327,-0.1746,-0.167,-0.134,-0.0894,-0.0561,-0.0675,-0.0566,-0.0115,0.0,0.0,0.0,0.0923,0.15,0.15,0.2421,0.2878,0.2868,0.2944,0.2919,0.291,0.298,0.3063,0.3052,0.4191,0.0,0.4571,0.5716,0.6187,0.6098,0.6404,0.6494,0.6472,0.6472,0.6458,0.6439,0.6488,0.6491,0.6469,0.6445,0.6437,0.6437,0.6437,0.6437,0.6534,0.7132,0.7431,0.773,0.8326,0.8999,0.0,0.9636,0.9868,1.0234,1.0731,1.076,1.0778,1.1079,1.1171,1.1168,1.1203,1.1843,1.26,1.2833,1.3622,1.4353,1.4569,1.4569,1.4522,1.4164,1.3815,1.3465,1.3132,1.3092,1.3219,1.3545,1.3902,1.4321,1.4816,1.4449,1.4409,1.4832,1.4713,1.4569,1.4569,1.4497,1.4353,1.4129,1.3928,1.3717,1.3492,1.3492,1.366,1.3989,1.3994,1.4309,0.0,0.0,0.0,0.0,0.0,0.0,0.0,0.0,0.0,0.0,0.0,-0.3921,-0.3692,0.0,-0.2857,-0.254,-0.2053,-0.1645,-0.1438,-0.0775,-0.0333,-0.0672,0.0,0.0562,0.0907,0.1463,0.1797,0.1813,0.238,0.272,0.272,0.3286,0.3625,0.3625,0.3565,0.3534,0.3534,0.4016,0.4178,0.414,0.526,0.5707,0.5606,0.622,0.6494,0.6437,0.6437,0.6437,0.6437,0.6437,0.6437,0.6437,0.6437,0.6437,0.6437,0.6437,0.6437,0.6437,0.6833,0.7033,0.7132,0.7928,0.8425,0.881,0.9116,0.9644,1.0139,1.0045,1.0257,1.046,1.0725,1.1071,1.1322,1.1585,1.1638,1.1519,1.1519,1.203,1.2526,1.2826,1.3622,1.4219,1.4332,1.4379,1.426,1.3902,1.3553,1.3211,1.2869,1.3124,1.3402,1.3568,1.4061,1.4379,1.4379,1.4053,1.3918,1.4101,1.4275,1.4379,1.4379,1.4403,1.4281,1.4129,1.3928,1.3717,1.3492,1.3492,1.366,1.3989,1.415,1.4487,0.0,0.0,0.0,0.0,0.0,0.0,0.0,-0.5341,-0.5083,-0.412,-0.3819,-0.3515,-0.29,-0.2819,-0.2643,-0.185,-0.1535,-0.1207,-0.0656,0.0218,0.0548,-0.0111,0.1109,0.1997,0.2116,0.2998,0.355,0.3561,0.3773,0.3877,0.3877,0.4098,0.421,0.421,0.4152,0.4014,0.4014,0.4902,0.5243,0.5167,0.6077,0.6532,0.6437,0.6437,0.6437,0.6437,0.6437,0.6537,0.6634,0.6634,0.6736,0.6833,0.6833,0.6833,0.6833,0.6734,0.6734,0.6933,0.763,0.7829,0.7928,0.8722,0.9521,0.9989,1.0026,1.0292,1.0726,1.0558,1.0588,1.0722,1.0809,1.1408,1.21,1.2272,1.2218,1.208,1.224,1.2337,1.2519,1.2966,1.355,1.4014,1.4103,1.4053,1.3894,1.3545,1.3259,1.2965,1.2669,1.3108,1.3489,1.3489,1.4053,1.4291,1.3942,1.3711,1.3553,1.3497,1.3815,1.4013,1.3945,1.4151,1.4119,1.3966,1.3765,1.3658,1.3492,1.3572,1.3704,1.3887,1.4028,1.4296,-0.7843,-0.7289,-0.6095,-0.4358,-0.4393,-0.4325,0.0,-0.2723,-0.3095,-0.2106,-0.1959,-0.1902,-0.191,-0.1936,-0.185,-0.1421,-0.0553,0.0222,0.0437,0.1744,0.2602,0.246,0.2564,0.2795,0.3166,0.3234,0.3333,0.3386,0.431,0.4807,0.4807,0.5878,0.6414,0.6414,0.6401,0.6394,0.6394,0.6386,0.6424,0.6411,0.6406,0.6448,0.6437,0.6437,0.6437,0.6437,0.6437,0.6833,0.7431,0.7431,0.7928,0.8524,0.8524,0.8524,0.8425,0.773,0.7928,0.8524,0.8627,0.8623,0.8825,0.962,0.992,1.0113,1.0774,1.1072,1.1211,1.1186,1.1232,1.1322,1.1757,1.1929,1.2272,1.3307,1.3048,1.2876,1.3423,1.3622,1.3615,1.3688,1.4129,1.4451,1.4172,1.3854,1.3529,1.3195,1.3116,1.2965,1.2669,1.2901,1.3147,1.3147,1.3481,1.3568,1.3235,1.3441,1.3457,1.3163,1.3457,1.3589,1.3478,1.3517,1.3469,1.3419,1.3357,1.3427,1.3492,1.3645,1.3667,1.3558,1.4074,1.4332,-0.5581,-0.5226,-0.4831,-0.3603,-0.3599,-0.3588,-0.2651,-0.2838,-0.2914,-0.1876,-0.1701,-0.1623,-0.1081,-0.0652,-0.0218,0.0328,0.1218,0.1773,0.2048,0.3113,0.3931,0.3927,0.4526,0.4786,0.439,0.4906,0.5326,0.5367,0.576,0.6054,0.6054,0.6484,0.6801,0.6801,0.6733,0.6695,0.6695,0.6575,0.6513,0.6513,0.6461,0.6437,0.6437,0.6437,0.6637,0.7132,0.763,0.8028,0.8326,0.8326,0.8524,0.8825,0.8825,0.9122,0.9422,0.8623,0.8524,0.8825,0.9324,0.9521,0.962,1.0408,1.0708,1.076,1.1096,1.1268,1.1344,1.1258,1.1478,1.1837,1.2443,1.279,1.3178,1.3848,1.3655,1.3376,1.3509,1.3643,1.3833,1.3833,1.4201,1.4522,1.4172,1.3815,1.3473,1.3139,1.2917,1.2734,1.2645,1.2869,1.3163,1.3354,1.333,1.3243,1.3108,1.3028,1.2933,1.279,1.3108,1.3298,1.3249,1.3306,1.3344,1.3279,1.321,1.3231,1.3499,1.357,1.3667,1.3848,1.3932,1.4074,-0.3926,-0.3707,-0.3638,-0.3033,-0.2812,-0.2776,-0.2714,-0.2791,-0.2537,-0.1585,-0.1394,-0.1085,-0.0108,0.0433,0.1085,0.1962,0.2754,0.3296,0.3518,0.4457,0.5239,0.5258,0.5937,0.6111,0.5466,0.6192,0.6714,0.6749,0.6719,0.67,0.67,0.67,0.67,0.67,0.6616,0.6567,0.6567,0.648,0.6437,0.6437,0.6634,0.6833,0.693,0.7322,0.7624,0.7928,0.8722,0.9019,0.9122,0.9122,0.9221,0.9414,0.9414,0.9813,1.0207,0.9661,0.9375,0.9517,1.0113,1.0314,1.0413,1.0998,1.1253,1.1347,1.1219,1.1405,1.1599,1.1696,1.2066,1.2613,1.3294,1.3724,1.4079,1.4423,1.4273,1.4037,1.3874,1.3926,1.4049,1.4049,1.4346,1.4522,1.4172,1.3902,1.3616,1.3282,1.3012,1.2837,1.2645,1.279,1.3036,1.3275,1.3092,1.2949,1.2949,1.2773,1.2621,1.2621,1.2806,1.2949,1.2877,1.2985,1.3034,1.306,1.2928,1.3028,1.3362,1.3515,1.3691,1.3927,1.3962,1.4,-0.396,-0.3481,-0.3137,-0.2383,-0.1964,-0.1615,-0.1617,-0.1743,-0.1455,-0.0623,-0.0526,-0.0107,0.117,0.1489,0.1818,0.2827,0.3924,0.466,0.4898,0.5948,0.6607,0.6364,0.6337,0.6486,0.6511,0.6518,0.6497,0.6616,0.6516,0.6448,0.6448,0.6448,0.6448,0.6448,0.6442,0.6442,0.6442,0.6437,0.6437,0.6437,0.7232,0.7826,0.8414,0.9686,0.969,0.8825,0.9312,0.9715,0.992,0.992,1.0408,1.1096,1.1096,1.1096,1.1175,1.088,1.0932,1.1096,1.1194,1.1194,1.1194,1.1194,1.1351,1.1472,1.1077,1.1523,1.232,1.2551,1.3157,1.3815,1.4482,1.465,1.474,1.5072,1.4907,1.4734,1.5103,1.4822,1.4569,1.4569,1.4569,1.4522,1.4172,1.4101,1.3974,1.3624,1.3561,1.3314,1.2709,1.2637,1.2645,1.2653,1.2645,1.2645,1.2645,1.2629,1.2621,1.2621,1.2637,1.2514,1.2321,1.2328,1.2367,1.2497,1.2504,1.2671,1.3013,1.3531,1.37,1.3522,1.4126,1.4281,-0.1391,-0.1094,-0.0954,-0.029,-0.0099,0.0,0.0,0.0,0.0,0.0311,0.0417,0.0627,0.1673,0.2506,0.3346,0.4211,0.532,0.6071,0.6066,0.6537,0.6741,0.6578,0.663,0.6695,0.6736,0.663,0.6575,0.6616,0.6581,0.6521,0.6439,0.6437,0.6437,0.6437,0.6933,0.7232,0.7232,0.773,0.8028,0.8028,0.8226,0.8524,0.8718,0.9706,0.9912,0.962,1.0306,1.0699,1.0801,1.0801,1.0998,1.1194,1.1194,1.1113,1.0986,1.1301,1.1318,1.1249,1.0877,1.0971,1.1249,1.1249,1.1573,1.1944,1.2326,1.2439,1.2451,1.3151,1.3199,1.33,1.4398,1.4497,1.4593,1.5387,1.5288,1.5028,1.4822,1.4728,1.4569,1.4569,1.4569,1.453,1.4482,1.4268,1.3989,1.3632,1.3394,1.3171,1.2941,1.2773,1.2621,1.2621,1.2621,1.2621,1.2621,1.2621,1.2621,1.2621,1.2621,1.256,1.2498,1.2498,1.2491,1.2547,1.2547,1.2719,1.3063,1.3459,1.375,1.3917,1.4269,1.4425,0.0178,0.0371,0.0386,0.0781,0.0895,0.0806,0.0806,0.0814,0.0922,0.1322,0.132,0.1622,0.292,0.3739,0.4474,0.5324,0.6276,0.6774,0.6695,0.679,0.6823,0.67,0.6755,0.6923,0.7284,0.7211,0.7041,0.6687,0.6643,0.6686,0.6908,0.6859,0.6933,0.7232,0.773,0.8028,0.8028,0.8722,0.9217,0.9509,0.9706,0.9805,1.0006,1.1086,1.1385,1.0998,1.1683,1.1975,1.1785,1.1785,1.1785,1.1785,1.1785,1.1656,1.1457,1.1655,1.1569,1.1384,1.1191,1.1308,1.1584,1.1584,1.1801,1.2158,1.2526,1.2592,1.2667,1.3521,1.3639,1.3717,1.5061,1.516,1.5071,1.5599,1.5427,1.5086,1.472,1.4569,1.4569,1.4569,1.4569,1.4569,1.4569,1.445,1.418,1.3823,1.3481,1.3227,1.3108,1.2782,1.2621,1.2621,1.2621,1.2621,1.2621,1.2621,1.2621,1.2621,1.2621,1.2621,1.2621,1.2621,1.2621,1.2621,1.2621,1.2733,1.2901,1.3362,1.3703,1.3934,1.4277,1.4497,0.0897,0.1031,0.0977,0.0978,0.0992,0.0905,0.0906,0.0905,0.13,0.2455,0.2349,0.2725,0.4869,0.4929,0.5121,0.6216,0.6638,0.6796,0.6907,0.7014,0.705,0.6931,0.6923,0.7287,0.8265,0.8386,0.8009,0.704,0.6804,0.7035,0.7846,0.7708,0.8028,0.8825,0.8825,0.892,0.892,0.9509,1.0194,1.0881,1.1468,1.1765,1.2073,1.3528,1.3721,1.2861,1.3249,1.3244,1.2748,1.2748,1.2834,1.2823,1.2727,1.2581,1.2344,1.2108,1.1876,1.1704,1.2015,1.2097,1.2005,1.2005,1.2215,1.2292,1.1849,1.2209,1.2954,1.3873,1.4391,1.4985,1.6319,1.6387,1.6032,1.5761,1.5427,1.5086,1.472,1.4569,1.4569,1.4569,1.4569,1.4569,1.4569,1.4553,1.4498,1.4164,1.3791,1.3441,1.3132,1.2782,1.2621,1.2621,1.2621,1.2621,1.2621,1.2621,1.2621,1.2621,1.2621,1.2621,1.2621,1.2621,1.2621,1.2621,1.2621,1.2621,1.2621,1.3251,1.3584,1.36,1.4307,1.4641,0.2274,0.2504,0.2448,0.2486,0.2505,0.2522,0.256,0.2832,0.3098,0.352,0.3681,0.4023,0.4575,0.503,0.5422,0.572,0.6259,0.6903,0.762,0.7861,0.8151,0.8866,0.8956,0.9145,0.9403,0.941,0.9283,0.9026,0.8776,0.8677,0.8762,0.861,0.8627,0.8825,0.9422,0.9912,1.0293,1.138,1.2068,1.2268,1.2462,1.2559,1.257,1.2953,1.305,1.2764,1.2958,1.2764,1.2506,1.2506,1.267,1.2853,1.2406,1.2351,1.2574,1.2338,1.2422,1.2727,1.3145,1.273,1.2034,1.2034,1.2602,1.3414,1.3828,1.403,1.4307,1.5061,1.4977,1.4901,1.5733,1.5731,1.5469,1.5684,1.5427,1.5086,1.472,1.4569,1.4569,1.4569,1.4569,1.4569,1.4569,1.4418,1.422,1.4125,1.36,1.3187,1.31,1.2782,1.2621,1.2621,1.2621,1.2621,1.2621,1.2621,1.2621,1.2621,1.2621,1.2621,1.2621,1.2621,1.2621,1.2621,1.2621,1.2621,1.2621,1.3251,1.3584,1.36,1.4307,1.4919,0.2847,0.2978,0.3007,0.3136,0.3144,0.3059,0.3093,0.3456,0.3903,0.4106,0.4261,0.4593,0.4924,0.5223,0.5644,0.6336,0.6952,0.7568,0.8656,0.8915,0.9121,0.9667,0.9745,0.9908,1.0351,1.0351,1.0538,1.0787,0.9879,0.9372,0.9693,0.9646,0.9805,1.0203,1.0895,1.1482,1.196,1.2559,1.2861,1.3152,1.3152,1.3152,1.3152,1.334,1.3375,1.3273,1.3273,1.332,1.3361,1.3361,1.3622,1.4103,1.3658,1.3588,1.3698,1.3617,1.362,1.3808,1.4068,1.3724,1.3203,1.3203,1.3633,1.4237,1.4573,1.4734,1.4817,1.5484,1.5401,1.5318,1.5982,1.5901,1.5636,1.5684,1.5427,1.5086,1.472,1.4569,1.4569,1.4569,1.4569,1.4569,1.4569,1.4403,1.4291,1.4132,1.3648,1.3259,1.3108,1.2782,1.2621,1.2621,1.2621,1.2621,1.2621,1.2621,1.2621,1.2621,1.2621,1.2621,1.2621,1.271,1.2798,1.2798,1.2933,1.3012,1.3012,1.3553,1.4017,1.4354,1.4862,1.5551,0.3391,0.3435,0.348,0.348,0.338,0.3285,0.3303,0.3668,0.4014,0.4426,0.4499,0.4743,0.557,0.556,0.5934,0.7395,0.7877,0.8523,0.9647,0.9915,1.0017,1.0127,1.0127,1.0453,1.1202,1.1202,1.145,1.2115,1.0632,1.0008,1.0742,1.0993,1.1375,1.2078,1.2662,1.3055,1.3539,1.3152,1.3249,1.3636,1.3636,1.3636,1.3636,1.4202,1.4248,1.3993,1.4179,1.4368,1.4609,1.4609,1.4939,1.5518,1.5436,1.5269,1.5212,1.504,1.4965,1.4817,1.4817,1.4901,1.4901,1.4734,1.4734,1.4817,1.4817,1.4901,1.5068,1.565,1.5816,1.5982,1.6566,1.6508,1.619,1.5833,1.5491,1.5149,1.4792,1.4601,1.4569,1.4569,1.4569,1.4569,1.4569,1.453,1.4466,1.4156,1.3815,1.3481,1.3195,1.2806,1.2621,1.2621,1.2621,1.2621,1.2621,1.2621,1.2621,1.2621,1.2669,1.2693,1.2693,1.2973,1.3155,1.3155,1.3433,1.3584,1.3584,1.4002,1.4574,1.518,1.5765,1.6465,0.5526,0.5428,0.5362,0.5362,0.486,0.4413,0.4576,0.4579,0.4595,0.4739,0.5058,0.5375,0.563,0.5834,0.6311,0.7395,0.7873,0.8734,1.0387,1.0787,1.1122,1.1891,1.2001,1.1937,1.1889,1.1977,1.2101,1.2516,1.2079,1.1856,1.1971,1.2319,1.2565,1.2667,1.3152,1.3443,1.3539,1.3823,1.4106,1.4202,1.4202,1.4202,1.4202,1.4867,1.4993,1.4731,1.5371,1.5431,1.5012,1.5012,1.529,1.5654,1.5064,1.5113,1.5565,1.4979,1.5111,1.5567,1.5567,1.5899,1.6147,1.5068,1.5068,1.5567,1.5567,1.5899,1.6402,1.6484,1.6566,1.6566,1.6648,1.669,1.6555,1.6198,1.5848,1.5499,1.5165,1.4855,1.4569,1.4569,1.4569,1.4569,1.4569,1.4395,1.418,1.4117,1.3815,1.3561,1.3505,1.2949,1.2621,1.2621,1.2621,1.2621,1.2621,1.2621,1.2621,1.2621,1.2838,1.2996,1.2996,1.3322,1.3497,1.3497,1.3553,1.3584,1.3584,1.4529,1.5044,1.5257,1.6589,1.7642,0.6138,0.599,0.5707,0.5432,0.5106,0.4816,0.4891,0.5064,0.5328,0.5759,0.6273,0.6618,0.676,0.6956,0.7263,0.7955,0.8714,0.958,1.0695,1.1441,1.1891,1.2327,1.2659,1.2793,1.2573,1.2765,1.2944,1.2897,1.2968,1.3004,1.2715,1.2986,1.3244,1.3528,1.3823,1.3919,1.3919,1.4202,1.4298,1.4298,1.4675,1.4867,1.4867,1.5629,1.5839,1.5541,1.5756,1.5793,1.5705,1.5532,1.5708,1.6147,1.5899,1.5906,1.6154,1.5816,1.5899,1.6237,1.6237,1.6402,1.6566,1.5982,1.5989,1.6237,1.6237,1.6402,1.673,1.673,1.673,1.673,1.673,1.673,1.6643,1.6285,1.5801,1.538,1.5221,1.4895,1.4569,1.4569,1.4569,1.4569,1.4569,1.4498,1.4387,1.4387,1.4085,1.3854,1.3854,1.341,1.3028,1.2861,1.2838,1.2758,1.2575,1.2734,1.2838,1.2838,1.3155,1.3346,1.3346,1.3672,1.3854,1.3854,1.444,1.4745,1.4745,1.566,1.6405,1.7028,1.7552,1.8319,0.6776,0.6703,0.6412,0.599,0.5681,0.5633,0.565,0.5826,0.6099,0.6831,0.7204,0.7517,0.7796,0.7792,0.7996,0.8665,0.9489,1.0259,1.0944,1.1809,1.2394,1.2545,1.2985,1.3204,1.3031,1.3425,1.355,1.3165,1.3819,1.3912,1.3424,1.3545,1.3823,1.4298,1.4484,1.458,1.458,1.4682,1.4771,1.4777,1.5343,1.5629,1.5717,1.648,1.6686,1.6366,1.6142,1.6271,1.6475,1.6042,1.6237,1.673,1.673,1.673,1.673,1.673,1.673,1.673,1.673,1.673,1.673,1.673,1.673,1.673,1.673,1.673,1.673,1.673,1.673,1.673,1.673,1.673,1.6643,1.6285,1.5793,1.5388,1.5308,1.5006,1.476,1.476,1.4697,1.4569,1.4569,1.4569,1.4569,1.4569,1.4403,1.4228,1.4228,1.3982,1.368,1.3346,1.3243,1.3084,1.2869,1.3036,1.3195,1.3195,1.3513,1.3696,1.3696,1.4175,1.4429,1.4429,1.5469,1.6035,1.6035,1.6802,1.7584,1.8546,1.8429,1.892,0.9036,0.898,0.8901,0.8656,0.8193,0.7773,0.7789,0.7407,0.709,0.7338,0.7371,0.7468,0.7778,0.7434,0.7594,0.9161,0.9216,0.977,1.1475,1.1925,1.2452,1.3181,1.3315,1.3362,1.3453,1.3513,1.351,1.3511,1.4617,1.4904,1.4238,1.4214,1.4298,1.4298,1.4962,1.5343,1.5343,1.6015,1.6393,1.6393,1.6487,1.6487,1.6487,1.7232,1.7427,1.7115,1.7482,1.7408,1.7162,1.6798,1.6648,1.673,1.673,1.673,1.673,1.673,1.673,1.673,1.673,1.673,1.673,1.673,1.673,1.673,1.673,1.673,1.673,1.673,1.673,1.673,1.673,1.673,1.6643,1.6285,1.6158,1.6023,1.5705,1.5372,1.5133,1.5133,1.4863,1.4569,1.4569,1.4569,1.4569,1.4569,1.4537,1.4522,1.4522,1.4561,1.4411,1.4053,1.3727,1.3521,1.3489,1.3521,1.3537,1.3537,1.387,1.4061,1.4061,1.5096,1.5641,1.5641,1.6428,1.6802,1.6793,1.755,1.7988,1.8105,1.9168,1.9717,0.9447,0.9405,0.9216,0.884,0.8508,0.8258,0.8258,0.8033,0.8004,0.8483,0.8678,0.8843,0.9109,0.8953,0.8926,0.9406,0.9871,1.0275,1.0857,1.1608,1.238,1.2991,1.3547,1.388,1.3923,1.4677,1.5158,1.5389,1.5818,1.6015,1.5724,1.5724,1.5724,1.5724,1.6008,1.6103,1.6103,1.6487,1.6588,1.6588,1.7044,1.7232,1.7326,1.8071,1.8171,1.783,1.7842,1.758,1.7254,1.6881,1.673,1.673,1.673,1.673,1.673,1.673,1.673,1.673,1.673,1.673,1.673,1.673,1.673,1.673,1.673,1.673,1.673,1.673,1.673,1.673,1.673,1.673,1.6698,1.6555,1.6357,1.6166,1.6023,1.5721,1.5483,1.5483,1.5205,1.4967,1.4967,1.4784,1.4569,1.4569,1.4569,1.4569,1.4569,1.4569,1.4514,1.445,1.4109,1.3815,1.36,1.3775,1.3902,1.3902,1.4236,1.4638,1.5121,1.5536,1.6044,1.6446,1.7207,1.755,1.755,1.8576,1.9201,1.9464,1.9928,2.0307,0.9526,0.953,0.9447,0.9025,0.8901,0.8809,0.8608,0.8712,0.8821,0.9255,0.9493,0.971,0.9913,0.9911,0.9803,0.978,1.0189,1.055,1.0641,1.161,1.2485,1.2966,1.3811,1.4512,1.452,1.5632,1.6357,1.6616,1.677,1.6951,1.6951,1.7145,1.7052,1.6581,1.677,1.6951,1.6951,1.7145,1.7239,1.7239,1.7792,1.8064,1.8071,1.8542,1.8637,1.8279,1.7922,1.758,1.7254,1.6881,1.673,1.673,1.673,1.673,1.673,1.673,1.673,1.673,1.673,1.673,1.673,1.673,1.673,1.673,1.673,1.673,1.673,1.673,1.673,1.673,1.673,1.673,1.673,1.673,1.6547,1.6357,1.6357,1.6079,1.5833,1.5833,1.5483,1.5189,1.5189,1.4879,1.4569,1.4569,1.4569,1.4569,1.4569,1.4569,1.4569,1.4569,1.4622,1.4441,1.3918,1.4125,1.4337,1.4608,1.4852,1.5338,1.6105,1.6315,1.6655,1.7207,1.7969,1.8307,1.8307,1.9325,1.9924,2.0234,2.0358,2.0596,0.9384,0.963,0.9899,0.9696,0.9795,0.9838,0.9417,0.9405,0.9498,0.937,0.9493,0.971,0.9913,0.9584,0.9509,1.0445,1.018,1.0158,1.1358,1.2205,1.2734,1.2946,1.4131,1.5153,1.5334,1.6166,1.6588,1.6588,1.7318,1.7692,1.7692,1.835,1.8079,1.6676,1.7326,1.7692,1.7692,1.845,1.8735,1.8735,1.8735,1.8827,1.8827,1.8827,1.8637,1.8279,1.7922,1.758,1.7254,1.6881,1.673,1.673,1.673,1.673,1.673,1.673,1.673,1.673,1.673,1.673,1.673,1.673,1.673,1.673,1.673,1.673,1.673,1.673,1.673,1.673,1.673,1.673,1.673,1.673,1.673,1.673,1.673,1.6452,1.6198,1.6198,1.565,1.5189,1.5189,1.4879,1.4569,1.4569,1.4569,1.4569,1.4569,1.4569,1.4569,1.4569,1.5338,1.5471,1.4625,1.4561,1.4911,1.5754,1.5762,1.6105,1.6862,1.7619,1.7969,1.7969,1.8721,1.9075,1.9075,1.9599,1.9827,1.9848,2.0213,2.042,0.9521,0.9743,1.0024,0.9871,0.9904,0.988,0.9606,0.9705,0.9795,0.9587,0.971,0.9875,1.0024,0.9948,1.0243,1.1002,1.0848,1.1033,1.2448,1.3201,1.394,1.4914,1.6264,1.7203,1.7512,1.7606,1.7844,1.8094,1.8357,1.845,1.845,1.8643,1.855,1.8079,1.8357,1.8333,1.8092,1.8371,1.847,1.847,1.847,1.8597,1.8819,1.8573,1.8271,1.7922,1.758,1.7231,1.6897,1.6786,1.673,1.673,1.673,1.673,1.673,1.673,1.673,1.673,1.673,1.673,1.673,1.673,1.673,1.673,1.673,1.673,1.673,1.673,1.673,1.673,1.673,1.673,1.673,1.673,1.673,1.673,1.673,1.6643,1.6492,1.6254,1.5833,1.5451,1.5229,1.4879,1.4569,1.4569,1.4569,1.4569,1.4569,1.4569,1.4569,1.4569,1.5338,1.5692,1.5409,1.5895,1.6315,1.6524,1.6524,1.6862,1.7619,1.7901,1.824,1.8731,1.8998,1.923,1.9609,1.9996,2.0545,2.1166,2.13,2.1373,0.9527,0.9795,1.0038,1.0038,1.0038,0.9899,0.9691,0.9804,0.9894,0.9691,0.9809,1.0062,1.006,1.0244,1.0639,1.1409,1.1512,1.1991,1.3452,1.428,1.5203,1.673,1.7497,1.8089,1.8587,1.8459,1.8488,1.8751,1.8827,1.8827,1.8827,1.87,1.8629,1.8629,1.8629,1.8454,1.8105,1.8097,1.8097,1.8097,1.8097,1.8216,1.8422,1.82,1.7914,1.7572,1.7366,1.7072,0.0,1.673,1.673,1.673,1.673,1.673,1.673,1.673,1.673,1.673,1.673,1.673,1.673,1.673,1.673,1.673,1.673,1.673,1.673,1.673,1.673,1.673,1.673,1.673,1.6698,1.6563,1.6532,1.65,1.6365,1.6436,1.6428,1.6071,1.5825,1.557,1.5245,1.4879,1.4569,1.4569,1.4848,1.5062,1.5062,1.5267,1.548,1.548,1.6175,1.6664,1.6664,1.6802,1.7001,1.7276,1.7345,1.7619,1.8375,1.8452,1.8735,1.9323,1.9334,1.9551,2.0017,2.0472,2.1073,2.1807,2.1807,2.1807,0.0,0.9804,1.0038,1.0038,1.0038,0.9899,0.971,0.9814,0.0,0.9705,0.9833,1.0124,1.0324,1.0538,1.0939,1.1806,1.2309,1.2998,1.4394,1.5537,1.6801,1.8352,1.8152,1.8163,1.8641,1.876,1.8851,1.8827,1.8827,1.8819,1.8796,1.8478,1.8279,1.8232,1.8232,1.8073,1.7739,1.7731,1.7731,1.7731,1.7731,1.7747,1.7771,1.7747,1.7572,1.7278,1.7254,1.7048,1.673,1.673,1.673,1.673,1.673,1.673,1.673,1.673,1.673,1.673,1.673,1.673,1.673,1.673,1.673,1.673,1.673,1.673,1.673,1.673,1.673,1.673,1.673,1.673,1.6651,1.6317,1.6246,1.615,1.5825,1.6015,1.6134,1.5753,1.5674,1.557,1.5311,1.4976,1.4753,1.4848,1.5468,1.5947,1.5947,1.6464,1.6932,1.6932,1.7579,1.8086,1.8086,1.7432,1.7345,1.8037,1.8104,1.8395,1.9116,1.9116,1.9344,1.9799,1.991,2.0058,2.0472,2.0938,2.1383,2.1807,2.1807,2.1807,0.988,0.0,1.0038,1.0038,1.0038,1.0024,0.0,0.9918,1.0024,0.9889,1.005,1.0479,1.1321,1.1395,1.2057,1.3963,1.413,1.464,1.6454,1.7701,1.8782,1.979,1.9628,1.9369,1.9223,1.9241,1.9129,1.8851,1.8827,1.8708,1.8438,1.8343,1.8057,1.7533,1.7517,1.7477,1.7397,1.7397,1.7397,1.7397,1.7397,1.7525,1.7763,1.7509,1.735,1.7262,1.6984,1.681,1.673,1.673,1.673,1.673,1.673,1.673,1.673,1.673,1.673,1.673,1.673,1.673,1.673,1.673,1.673,1.673,1.673,1.673,1.673,1.673,1.673,1.673,1.673,1.673,1.6714,1.6627,1.6611,1.6587,1.6508,1.6547,1.6428,1.5801,1.5674,1.5791,1.6094,1.6032,1.6276,1.7222,1.7225,1.7098,1.7098,1.6985,1.6932,1.6932,1.7916,1.8536,1.8536,1.8574,1.8654,1.8865,1.8865,1.9085,1.9582,1.9671,1.981,2.0265,2.0617,2.0845,2.0948,2.1414,2.1694,2.1807,2.1807,2.1807,1.0038,1.0038,1.0038,1.0038,1.0038,1.0038,1.0038,1.0038,1.0149,1.085,1.0977,1.1394,1.2864,1.3044,1.3491,1.5341,1.5557,1.6182,1.8261,1.9157,1.9884,2.0292,1.9948,1.9566,1.9391,1.9225,1.9042,1.8843,1.8676,1.8502,1.8311,1.8001,1.766,1.7294,1.7111,1.7032,1.7032,1.7032,1.7032,1.7032,1.7032,1.7119,1.7286,1.7111,1.7032,1.7016,1.6818,1.673,1.673,1.673,1.673,1.673,1.673,1.673,1.673,1.673,1.673,1.673,1.673,1.673,1.673,1.673,1.673,1.673,1.673,1.673,1.673,1.673,1.673,1.673,1.673,1.6968,1.7163,1.6613,1.6806,1.699,1.6834,1.6924,1.7025,1.6911,1.7021,1.7173,1.722,1.7231,1.7449,1.8101,1.8237,1.8313,1.8313,1.8408,1.8484,1.8484,1.9123,1.9485,1.9485,1.9612,1.9696,1.9696,1.9696,1.9799,2.0058,2.0069,2.0276,2.0731,2.1197,2.1424,2.1435,2.1683,2.1807,2.1807,2.1807,2.1807,1.0028,1.0062,1.009,1.009,1.0197,1.0392,1.0304,1.0474,1.1051,1.2209,1.2377,1.2806,1.4615,1.4769,1.5081,1.6449,1.7014,1.7844,1.959,2.0163,2.0313,2.0313,1.9709,1.9288,1.9288,1.901,1.8827,1.8827,1.8494,1.8279,1.8224,1.762,1.7254,1.7199,1.6972,1.6894,1.6894,1.673,1.673,1.673,1.6812,1.6894,1.6894,1.6894,1.6894,1.6894,1.673,1.673,1.673,1.673,1.673,1.673,1.673,1.673,1.673,1.673,1.673,1.673,1.673,1.673,1.673,1.673,1.673,1.673,1.673,1.673,1.673,1.673,1.6812,1.6894,1.6894,1.7521,1.7912,1.69,1.7212,1.7666,1.7438,1.7535,1.7863,1.8238,1.86,1.8729,1.8518,1.8453,1.8545,1.8685,1.9238,1.9565,1.9565,2.0021,2.042,2.042,2.0483,2.0534,2.0534,2.0596,2.0638,2.0638,2.0503,2.0452,2.0524,2.0596,2.0824,2.1217,2.1611,2.1807,2.1807,2.1807,2.1807,2.1807,2.1807,2.1807,0.9904,1.0083,1.0225,1.0225,1.1156,1.21,1.1823,1.2806,1.3709,1.3758,1.4047,1.4603,1.5803,1.5954,1.6519,1.8266,1.929,2.0046,2.0656,2.0253,1.9948,1.9948,1.9328,1.8907,1.8907,1.8859,1.8827,1.8827,1.8494,1.8168,1.7866,1.7485,1.7135,1.6826,1.7473,1.7764,1.7764,1.7049,1.673,1.6738,1.7448,1.7764,1.7764,1.7764,1.7764,1.7764,1.7049,1.673,1.673,1.673,1.673,1.673,1.673,1.673,1.673,1.673,1.673,1.673,1.673,1.673,1.673,1.673,1.673,1.673,1.673,1.673,1.673,1.673,1.7204,1.7764,1.7764,1.847,1.9079,1.8867,1.8937,1.8988,1.8934,1.897,1.8976,1.8745,1.8727,1.8974,1.9655,1.972,2.0072,2.1065,2.1025,2.0853,2.0853,2.0586,2.042,2.042,2.0772,2.101,2.101,2.1373,2.159,2.159,2.0855,2.0596,2.1,2.1383,2.1631,2.1694,2.1766,2.1807,2.1807,2.1807,2.1807,2.1807,2.1807,2.1807,0.9762,1.0102,1.0615,1.1151,1.1769,1.2204,1.2113,1.3194,1.4417,1.5033,1.5349,1.5957,1.7338,1.7668,1.8201,1.9552,2.0245,2.0734,2.0901,2.048,2.0083,1.9884,1.9423,1.9042,1.8843,1.8653,1.8541,1.8541,1.8466,1.8333,1.8168,1.8303,1.8267,1.8086,1.847,1.8709,1.8709,1.8318,1.8078,1.8078,1.855,1.8718,1.8718,1.8426,1.8328,1.8258,1.7389,1.7309,1.7723,1.7527,1.7683,1.806,1.7863,1.7706,1.7706,1.7706,1.7595,1.7367,1.7367,1.7683,1.7963,1.7288,1.7515,1.7963,1.7208,1.7523,1.7997,1.7521,1.7683,1.7997,1.7997,1.8948,1.9816,1.9423,1.9659,1.9982,1.9982,1.9982,2.0003,2.037,2.0407,2.0559,2.0949,2.0949,2.1171,2.17,2.1621,2.1487,2.1487,2.13,2.1176,2.1176,2.1362,2.1487,2.1487,2.1683,2.1807,2.1807,2.1404,2.1269,2.1476,2.1694,2.1807,2.1807,2.1807,2.1807,2.1807,2.1807,2.1807,2.1807,2.1807,2.1807,0.9536,1.0027,1.0721,1.1909,1.2292,1.2466,1.2923,1.3976,1.5192,1.6544,1.6878,1.7328,1.8714,1.9044,1.9477,2.0297,2.0694,2.0893,2.0813,2.0496,2.0138,1.9789,1.9637,1.9495,1.9212,1.9036,1.8904,1.8904,1.882,1.8811,1.8811,1.9084,1.9335,1.9335,1.9502,1.9534,1.944,1.9587,1.9565,1.9335,1.9492,1.9543,1.9459,1.9065,1.8861,1.8692,1.7843,1.7896,1.8561,1.8303,1.8629,1.9219,1.8757,1.8556,1.8473,1.8473,1.827,1.7969,1.7969,1.8442,1.877,1.7777,1.8115,1.8788,1.7882,1.8335,1.8988,1.8443,1.8479,1.8559,1.8559,1.9668,2.0615,2.0051,2.0372,2.0779,2.0779,2.0779,2.1011,2.1645,2.1807,2.1807,2.1807,2.1807,2.1807,2.1807,2.1807,2.1807,2.1807,2.1807,2.1807,2.1807,2.1807,2.1883,2.1883,2.1807,2.1807,2.1807,2.1807,2.1807,2.1807,2.1807,2.1807,2.1807,2.1807,2.1807,2.1807,2.1807,2.1859,2.1963,2.1963,2.2025,0.9456,0.9819,1.0436,1.21,1.2731,1.3544,1.5455,1.651,1.7478,1.8594,1.8996,1.9209,1.9328,1.9606,1.9955,2.0329,2.0694,2.0805,2.048,2.0122,1.9781,1.9447,1.9903,2.0192,2.0167,2.0527,2.082,2.082,2.0161,1.9707,1.9707,1.9485,1.9335,1.9335,1.9982,2.0198,1.9885,2.0636,2.044,1.9344,2.006,2.0178,1.9885,1.9847,1.9548,1.9087,1.8267,1.8113,1.862,1.857,1.8866,1.9219,1.8757,1.8306,1.7979,1.7979,1.7913,1.794,1.794,1.794,1.8015,1.7913,1.7922,1.8079,1.8424,1.8552,1.8729,1.9085,1.9737,2.0304,2.0304,2.1011,2.1721,2.1645,2.1645,2.1731,2.1731,2.1731,2.1721,2.1807,2.1807,2.1807,2.1807,2.1807,2.1807,2.1807,2.1807,2.1807,2.1807,2.1807,2.1807,2.1807,2.1959,2.2101,2.2101,2.1883,2.1807,2.1807,2.1807,2.1807,2.1807,2.1807,2.1807,2.1807,2.1807,2.1807,2.1807,2.1807,2.2025,2.2449,2.2449,2.2677,1.0054,1.0714,1.1701,1.3829,1.4111,1.4427,1.6035,1.7458,1.8464,1.8964,1.9423,1.9677,1.9677,1.9614,1.9669,2.0011,2.0178,2.0416,2.085,2.0815,2.0878,2.106,2.1128,2.0962,2.0722,2.0458,2.0245,2.0245,2.022,2.022,2.022,2.0625,2.0718,2.045,2.0677,2.07,2.0254,2.0535,2.0471,2.0024,2.0256,2.0333,2.0234,1.9961,1.9748,1.9515,1.8643,1.8658,1.9347,1.9101,1.9367,1.991,1.9486,1.8932,1.8356,1.8857,1.8879,1.8746,1.8746,1.9039,1.9354,1.8505,1.8817,1.936,1.9084,1.9538,2.0141,2.0101,2.0692,2.1175,2.0615,2.1175,2.1807,2.1807,2.1807,2.1807,2.1807,2.1807,2.1807,2.1807,2.1807,2.1807,2.1807,2.1807,2.1807,2.1807,2.1807,2.1807,2.1807,2.1807,2.1807,2.1807,2.1883,2.1873,2.1873,2.1807,2.1807,2.1807,2.1807,2.1807,2.1807,2.1807,2.1807,2.1807,2.1807,2.1807,2.1807,2.2097,2.2325,2.2501,2.2791,2.3018,1.0992,1.1741,1.2943,1.5076,1.5395,1.5503,1.6951,1.8028,1.8824,1.9223,1.9605,1.9797,1.9574,1.9447,1.9534,2.0134,2.0264,2.0586,2.1509,2.1587,2.1684,2.1798,2.1756,2.1599,2.1267,2.0853,2.069,2.069,2.0781,2.0934,2.0934,2.1349,2.1445,2.1124,2.0969,2.0679,2.0213,2.0213,2.0141,1.9996,1.9996,2.0079,2.0203,1.9903,1.9744,1.9541,1.8972,1.9121,1.9779,1.9515,1.9707,2.0182,1.9882,1.9379,1.8765,1.9325,1.9381,1.9142,1.9142,1.9495,1.9875,1.8993,1.9253,1.9877,1.9524,2.0092,2.0843,2.0757,2.1227,2.1645,2.1098,2.1328,2.1807,2.1807,2.1807,2.1807,2.1807,2.1807,2.1849,2.1994,2.2025,2.2066,2.2211,2.232,2.232,2.2242,2.2387,2.2335,2.2045,2.2102,2.2102,2.2102,2.2025,2.2076,2.2309,2.2108,2.2025,2.2025,2.189,2.1807,2.1807,2.1807,2.1807,2.1807,2.1952,2.2025,2.2025,2.249,2.2791,2.2946,2.3256,2.3484,1.2147,1.2688,1.3651,1.5637,1.64,1.6992,1.8464,1.8391,1.8361,1.9657,1.986,1.9646,1.8962,1.9129,1.973,2.0628,2.1036,2.1527,2.2162,2.2199,2.1898,2.1094,2.1845,2.2256,2.1744,2.216,2.248,2.248,2.2056,2.1797,2.1807,2.1362,2.1114,2.1104,2.0659,2.0203,1.9827,1.9827,1.9588,1.9075,1.9075,1.9313,1.9827,1.9827,1.9567,1.9075,1.9075,1.9323,1.9827,1.9827,1.9827,1.9827,1.9827,1.9536,1.9075,1.9075,1.9075,1.9075,1.9075,1.9075,1.9075,1.9075,1.9075,1.9158,1.9692,2.0069,2.0524,2.0979,2.1445,2.1807,2.1807,2.1807,2.1807,2.1807,2.1807,2.1807,2.1807,2.1807,2.1942,2.2408,2.2501,2.2646,2.3111,2.3346,2.3426,2.3275,2.3556,2.3467,2.2631,2.2658,2.2814,2.2814,2.2658,2.2766,2.3465,2.2918,2.2501,2.2501,2.2066,2.1807,2.1807,2.1807,2.1807,2.1818,2.2263,2.2501,2.2501,2.2967,2.3432,2.3877,2.3888,2.4115,1.3566,1.4398,1.5275,1.6988,1.7589,1.7931,1.8648,1.8895,1.919,1.9812,1.9677,1.9455,1.9248,1.9633,2.0154,2.042,2.1063,2.1726,2.2282,2.2312,2.237,2.2516,2.2504,2.23,2.1842,2.1634,2.1528,2.1528,2.1393,2.1455,2.1787,2.1362,2.0969,2.0638,2.0193,1.9737,1.9282,1.9282,1.921,1.9075,1.9075,1.9137,1.9282,1.9282,1.9199,1.9075,1.9075,1.9214,1.9282,1.9282,1.9282,1.9282,1.9282,1.9189,1.9075,1.9075,1.9075,1.9075,1.9075,1.9075,1.9075,1.9075,1.9075,1.9158,1.9692,2.0069,2.0524,2.0979,2.1445,2.1807,2.1807,2.1883,2.1959,2.1807,2.1807,2.1807,2.1959,2.2025,2.2171,2.2787,2.2882,2.3108,2.3551,2.3636,2.3716,2.3727,2.3705,2.3732,2.3446,2.3504,2.3504,2.3605,2.3515,2.3477,2.3695,2.3224,2.2882,2.2882,2.2363,2.1959,2.1807,2.1807,2.1963,2.2283,2.2585,2.2814,2.2987,2.3606,2.3908,2.3888,2.4198,2.4501,1.4878,1.5826,1.6808,1.785,1.8324,1.8565,1.878,1.9105,1.9431,1.963,1.9876,1.9964,1.9816,2.0329,2.097,2.132,2.1725,2.2236,2.2934,2.2828,2.2734,2.2886,2.2666,2.2242,2.159,2.128,2.1114,2.1114,2.1114,2.1311,2.1776,2.1362,2.099,2.071,2.0255,1.981,1.9344,1.9344,1.9251,1.9075,1.9075,1.9075,1.9075,1.9075,1.9075,1.9075,1.9075,1.9075,1.9075,1.9075,1.9075,1.9075,1.9075,1.9075,1.9075,1.9075,1.9075,1.9075,1.9075,1.9075,1.9075,1.9075,1.9075,1.9116,1.9474,1.9924,2.0483,2.0762,2.1385,2.1959,2.1959,2.2101,2.2176,2.1959,2.1959,2.2101,2.2176,2.2252,2.2453,2.3264,2.3402,2.3594,2.4232,2.4431,2.4513,2.4442,2.419,2.4143,2.4223,2.3983,2.394,2.4143,2.4073,2.4136,2.4328,2.3924,2.3589,2.352,2.2998,2.2579,2.2356,2.218,2.2372,2.2918,2.3106,2.3346,2.3463,2.4158,2.4619,2.4764,2.465,2.4946,1.6163,1.7141,1.8057,1.8253,1.8589,1.8827,1.8827,1.909,1.932,1.9415,2.0135,2.066,2.0499,2.115,2.212,2.2863,2.2791,2.2864,2.367,2.3391,2.2956,2.249,2.2439,2.2087,2.1207,2.1114,2.1114,2.1114,2.1114,2.1311,2.1776,2.1362,2.1114,2.1114,2.0659,2.0213,1.9837,1.9837,1.9599,1.9142,1.9142,1.9131,1.9075,1.9075,1.9075,1.9075,1.9075,1.9075,1.9075,1.9075,1.9075,1.9075,1.9075,1.9075,1.9075,1.9075,1.9142,1.9142,1.9075,1.9142,1.9142,1.9131,1.9142,1.9142,1.9142,1.9706,2.042,2.042,2.124,2.2101,2.2101,2.2252,2.2402,2.2176,2.2252,2.2402,2.2402,2.2402,2.2679,2.3636,2.3828,2.4196,2.5125,2.5464,2.5559,2.5285,2.4911,2.4727,2.4995,2.4444,2.4255,2.4591,2.4634,2.4815,2.5253,2.4847,2.4498,2.4282,2.385,2.3517,2.3408,2.2881,2.286,2.3479,2.3825,2.3981,2.4023,2.4587,2.5253,2.5953,2.5253,2.5263,1.6993,1.7666,1.8285,1.8645,1.8772,1.8827,1.8827,1.8891,1.9124,1.9929,2.0286,2.0624,2.1257,2.2129,2.2717,2.2551,2.3133,2.336,2.2894,2.2708,2.247,2.2004,2.1952,2.1735,2.1176,2.1114,2.1114,2.1114,2.1114,2.1311,2.1776,2.1362,2.1114,2.1114,2.0803,2.0425,1.9986,2.0112,1.9881,1.9274,1.9274,1.9208,1.9075,1.9075,1.9075,1.9075,1.9075,1.9075,1.9075,1.9075,1.9075,1.9075,1.9075,1.9075,1.9075,1.9075,1.9142,1.9208,1.9142,1.9274,1.9473,1.9208,1.9142,1.9274,1.9274,1.9912,2.0634,2.0807,2.1544,2.2327,2.2327,2.2478,2.2628,2.2553,2.2478,2.2478,2.2628,2.2628,2.2994,2.4133,2.4328,2.4621,2.5565,2.5812,2.5812,2.5728,2.5641,2.5659,2.5659,2.5572,2.5539,2.5554,2.5576,2.5608,2.5717,2.5283,2.5001,2.5011,2.4395,2.4298,2.4757,2.3682,2.3256,2.3805,2.4219,2.443,2.4724,2.4988,2.5105,2.5179,2.4935,2.5105,1.7305,1.7864,1.8383,1.874,1.8827,1.8912,1.9455,1.9546,1.9894,2.132,2.1239,2.1239,2.2217,2.2939,2.3428,2.3197,2.3155,2.3049,2.2563,2.2304,2.2076,2.1838,2.1807,2.1621,2.1303,2.1261,2.1261,2.1397,2.1408,2.1607,2.208,2.187,2.1744,2.1744,2.1502,2.1156,2.0846,2.0836,2.0487,1.9744,1.9744,1.9628,1.9341,1.9142,1.9075,1.9075,1.9075,1.9075,1.9075,1.9075,1.9142,1.9208,1.9208,1.9274,1.9341,1.9208,1.9208,1.9274,1.9208,1.9274,1.9341,1.9341,1.9341,1.9351,1.9407,2.0128,2.0868,2.0949,2.1763,2.2553,2.2553,2.2703,2.2852,2.2852,2.2777,2.2703,2.2852,2.3037,2.3416,2.4344,2.4661,2.5043,2.5775,2.5895,2.5895,2.5895,2.5895,2.5895,2.5895,2.5895,2.5895,2.5895,2.5895,2.5895,2.5895,2.5666,2.5513,2.5441,2.5038,2.4923,2.5088,2.4449,2.4262,2.4514,2.4671,2.4788,2.4861,2.5115,2.5443,2.5841,2.5684,2.6008,1.7361,1.7905,1.8383,1.8915,1.9096,1.9363,2.0348,2.052,2.106,2.2746,2.2482,2.2217,2.3193,2.3649,2.3857,2.3774,2.3049,2.247,2.2387,2.2045,2.1807,2.1807,2.1807,2.1728,2.1565,2.1523,2.1671,2.1817,2.1817,2.1988,2.2381,2.2402,2.2402,2.2402,2.2252,2.203,2.1763,2.1627,2.1203,2.0435,2.036,2.0062,1.9605,1.9341,1.9208,1.9208,1.9142,1.9142,1.9208,1.9142,1.9208,1.9351,1.9435,1.9481,1.955,1.9502,1.9414,1.9351,1.9285,1.9274,1.9274,1.9473,1.9473,1.9428,1.9711,2.0339,2.1052,2.1197,2.1972,2.2777,2.2777,2.2852,2.3001,2.3001,2.3067,2.311,2.3023,2.3383,2.3886,2.4388,2.4923,2.5426,2.583,2.5895,2.5895,2.5895,2.5895,2.5895,2.5895,2.5895,2.5895,2.5895,2.5895,2.5895,2.5895,2.5895,2.5822,2.5644,2.5654,2.5475,2.5126,2.52,2.5285,2.5285,2.5115,2.5031,2.5031,2.52,2.5684,2.6577,2.6434,2.6835,1.7249,1.7811,1.8555,1.9802,2.0076,2.0348,2.1338,2.1516,2.1774,2.2921,2.3008,2.3193,2.4176,2.4093,2.3743,2.335,2.2842,2.2356,2.1952,2.1849,2.1807,2.1807,2.1959,2.208,2.2017,2.2157,2.2307,2.2307,2.2307,2.2339,2.2402,2.2402,2.2402,2.2402,2.2553,2.2391,2.198,2.2085,2.1826,2.1134,2.0589,2.0062,1.9605,1.9539,1.9539,1.9539,1.9341,1.9341,1.9539,1.9351,1.9417,1.9581,1.9995,1.9843,1.9393,1.9938,1.9899,1.9539,1.9351,1.9615,1.9878,1.9483,1.955,1.9877,2.0296,2.087,2.1398,2.1962,2.2524,2.2927,2.2927,2.3001,2.3001,2.3001,2.3329,2.3514,2.3088,2.3383,2.3886,2.4388,2.5207,2.5819,2.5884,2.5895,2.5895,2.5895,2.5895,2.5895,2.5895,2.5895,2.5895,2.5895,2.5895,2.5895,2.5895,2.5895,2.5906,2.5822,2.5822,2.5812,2.5728,2.5812,2.5728,2.5559,2.5559,2.5475,2.5475,2.5559,2.5644,2.5717,2.5717,2.5801,1.8194,1.9031,2.0043,2.0882,2.106,2.1329,2.2306,2.2482,2.2746,2.3724,2.3907,2.3922,2.4124,2.3795,2.3339,2.2873,2.2408,2.2035,2.1838,2.1807,2.1807,2.1807,2.1883,2.2025,2.2252,2.2327,2.2478,2.2703,2.2703,2.2703,2.2703,2.2703,2.2703,2.2703,2.2703,2.255,2.2158,2.2147,2.1778,2.104,2.0485,2.0083,1.9878,1.9878,1.9813,1.9605,1.9473,1.9539,1.9605,1.9473,1.9539,1.9658,2.0272,2.0258,2.003,2.0379,2.0315,2.01,1.9767,1.9747,1.9856,2.0124,2.0277,2.043,2.0986,2.1474,2.1897,2.2186,2.2652,2.3001,2.3001,2.3001,2.3067,2.334,2.3569,2.3744,2.382,2.4203,2.4683,2.5185,2.5622,2.5895,2.5895,2.5895,2.5895,2.5895,2.6136,2.631,2.631,2.6529,2.6693,2.6693,2.6693,2.6693,2.6693,2.6452,2.631,2.631,2.6059,2.5812,2.5738,2.5812,2.5812,2.5559,2.5464,2.5475,2.5559,2.5475,2.5549,2.5812,2.6146,2.6385,1.9138,2.0112,2.1025,2.1692,2.1966,2.2306,2.328,2.3454,2.3637,2.4358,2.454,2.4374,2.3805,2.3422,2.3039,2.2573,2.2108,2.1807,2.1807,2.1807,2.1883,2.1883,2.1959,2.2176,2.2478,2.2553,2.2703,2.3001,2.3001,2.3001,2.3001,2.2892,2.2826,2.2826,2.2559,2.2331,2.2138,2.1962,2.1539,2.0928,2.05,2.026,2.0085,2.0085,1.9944,1.9747,1.9671,1.9681,1.9747,1.9671,1.9681,1.9801,2.0536,2.0766,2.0622,2.0939,2.0863,2.0536,2.018,1.9909,1.9822,2.0563,2.0725,2.0834,2.1522,2.2029,2.2346,2.2455,2.2739,2.3001,2.3001,2.3088,2.3274,2.3646,2.3919,2.4203,2.4585,2.4934,2.5317,2.5808,2.5895,2.5895,2.5895,2.5895,2.5939,2.607,2.6398,2.6671,2.6791,2.7097,2.7315,2.7315,2.7315,2.7315,2.7315,2.69,2.6627,2.6627,2.6168,2.5812,2.5654,2.5812,2.5822,2.5654,2.5464,2.5464,2.5654,2.5464,2.5549,2.5895,2.6396,2.6715,1.9697,2.0117,2.0857,2.2034,2.2697,2.328,2.4176,2.4454,2.4454,2.4454,2.454,2.4271,2.3381,2.3205,2.3039,2.2573,2.2108,2.1807,2.1807,2.1949,2.2101,2.2101,2.2402,2.2628,2.2703,2.2852,2.3001,2.3001,2.3001,2.3001,2.3001,2.2586,2.2357,2.2357,2.1898,2.1647,2.1625,2.1625,2.1363,2.0928,2.0895,2.0587,2.0085,2.0085,2.0085,2.0085,1.9933,1.9944,2.0074,1.9933,1.9944,2.0172,2.1188,2.1127,2.0698,2.1827,2.1517,2.059,2.0557,2.0322,2.0162,2.0506,2.0725,2.1035,2.1985,2.2302,2.2411,2.2848,2.2979,2.3001,2.3001,2.334,2.37,2.3722,2.4432,2.5109,2.5131,2.5153,2.5317,2.5808,2.5895,2.5895,2.5895,2.5895,2.6059,2.6529,2.6616,2.6791,2.7228,2.7293,2.7315,2.7315,2.7315,2.7315,2.7315,2.69,2.6627,2.6627,2.6168,2.5895,2.5895,2.5895,2.5895,2.5895,2.5644,2.5644,2.5895,2.5895,2.5895,2.5895,2.5895,2.599,2.0745,2.1218,2.2008,2.3069,2.3466,2.3744,2.4382,2.454,2.454,2.454,2.454,2.426,2.335,2.3346,2.3175,2.2401,2.2216,2.2176,2.2176,2.2252,2.2327,2.2327,2.2402,2.2553,2.2703,2.2777,2.2852,2.3001,2.3001,2.287,2.2575,2.2411,2.2171,2.1865,2.168,2.1439,2.1123,2.0817,2.0577,2.0402,2.0402,2.05,2.0764,2.0764,2.1008,2.1365,2.1302,2.088,2.0085,2.0074,2.0194,2.0474,2.1261,2.1588,2.1555,2.1762,2.1555,2.1174,2.0487,2.0227,2.0216,2.1,2.1261,2.1505,2.2466,2.2761,2.2783,2.2957,2.3001,2.3078,2.3383,2.3591,2.3886,2.4508,2.5153,2.5732,2.6037,2.5863,2.5688,2.5874,2.5895,2.6005,2.631,2.6376,2.6529,2.6998,2.7337,2.7588,2.7763,2.8047,2.8233,2.8233,2.8233,2.8233,2.8233,2.7807,2.7534,2.7534,2.6802,2.6609,2.7189,2.6873,2.7021,2.7476,2.7395,2.6928,2.5895,2.6279,2.6599,2.6787,2.7244,2.7476,2.1459,2.1974,2.2646,2.3256,2.3536,2.3764,2.4219,2.4322,2.4364,2.4509,2.454,2.4312,2.3557,2.345,2.3202,2.2258,2.2252,2.2402,2.2402,2.2478,2.2478,2.2478,2.2553,2.2628,2.2777,2.2777,2.2852,2.3001,2.3001,2.287,2.2564,2.2248,2.1778,2.1134,2.1112,2.0948,2.062,2.0489,2.0453,2.0453,2.0635,2.1008,2.1439,2.1439,2.1678,2.2101,2.2101,2.1502,2.0453,2.07,2.0642,2.0552,2.1526,2.1908,2.1876,2.1816,2.1864,2.1807,2.0731,2.0521,2.0921,2.1732,2.1987,2.2095,2.3061,2.3213,2.3001,2.3001,2.3213,2.3461,2.396,2.4556,2.516,2.5775,2.614,2.6351,2.6518,2.6376,2.619,2.6343,2.6376,2.6474,2.6802,2.6856,2.702,2.7479,2.7839,2.8102,2.8265,2.856,2.8757,2.8757,2.8757,2.8757,2.8757,2.832,2.8127,2.8477,2.7722,2.7617,2.8361,2.7764,2.7662,2.7959,2.7718,2.7174,2.6302,2.6987,2.7464,2.7649,2.8108,2.8585,0.0,0.0,0.0,2.249,2.2832,2.3287,2.3753,2.3857,2.3981,2.4436,2.4519,2.4385,2.396,2.3669,2.3223,2.23,2.2273,2.2402,2.2402,2.2553,2.2703,2.2703,2.2852,2.3001,2.3001,2.3001,2.3001,2.3001,2.3001,2.299,2.2979,2.2144,2.1202,2.0172,2.014,2.014,2.0151,2.0816,2.1123,2.1123,2.1803,2.2101,2.2113,2.2113,2.2163,2.2175,2.2175,2.1803,2.1187,2.1865,2.1325,2.0314,2.1992,2.2252,2.1717,2.2188,2.2458,2.2423,2.133,2.1483,2.2181,2.2573,2.2718,2.2846,2.3821,2.3632,2.3075,2.3075,2.3559,2.4319,2.4934,2.6422,2.7633,2.7302,2.7196,2.711,2.6786,2.666,2.6802,2.7228,2.7304,2.7315,2.7326,2.7414,2.759,2.8072,2.8058,2.8222,2.8784,2.885,2.885,2.8757,2.885,2.885,2.885,2.832,2.8499,2.947,2.9051,2.8885,2.9398,2.8492,2.7833,2.729,2.6467,2.6456,2.7267,2.8039,2.8426,2.8426,2.8426,2.89,2.1807,0.0,0.0,0.0,0.0,0.0,2.3277,2.3381,2.3505,2.3971,2.4148,2.4273,2.4148,2.432,2.4277,2.3667,2.3079,2.2703,2.2777,2.2852,2.2927,2.2927,2.3001,2.3001,2.3001,2.3001,2.3001,2.3001,2.3001,2.3058,2.327,2.2854,2.2062,2.0839,2.1302,2.1313,2.0816,2.1491,2.1803,2.1803,2.1978,2.2347,2.2834,2.2834,2.31,2.3543,2.3543,2.3173,2.2531,2.2224,2.2091,2.2122,2.3029,2.3234,2.3056,2.3264,2.305,2.2663,2.2016,2.2183,2.2811,2.3275,2.3696,2.4136,2.4802,2.4802,2.4659,2.4659,2.4802,2.5218,2.6122,2.7275,2.8155,2.8072,2.7848,2.7946,2.8853,2.8844,2.8451,2.7436,2.781,2.8434,2.882,2.9491,3.0079,3.0496,3.0053,2.9659,2.9795,2.9818,2.9555,2.8839,2.9371,2.9818,2.9818,2.9693,2.9963,3.0932,2.9934,2.993,3.1311,2.9723,2.909,2.9684,2.9605,2.9394,2.8991,2.8585,2.8743,2.9381,3.0024,3.0419,0.0,2.1807,2.1869,2.2216,0.0,0.0,2.287,2.2974,2.3029,2.3494,2.3908,2.421,2.421,2.4426,2.4648,2.446,2.3781,2.3383,2.3624,2.3624,2.3536,2.3329,2.3307,2.323,2.3023,2.3001,2.3001,2.3001,2.3001,2.315,2.3361,2.3301,2.2874,2.1905,2.2047,2.1928,2.1491,2.2163,2.2543,2.2531,2.2798,2.3173,2.3531,2.3531,2.3734,2.4112,2.4112,2.3865,2.3471,2.3113,2.2801,2.2642,2.3673,2.3886,2.3622,2.3688,2.3627,2.3494,2.2769,2.3107,2.3879,2.4378,2.47,2.5068,2.5632,2.5511,2.5312,2.5312,2.5826,2.6685,2.7617,2.8662,2.9381,2.9069,2.9008,2.9236,2.9893,3.0008,2.9852,2.9221,2.9537,2.998,3.0296,3.0795,3.124,3.1529,3.1134,3.0789,3.0789,3.0789,3.0609,3.0,3.0429,3.0789,3.0789,3.0429,3.0609,3.1577,3.0873,3.0766,3.1768,3.0721,3.0177,3.0218,3.0035,2.9858,2.9704,2.9549,2.9781,3.0254,3.0748,3.0986,0.0,0.0,0.0,2.2025,2.2025,0.0,2.2703,2.2797,2.2846,2.3318,2.3911,2.4392,2.4498,2.4734,2.4897,2.5115,2.4858,2.4642,2.4497,2.4566,2.4469,2.4018,2.3985,2.3775,2.3408,2.332,2.3213,2.3139,2.3213,2.3358,2.363,2.3843,2.3644,2.3135,2.2589,2.2298,2.2224,2.2907,2.3207,2.322,2.3793,2.4112,2.4112,2.4112,2.4112,2.4112,2.4112,2.4112,2.4112,2.4112,2.3424,2.2469,2.414,2.4397,2.3879,2.4001,2.4353,2.4707,2.3634,2.4142,2.5266,2.5677,2.5744,2.5816,2.6332,2.607,2.5523,2.5654,2.69,2.8448,2.9197,3.0176,3.0823,3.0024,3.0272,3.0623,3.0321,3.0737,3.1307,3.1843,3.184,3.1753,3.1753,3.184,3.1928,3.1928,3.184,3.1753,3.1753,3.1665,3.1577,3.1577,3.1577,3.1665,3.1753,3.0956,3.0866,3.184,3.184,3.1663,3.1568,3.1468,3.0859,2.9817,2.8937,2.8978,2.9871,3.0583,3.0986,3.0986,3.0986,3.0986,0.0,0.0,0.0,2.1883,2.2371,0.0,2.3056,2.3734,2.4384,2.49,2.5159,2.5634,2.6468,2.6854,2.714,2.7643,2.762,2.6895,2.4823,2.5083,2.5404,2.5301,2.5518,2.5571,2.5465,2.511,2.4576,2.3902,2.4504,2.4919,2.5117,2.5254,2.4899,2.3842,2.373,2.3471,2.2895,2.3543,2.3923,2.3923,2.4054,2.4112,2.4112,2.4112,2.4112,2.4112,2.4112,2.4112,2.4112,2.4112,2.3936,2.385,2.512,2.5213,2.4854,2.5756,2.5884,2.5547,2.5305,2.5753,2.6373,2.6466,2.6778,2.71,2.7217,2.7175,2.713,2.7662,2.8433,2.9223,2.9777,3.0477,3.0986,3.0823,3.0955,3.1385,3.1996,3.2389,3.2855,3.3674,3.325,3.2722,3.2722,3.3335,3.3869,3.3869,3.325,3.2722,3.2722,3.2103,3.1577,3.1577,3.1577,3.1928,3.2636,3.255,3.2895,3.3784,3.3164,3.2874,3.3105,3.194,3.1047,3.0407,2.9774,2.9871,3.0748,3.0898,3.0986,3.0986,3.0986,3.0986,0.0,0.0,0.0,2.1959,2.2306,0.0,0.0,2.3722,2.4311,2.4929,2.5418,2.5834,2.6368,2.7043,2.7729,2.7993,2.8258,2.7929,2.6644,2.6799,2.6929,2.6747,2.6856,2.6697,2.6166,2.5829,2.5421,2.4731,2.5429,2.5877,2.5933,2.6142,2.5985,2.537,2.4853,2.4411,2.4073,2.4066,2.4112,2.4112,2.4112,2.4112,2.4112,2.4112,2.4112,2.4112,2.4112,2.4112,2.4112,2.4112,2.4112,2.423,2.5367,2.5641,2.5497,2.636,2.6491,2.6242,2.6242,2.6438,2.6726,2.7,2.7301,2.7523,2.7523,2.7523,2.7654,2.8216,2.8817,2.9405,2.9993,3.0555,3.0986,3.0986,3.1319,3.169,3.2189,3.26,3.3032,3.3454,3.3442,3.3379,3.3649,3.4134,3.4397,3.4397,3.4037,3.3687,3.3687,3.325,3.298,3.298,3.298,3.3164,3.3687,3.325,3.3164,3.3687,3.325,3.2924,3.2823,3.2329,3.1385,3.0156,3.0253,3.0343,3.0343,3.0823,3.0986,3.0986,3.0986,3.0986,0.0,0.0,0.0,0.0,0.0,2.282,0.0,0.0,0.0,2.5098,2.566,2.607,2.6166,2.7138,2.7983,2.8081,2.8558,2.89,2.89,2.89,2.8663,2.8135,2.8154,2.7826,2.6956,2.6639,2.6407,2.6064,2.6362,2.6647,2.6784,2.6698,2.6674,2.6674,2.5667,2.5079,2.5022,2.4517,2.4217,2.4112,2.4112,2.4112,2.4112,2.4112,2.4112,2.4112,2.4112,2.4112,2.4112,2.4112,2.4112,2.4217,2.5249,2.5733,2.589,2.6465,2.6739,2.6831,2.6831,2.6831,2.6922,2.7379,2.7523,2.7523,2.7523,2.7523,2.7667,2.836,2.8895,2.9431,3.0124,3.0634,3.0986,3.0986,3.1418,3.1759,3.1759,3.228,3.2685,3.2685,3.3091,3.3587,3.4149,3.4332,3.4397,3.4397,3.4397,3.4397,3.4397,3.4217,3.4217,3.4397,3.4217,3.4217,3.4397,3.37,3.325,3.325,3.3079,3.2742,3.2106,3.2213,3.1538,2.996,3.0659,3.0659,2.9947,3.0659,3.0986,3.0986,3.0986,3.0986,0.0,0.0,0.0,0.0,2.3169,0.0,2.4517,0.0,2.7095,2.7162,0.0,2.7488,2.7993,0.0,0.0,2.974,3.0297,3.0659,3.0659,3.0659,3.0406,2.9539,2.9655,2.9766,2.9637,2.8553,2.8164,2.8782,2.7786,2.7494,2.8144,2.7262,2.6674,2.6674,2.6059,2.5484,2.4975,2.4896,2.4622,2.4112,2.4112,2.4112,2.4112,2.4112,2.4112,2.4112,2.4112,2.4112,2.4112,2.4112,2.4112,2.4178,2.4818,2.538,2.589,2.6465,2.7,2.7432,2.7432,2.7432,2.7445,2.751,2.7523,2.7523,2.7523,2.7523,2.7758,2.8869,2.9222,2.9536,3.0607,3.0934,3.0986,3.0986,3.1418,3.1759,3.1759,3.228,3.2685,3.2685,3.2751,3.2986,3.3587,3.4084,3.4397,3.4397,3.4397,3.4397,3.4397,3.3687,3.3518,3.4314,3.3687,3.3518,3.4314,3.4314,3.4217,3.4217,3.3433,3.2742,3.2106,3.1173,3.0749,3.0836,3.0986,3.0986,3.0823,3.0986,3.0986,3.0986,3.0986,3.0986,2.1807,0.0,0.0,0.0,0.0,0.0,2.5392,0.0,2.6973,2.739,0.0,0.0,0.0,0.0,0.0,0.0,2.9614,2.9993,2.9993,2.9993,3.0082,3.043,3.054,3.049,3.0163,2.899,2.8376,2.8752,2.7928,2.7537,2.7889,2.7432,2.717,2.717,2.6621,2.6203,2.5968,2.5363,2.4844,2.4609,2.4282,2.4112,2.4112,2.4112,2.4112,2.4112,2.4112,2.4112,2.4112,2.4112,2.4112,2.4151,2.4387,2.5027,2.589,2.6465,2.704,2.7523,2.7523,2.7523,2.7523,2.7523,2.7523,2.7523,2.7523,2.7523,2.7771,2.8948,2.9274,2.9536,3.0686,3.0986,3.0986,3.0986,3.1169,3.1352,3.1352,3.1535,3.1705,3.1705,3.1967,3.228,3.2529,3.3326,3.4031,3.4345,3.4397,3.4397,3.4397,3.405,3.3953,3.4397,3.405,3.3953,3.4397,3.3869,3.3602,3.3602,3.325,3.2857,3.2487,3.2012,3.1252,3.0279,3.0748,3.0748,3.0266,3.0748,3.0986,3.0986,3.0986,3.0986,2.1993,0.0,0.0,0.0,0.0,0.0,0.0,0.0,0.0,0.0,2.7523,0.0,0.0,0.0,2.8386,2.8386,0.0,2.9274,2.9274,2.9274,2.964,3.0634,3.0895,3.083,3.0411,2.9457,2.8869,2.8869,2.8177,2.7771,2.7771,2.7615,2.7523,2.7523,2.7131,2.6831,2.6674,2.5694,2.5118,2.5022,2.4387,2.4112,2.4112,2.4112,2.4112,2.4112,2.4112,2.4112,2.4112,2.4112,2.4112,2.4112,2.4112,2.4726,2.5654,2.6229,2.6896,2.7523,2.7523,2.7523,2.7523,2.7523,2.7523,2.7523,2.7523,2.7523,2.7771,2.8948,2.9274,2.9536,3.0686,3.0986,3.0986,3.0986,3.0986,3.0986,3.0986,3.0986,3.0986,3.0986,3.1313,3.1653,3.1733,3.2816,3.3731,3.4123,3.4306,3.4397,3.4397,3.4397,3.4397,3.4397,3.4397,3.4397,3.4397,3.3784,3.325,3.2993,3.298,3.2756,3.2326,3.2354,3.1575,3.0126,3.0672,3.0672,3.0024,3.0672,3.0986,3.0986,3.0986,3.0986,2.2648,2.3001,0.0,2.4131,0.0,0.0,0.0,0.0,2.7456,0.0,0.0,0.0,2.7523,0.0,0.0,0.0,0.0,0.0,0.0,2.9274,2.9497,3.0098,3.0647,3.0973,3.096,3.0424,3.0085,3.0085,2.9013,2.8347,2.8347,2.7837,2.7523,2.7523,2.751,2.7236,2.6687,2.6086,2.5511,2.5022,2.4387,2.4112,2.4112,2.4112,2.4112,2.4112,2.4112,2.4112,2.4112,2.4112,2.4112,2.4112,2.4112,2.4478,2.5066,2.5641,2.6556,2.7523,2.7523,2.7523,2.7523,2.7523,2.7523,2.7523,2.7523,2.7523,2.7771,2.8948,2.9274,2.9536,3.0686,3.0986,3.0986,3.0986,3.0986,3.0986,3.0986,3.0986,3.0986,3.0986,3.0999,3.1196,3.1744,3.2816,3.36,3.3613,3.4071,3.4397,3.4397,3.4397,3.4397,3.4397,3.4397,3.4397,3.4397,3.4397,3.3953,3.3066,3.298,3.2491,3.1399,3.1348,3.1245,3.0924,3.0986,3.0986,3.0986,3.0986,3.0986,3.0986,3.0986,3.0986,2.2258,2.275,2.335,2.4909,0.0,0.0,0.0,0.0,0.0,0.0,0.0,0.0,0.0,0.0,0.0,0.0,0.0,0.0,0.0,2.8451,2.8908,2.9497,3.0411,3.0986,3.0986,3.0124,2.9575,2.9575,2.8477,2.7811,2.7811,2.7628,2.7523,2.7523,2.7523,2.7432,2.7236,2.6295,2.5733,2.5524,2.457,2.4112,2.4112,2.4112,2.4112,2.4112,2.4112,2.4112,2.4112,2.4112,2.4112,2.4112,2.4112,2.4465,2.4988,2.5184,2.5981,2.7013,2.7406,2.7523,2.7523,2.7523,2.7523,2.7523,2.7523,2.7523,2.7771,2.8948,2.9274,2.9536,3.0686,3.0986,3.0986,3.0986,3.0986,3.0986,3.0986,3.0986,3.0986,3.0986,3.0986,3.1052,3.1248,3.1914,3.2698,3.347,3.4058,3.4397,3.4397,3.4397,3.4397,3.4397,3.4397,3.4397,3.4397,3.3869,3.3335,3.298,3.298,3.2756,3.2233,3.2275,3.1824,3.1013,3.0986,3.0986,3.0986,3.0986,3.0986,3.0986,3.0986,3.0986,2.2375,2.3138,2.3925,2.5718,2.6126,0.0,2.7255,0.0,2.7469,0.0,0.0,0.0,0.0,0.0,0.0,0.0,0.0,0.0,0.0,2.802,2.8516,2.8908,2.998,3.0686,3.0686,2.9823,2.9196,2.8974,2.8072,2.7523,2.7523,2.7523,2.7523,2.7523,2.7523,2.7523,2.7523,2.6595,2.602,2.5811,2.487,2.4321,2.4112,2.4112,2.4112,2.4112,2.4112,2.4112,2.4112,2.4112,2.4112,2.4112,2.4112,2.4465,2.5022,2.5022,2.5694,2.6765,2.7327,2.7523,2.7523,2.7523,2.7523,2.7523,2.7523,2.7523,2.7732,2.8686,2.9118,2.9497,3.0438,3.083,3.0986,3.0986,3.0986,3.0986,3.0986,3.0986,3.0986,3.0986,3.0986,3.0986,3.0986,3.1457,3.2163,3.313,3.3757,3.4175,3.4371,3.4397,3.4397,3.4397,3.4397,3.4397,3.4397,3.3869,3.3518,3.3518,3.3518,3.327,3.2738,3.2685,3.215,3.0999,3.0986,3.0986,3.0986,3.0986,3.0986,3.0986,3.0986,3.0986]},{"header":{"parameterUnit":"m.s-1","parameterCategory":1,"la1":30.6,"la2":29.2853,"lo1":-89.7004,"lo2":-87.6739,"dy":0.0162,"dx":0.0183,"nx":112,"ny":82,"refTime":"2023-10-10T18:00:00:Z","depth":0,"parameterNumber":3,"parameterNumberName":"V-component_of_WINDS"},"data":[0.0,0.0,0.0,0.0,0.0,0.0,0.0,0.0,0.0,0.0,0.0,0.0,0.0,0.0,0.0,0.0,0.0,0.0,0.0,0.0,0.0,0.0,0.0,0.0,0.0,0.0,0.0,0.0,0.0,0.0,0.0,0.0,0.0,0.0,0.0,0.0,0.0,0.0,0.0,0.0,0.0,0.0,0.0,0.0,0.0,0.0,0.0,0.0,0.0,0.0,0.0,0.0,0.0,0.0,0.0,0.0,0.0,0.0,0.0,0.0,0.0,0.0,0.0,0.0,0.0,0.0,0.0,0.0,0.0,0.0,0.0,0.0,0.0,0.0,0.0,0.0,0.0,0.0,0.0,0.0,0.0,0.0,0.0,0.0,0.0,0.0,0.0,0.0,0.0,0.0,3.0483,3.0107,3.1574,3.2641,3.2895,3.3348,3.3143,3.2106,0.0,0.0,0.0,0.0,0.0,0.0,0.0,0.0,0.0,0.0,0.0,0.0,0.0,0.0,0.0,0.0,0.0,0.0,0.0,0.0,0.0,0.0,0.0,0.0,0.0,0.0,0.0,0.0,0.0,0.0,0.0,0.0,0.0,0.0,0.0,0.0,0.0,0.0,0.0,0.0,0.0,0.0,0.0,0.0,0.0,0.0,0.0,0.0,0.0,0.0,0.0,0.0,0.0,0.0,0.0,0.0,0.0,0.0,0.0,0.0,0.0,0.0,0.0,0.0,0.0,0.0,0.0,0.0,0.0,0.0,0.0,0.0,0.0,0.0,0.0,0.0,0.0,0.0,0.0,0.0,0.0,0.0,0.0,0.0,0.0,0.0,0.0,0.0,0.0,0.0,0.0,0.0,0.0,0.0,0.0,0.0,0.0,0.0,0.0,0.0,0.0,0.0,0.0,0.0,3.0669,3.118,3.2463,3.3287,3.3495,3.3534,3.3297,3.264,0.0,0.0,0.0,0.0,0.0,0.0,0.0,0.0,0.0,0.0,0.0,0.0,0.0,0.0,0.0,0.0,0.0,0.0,0.0,0.0,0.0,0.0,0.0,0.0,0.0,0.0,0.0,0.0,0.0,0.0,0.0,0.0,0.0,0.0,0.0,0.0,0.0,0.0,0.0,0.0,0.0,0.0,0.0,0.0,0.0,0.0,0.0,0.0,0.0,0.0,0.0,0.0,0.0,0.0,0.0,0.0,0.0,0.0,0.0,0.0,0.0,0.0,0.0,0.0,0.0,0.0,0.0,0.0,0.0,0.0,0.0,0.0,0.0,0.0,0.0,0.0,0.0,0.0,0.0,0.0,0.0,0.0,0.0,0.0,0.0,0.0,0.0,0.0,0.0,0.0,0.0,0.0,0.0,0.0,0.0,0.0,0.0,0.0,0.0,0.0,0.0,0.0,0.0,2.984,3.0528,3.0846,3.2301,3.3187,3.3104,3.334,3.3017,3.1839,3.0599,0.0,0.0,0.0,0.0,0.0,0.0,0.0,0.0,0.0,0.0,0.0,0.0,0.0,0.0,0.0,0.0,0.0,0.0,0.0,0.0,0.0,0.0,0.0,0.0,0.0,0.0,0.0,0.0,0.0,0.0,0.0,0.0,0.0,0.0,0.0,0.0,0.0,0.0,0.0,0.0,0.0,0.0,0.0,0.0,0.0,0.0,0.0,0.0,0.0,0.0,0.0,0.0,0.0,0.0,0.0,0.0,0.0,0.0,0.0,0.0,0.0,0.0,0.0,0.0,0.0,0.0,0.0,0.0,0.0,0.0,0.0,0.0,0.0,0.0,0.0,0.0,0.0,0.0,0.0,0.0,0.0,0.0,0.0,0.0,0.0,0.0,0.0,0.0,0.0,0.0,0.0,0.0,0.0,0.0,0.0,0.0,0.0,0.0,0.0,0.0,0.0,0.0,2.9982,3.0593,3.0432,3.1917,3.2886,3.2804,3.2899,3.2433,3.1169,2.9897,0.0,0.0,0.0,0.0,0.0,0.0,0.0,0.0,0.0,0.0,0.0,0.0,0.0,0.0,0.0,0.0,0.0,0.0,0.0,0.0,0.0,0.0,0.0,0.0,0.0,0.0,0.0,0.0,0.0,0.0,0.0,0.0,0.0,0.0,0.0,0.0,0.0,0.0,0.0,0.0,0.0,0.0,0.0,0.0,0.0,0.0,0.0,0.0,0.0,0.0,0.0,0.0,0.0,0.0,0.0,0.0,0.0,0.0,0.0,0.0,0.0,0.0,0.0,0.0,0.0,0.0,0.0,0.0,0.0,0.0,0.0,0.0,0.0,0.0,0.0,0.0,0.0,0.0,0.0,0.0,0.0,0.0,0.0,0.0,0.0,0.0,0.0,0.0,0.0,0.0,0.0,0.0,0.0,0.0,0.0,0.0,0.0,0.0,0.0,0.0,0.0,0.0,3.0359,3.1124,3.0884,3.1686,3.2525,3.3112,3.2233,3.1561,3.1402,2.9551,0.0,0.0,0.0,0.0,0.0,0.0,0.0,0.0,0.0,0.0,0.0,0.0,0.0,0.0,0.0,0.0,0.0,0.0,0.0,0.0,0.0,0.0,0.0,0.0,0.0,0.0,0.0,0.0,0.0,0.0,0.0,0.0,0.0,0.0,0.0,0.0,0.0,0.0,0.0,0.0,0.0,0.0,0.0,0.0,0.0,0.0,0.0,0.0,0.0,0.0,0.0,0.0,0.0,0.0,0.0,0.0,0.0,0.0,0.0,0.0,0.0,0.0,0.0,0.0,0.0,0.0,0.0,0.0,0.0,0.0,0.0,0.0,0.0,0.0,0.0,0.0,0.0,0.0,0.0,0.0,0.0,0.0,0.0,0.0,0.0,0.0,0.0,0.0,0.0,0.0,0.0,0.0,0.0,0.0,0.0,0.0,0.0,0.0,0.0,0.0,0.0,0.0,2.9613,3.0336,2.9932,3.0803,3.1413,3.1373,3.1385,3.0877,2.9713,0.0,0.0,0.0,0.0,0.0,0.0,0.0,0.0,0.0,0.0,0.0,0.0,0.0,0.0,0.0,0.0,0.0,0.0,0.0,0.0,0.0,0.0,0.0,0.0,0.0,0.0,0.0,0.0,0.0,0.0,0.0,0.0,0.0,0.0,0.0,0.0,0.0,0.0,0.0,0.0,0.0,0.0,0.0,0.0,0.0,0.0,0.0,0.0,0.0,0.0,0.0,0.0,0.0,0.0,0.0,0.0,0.0,0.0,0.0,0.0,0.0,0.0,0.0,0.0,0.0,0.0,0.0,0.0,0.0,0.0,0.0,0.0,0.0,0.0,0.0,0.0,0.0,0.0,0.0,0.0,0.0,0.0,0.0,0.0,0.0,0.0,0.0,0.0,0.0,0.0,0.0,0.0,0.0,0.0,0.0,0.0,0.0,0.0,0.0,0.0,0.0,0.0,2.801,2.9246,2.9973,2.9531,3.019,3.0652,3.0539,3.0863,3.0402,2.8906,0.0,0.0,0.0,0.0,0.0,0.0,0.0,0.0,0.0,0.0,0.0,0.0,0.0,0.0,0.0,0.0,0.0,0.0,0.0,0.0,0.0,0.0,0.0,0.0,0.0,0.0,0.0,0.0,0.0,0.0,0.0,0.0,0.0,0.0,0.0,0.0,0.0,0.0,0.0,0.0,0.0,0.0,0.0,0.0,0.0,0.0,0.0,0.0,0.0,0.0,0.0,0.0,0.0,0.0,0.0,0.0,0.0,0.0,0.0,0.0,0.0,0.0,0.0,0.0,0.0,0.0,0.0,0.0,0.0,0.0,0.0,0.0,0.0,0.0,0.0,0.0,0.0,0.0,0.0,0.0,0.0,0.0,0.0,0.0,0.0,0.0,0.0,0.0,0.0,0.0,0.0,0.0,0.0,0.0,0.0,0.0,0.0,0.0,0.0,0.0,0.0,0.0,2.805,2.9412,3.029,2.9962,3.0076,3.044,3.1026,3.0658,3.0062,0.0,0.0,0.0,0.0,0.0,0.0,0.0,0.0,0.0,0.0,0.0,0.0,0.0,0.0,0.0,0.0,0.0,0.0,0.0,0.0,0.0,0.0,0.0,0.0,0.0,0.0,0.0,0.0,0.0,0.0,0.0,0.0,0.0,0.0,0.0,0.0,0.0,0.0,0.0,0.0,0.0,0.0,0.0,0.0,0.0,0.0,0.0,0.0,0.0,0.0,0.0,0.0,0.0,0.0,0.0,0.0,0.0,0.0,0.0,0.0,0.0,0.0,0.0,0.0,0.0,0.0,0.0,0.0,0.0,0.0,0.0,0.0,0.0,0.0,0.0,0.0,0.0,0.0,0.0,0.0,0.0,0.0,0.0,0.0,0.0,0.0,0.0,0.0,0.0,0.0,0.0,0.0,0.0,0.0,0.0,0.0,0.0,0.0,0.0,0.0,0.0,0.0,0.0,2.8201,2.9387,3.0231,3.0119,3.0076,3.0141,3.0457,3.0405,2.9848,2.8613,0.0,0.0,0.0,0.0,0.0,0.0,0.0,0.0,0.0,0.0,0.0,0.0,0.0,0.0,0.0,0.0,0.0,0.0,0.0,0.0,0.0,0.0,0.0,0.0,0.0,0.0,0.0,0.0,0.0,0.0,0.0,0.0,0.0,0.0,0.0,0.0,0.0,0.0,0.0,0.0,0.0,0.0,0.0,0.0,0.0,0.0,0.0,0.0,0.0,0.0,0.0,0.0,0.0,0.0,0.0,0.0,0.0,0.0,0.0,0.0,0.0,0.0,0.0,0.0,0.0,0.0,0.0,0.0,0.0,0.0,0.0,0.0,0.0,0.0,0.0,0.0,0.0,0.0,0.0,0.0,0.0,0.0,0.0,0.0,0.0,0.0,0.0,0.0,0.0,0.0,0.0,0.0,0.0,0.0,0.0,0.0,0.0,0.0,0.0,0.0,0.0,0.0,2.8439,2.9494,3.0274,3.0189,3.0205,3.0189,3.0274,3.0359,2.9832,2.8395,0.0,0.0,0.0,0.0,0.0,0.0,0.0,0.0,0.0,0.0,0.0,0.0,0.0,0.0,0.0,0.0,0.0,0.0,0.0,0.0,0.0,0.0,0.0,0.0,0.0,0.0,0.0,0.0,0.0,0.0,0.0,0.0,0.0,0.0,0.0,0.0,0.0,0.0,0.0,0.0,0.0,0.0,0.0,0.0,0.0,0.0,0.0,0.0,0.0,0.0,0.0,0.0,0.0,0.0,0.0,0.0,0.0,0.0,0.0,0.0,0.0,0.0,0.0,0.0,0.0,0.0,0.0,0.0,0.0,0.0,0.0,0.0,0.0,0.0,0.0,0.0,0.0,0.0,0.0,0.0,0.0,0.0,0.0,0.0,0.0,0.0,0.0,0.0,0.0,0.0,0.0,0.0,0.0,0.0,0.0,0.0,0.0,0.0,0.0,0.0,0.0,0.0,2.8807,2.9729,3.0359,3.0231,3.0333,3.0401,3.0417,3.0485,2.9938,2.855,0.0,0.0,0.0,0.0,0.0,0.0,0.0,0.0,0.0,0.0,0.0,0.0,0.0,0.0,0.0,0.0,0.0,0.0,0.0,0.0,0.0,0.0,0.0,0.0,0.0,0.0,0.0,0.0,0.0,0.0,0.0,0.0,0.0,0.0,0.0,0.0,0.0,0.0,0.0,0.0,0.0,0.0,0.0,0.0,0.0,0.0,0.0,0.0,0.0,0.0,0.0,0.0,0.0,0.0,0.0,0.0,0.0,0.0,0.0,0.0,4.2344,4.1087,0.0,0.0,0.0,0.0,0.0,0.0,0.0,0.0,0.0,0.0,0.0,0.0,0.0,0.0,0.0,0.0,0.0,0.0,0.0,0.0,0.0,0.0,0.0,0.0,0.0,0.0,0.0,0.0,0.0,0.0,0.0,0.0,0.0,0.0,0.0,0.0,0.0,0.0,0.0,0.0,2.9606,3.0102,3.0375,3.0375,3.0375,3.0401,3.0485,3.0781,3.0359,2.8895,2.9085,0.0,0.0,0.0,0.0,0.0,0.0,0.0,0.0,0.0,0.0,0.0,0.0,0.0,0.0,0.0,0.0,0.0,0.0,0.0,0.0,0.0,0.0,0.0,0.0,0.0,0.0,0.0,0.0,0.0,0.0,0.0,0.0,0.0,0.0,0.0,0.0,0.0,0.0,0.0,0.0,0.0,0.0,0.0,0.0,0.0,0.0,0.0,0.0,0.0,0.0,0.0,0.0,0.0,0.0,0.0,0.0,0.0,0.0,0.0,4.5466,4.3882,0.0,0.0,0.0,0.0,0.0,0.0,0.0,0.0,0.0,0.0,0.0,0.0,0.0,0.0,0.0,0.0,0.0,0.0,0.0,0.0,0.0,0.0,0.0,0.0,0.0,0.0,0.0,0.0,0.0,0.0,0.0,0.0,0.0,0.0,0.0,0.0,0.0,0.0,0.0,0.0,3.0162,3.0329,3.0417,3.0443,3.0401,3.0417,3.0468,3.0861,3.061,2.9479,2.9812,0.0,0.0,0.0,0.0,0.0,0.0,0.0,0.0,0.0,0.0,0.0,0.0,0.0,0.0,0.0,0.0,0.0,0.0,0.0,0.0,0.0,0.0,0.0,0.0,0.0,0.0,0.0,0.0,0.0,0.0,0.0,0.0,0.0,0.0,0.0,0.0,0.0,0.0,0.0,0.0,0.0,0.0,0.0,0.0,0.0,0.0,0.0,0.0,0.0,0.0,0.0,0.0,0.0,4.8196,4.9014,5.0386,5.0563,5.1054,5.1611,4.8799,4.7224,4.6641,4.5896,0.0,0.0,0.0,0.0,0.0,0.0,0.0,0.0,0.0,0.0,0.0,0.0,0.0,0.0,0.0,0.0,0.0,0.0,0.0,0.0,0.0,0.0,3.9363,4.0879,4.0597,3.9608,3.8111,0.0,0.0,0.0,0.0,0.0,0.0,0.0,0.0,0.0,0.0,0.0,3.0695,3.0617,3.0526,3.0526,3.0443,3.0443,3.0485,3.0925,3.0862,3.0136,3.0523,3.0295,0.0,0.0,0.0,0.0,0.0,0.0,0.0,0.0,0.0,0.0,0.0,0.0,0.0,0.0,0.0,0.0,0.0,0.0,0.0,0.0,0.0,0.0,0.0,0.0,0.0,0.0,0.0,0.0,0.0,0.0,0.0,0.0,3.4483,3.5353,0.0,0.0,0.0,0.0,0.0,0.0,0.0,0.0,0.0,0.0,0.0,0.0,0.0,4.7301,4.8191,4.9122,4.9996,5.0789,5.0856,5.1406,5.2322,5.2363,5.2832,5.3613,5.3164,0.0,4.9404,4.8602,0.0,0.0,0.0,0.0,0.0,0.0,0.0,0.0,0.0,0.0,0.0,0.0,0.0,0.0,0.0,0.0,0.0,0.0,0.0,0.0,0.0,0.0,4.1908,4.2758,4.2299,4.1766,4.2109,3.9738,3.7415,3.6924,3.4971,3.3284,0.0,0.0,0.0,0.0,0.0,0.0,3.1509,3.1249,3.0902,3.0551,3.0485,3.0485,3.0526,3.1201,3.1276,3.0486,3.1157,3.1186,3.0327,3.0291,0.0,0.0,0.0,0.0,0.0,0.0,0.0,0.0,0.0,0.0,0.0,0.0,0.0,0.0,0.0,0.0,0.0,0.0,0.0,0.0,0.0,0.0,0.0,0.0,0.0,0.0,0.0,0.0,0.0,3.625,3.7666,3.8461,3.819,3.771,0.0,0.0,0.0,0.0,0.0,0.0,0.0,0.0,0.0,4.6411,4.8957,5.0512,5.0939,5.1849,5.2476,5.2827,5.2851,5.332,5.416,5.416,5.4648,5.5469,5.5468,5.4512,5.2848,5.1014,4.9492,4.8178,0.0,0.0,0.0,0.0,4.5559,4.6346,4.6176,4.6143,4.6008,4.4989,0.0,0.0,0.0,0.0,0.0,0.0,0.0,4.1132,4.1947,4.2591,4.3245,4.4027,4.3856,4.345,4.3221,4.1584,3.9778,3.8475,3.6824,3.5241,3.4129,3.3131,0.0,0.0,0.0,3.1846,3.2004,3.149,3.0875,3.0275,3.0002,2.9812,2.961,3.0506,3.1027,3.0855,3.1809,3.201,3.1207,3.1171,3.0814,0.0,0.0,0.0,0.0,0.0,0.0,0.0,0.0,0.0,0.0,0.0,0.0,0.0,0.0,0.0,0.0,0.0,0.0,0.0,0.0,0.0,0.0,0.0,0.0,0.0,0.0,0.0,0.0,3.8808,4.0318,4.1272,4.1228,4.08,0.0,0.0,0.0,0.0,0.0,0.0,4.4443,4.7601,4.951,4.9726,5.2036,5.3314,5.3359,5.4238,5.4668,5.4668,5.4433,5.4668,5.5293,5.5077,5.5312,5.5937,5.5937,5.5566,5.4824,5.3105,5.1618,5.0273,4.8981,4.7776,4.6791,4.6814,4.7375,4.8124,4.8,4.7993,4.7843,4.6822,4.5202,4.3479,4.2609,0.0,0.0,0.0,0.0,4.2488,4.3569,4.3757,4.3853,4.4459,4.4323,4.3849,4.3115,4.2192,4.1027,3.9427,3.8071,3.6661,3.5051,3.4419,0.0,3.3009,3.2639,3.235,3.2037,3.1493,3.0759,2.9803,2.9432,2.9154,2.8918,2.9949,3.0734,3.1073,3.2211,3.2616,3.2028,3.201,3.1617,3.0814,0.0,0.0,0.0,0.0,0.0,0.0,0.0,0.0,0.0,0.0,0.0,0.0,0.0,0.0,0.0,0.0,0.0,0.0,0.0,0.0,0.0,0.0,0.0,0.0,0.0,0.0,0.0,0.0,0.0,4.3089,4.2649,0.0,0.0,0.0,0.0,4.2641,4.596,4.8059,4.8125,5.0845,5.2426,5.25,5.4238,5.5176,5.5176,5.6035,5.6465,5.6465,5.5625,5.5254,5.5273,5.4433,5.4082,5.4121,5.4121,5.4101,5.4121,5.4824,5.3571,5.1226,5.1148,5.011,4.8649,4.8533,4.9078,4.9868,4.9796,4.9731,4.9524,4.8638,4.6635,4.4369,4.3498,4.3208,0.0,0.0,4.3387,4.3924,4.3779,4.3701,4.3701,4.3758,4.3013,4.2285,4.2081,4.133,4.0514,4.0025,3.8475,3.6843,3.5738,0.0,3.383,3.3009,3.2884,3.2471,3.1315,3.1144,3.0543,2.9113,2.8935,2.8918,2.8921,2.9949,3.0734,3.1073,3.2211,3.2898,3.283,3.2844,3.2456,3.1653,3.0981,0.0,0.0,0.0,0.0,0.0,0.0,0.0,0.0,0.0,0.0,0.0,0.0,0.0,0.0,0.0,0.0,0.0,0.0,0.0,0.0,0.0,0.0,0.0,0.0,0.0,0.0,0.0,0.0,4.5663,4.5682,0.0,4.5354,4.5655,4.6079,4.6566,4.8889,5.0543,5.114,5.3177,5.4354,5.4375,5.5527,5.5879,5.5312,5.5605,5.5488,5.4922,5.4609,5.4453,5.4453,5.4141,5.4004,5.4004,5.4004,5.3982,5.3952,5.4264,5.3533,5.2145,5.1579,5.0976,5.0406,5.0361,5.0512,5.0686,5.0062,4.9828,4.9559,4.8089,4.659,4.5316,4.5007,4.4834,4.4742,4.4555,4.4652,4.4758,4.4531,4.4099,4.3701,4.3701,4.2869,4.1901,4.1349,4.0397,3.9398,3.8623,3.7796,3.6906,3.5994,3.4875,3.383,3.3009,3.2916,3.2549,3.1622,3.1255,3.0534,2.9051,2.8493,2.8389,2.8847,2.9522,3.0349,3.1416,3.2375,3.2916,3.2916,3.2916,3.2791,3.2474,3.178,3.1332,0.0,0.0,0.0,0.0,0.0,0.0,0.0,0.0,0.0,0.0,0.0,0.0,0.0,0.0,0.0,0.0,0.0,0.0,0.0,0.0,0.0,0.0,0.0,0.0,0.0,4.4285,4.5897,4.7455,4.8059,4.8302,4.821,4.8806,4.9439,5.0005,5.1717,5.2969,5.3555,5.4941,5.5605,5.5312,5.5859,5.5742,5.4863,5.4863,5.457,5.4004,5.3691,5.3555,5.3555,5.3221,5.3083,5.3083,5.3076,5.2866,5.2547,5.2547,5.2058,5.1355,5.1648,5.1379,5.0825,5.0825,5.0608,5.0221,4.9575,4.9174,4.8724,4.75,4.6515,4.58,4.58,4.5737,4.5629,4.5438,4.5341,4.5159,4.4626,4.3891,4.3189,4.2924,4.2068,4.1054,4.0152,3.9357,3.8505,3.7405,3.6978,3.6523,3.5642,3.4713,3.383,3.3009,3.2684,3.2188,3.1403,3.0863,3.011,2.9013,2.8464,2.8404,2.9039,2.9704,3.0482,3.1448,3.2375,3.2916,3.2916,3.2916,3.2916,3.2916,3.2222,3.1863,3.1828,0.0,0.0,0.0,0.0,0.0,0.0,0.0,0.0,0.0,0.0,0.0,0.0,0.0,0.0,0.0,0.0,0.0,0.0,0.0,0.0,0.0,0.0,0.0,4.4646,4.5604,4.6794,4.8361,4.9543,5.0205,5.0084,5.1652,5.2676,5.2734,5.4316,5.5273,5.5293,5.6094,5.6172,5.5332,5.5273,5.4844,5.3965,5.3965,5.3945,5.3906,5.3066,5.2637,5.2578,5.1662,5.1234,5.1215,5.1154,5.0638,4.9859,4.9859,4.9359,4.8853,5.1386,5.1347,4.9859,4.9859,4.9301,4.8546,4.8487,4.7892,4.7151,4.7074,4.6477,4.58,4.58,4.578,4.5723,4.5475,4.5381,4.5092,4.3984,4.3038,4.2185,4.1389,4.0495,3.9558,3.8522,3.8268,3.7841,3.6583,3.6117,3.5624,3.4653,3.4275,3.3794,3.3009,3.2206,0.0,3.06,2.9869,2.9272,2.8951,2.889,2.9099,2.954,3.0573,3.1192,3.1159,3.2261,3.2916,3.2916,3.2916,3.2916,3.2916,3.2355,3.1826,3.1396,0.0,0.0,0.0,0.0,0.0,0.0,0.0,0.0,0.0,0.0,0.0,0.0,0.0,0.0,0.0,0.0,0.0,0.0,0.0,0.0,0.0,4.3413,4.4812,4.5599,4.7601,4.9153,4.9602,5.05,5.1307,5.1909,5.1835,5.2285,5.3555,5.4082,5.4629,5.5273,5.5527,5.5547,5.5312,5.4687,5.3945,5.3066,5.3066,5.2734,5.2109,5.1828,5.1352,5.0727,5.0411,4.9933,4.9334,4.9315,4.9153,4.8886,4.8886,4.8727,4.8541,4.935,4.9348,4.8886,4.8886,4.8289,4.7507,4.7488,4.6913,4.6177,4.6162,4.5993,4.58,4.58,4.5661,4.5493,4.5419,4.48,4.4106,4.3782,4.2621,4.1484,4.1256,3.9928,3.8658,3.8367,3.7063,3.5816,3.5329,3.4539,3.4087,3.4424,3.3791,3.3134,3.292,3.2206,3.1403,3.06,2.9869,2.9358,2.9272,2.9029,2.9497,3.0963,3.1167,3.1553,3.2364,3.2727,3.2916,3.2916,3.2916,3.2948,3.3024,3.3069,3.3112,0.0,0.0,0.0,0.0,0.0,0.0,0.0,0.0,0.0,0.0,0.0,0.0,0.0,0.0,0.0,0.0,0.0,0.0,0.0,0.0,0.0,0.0,4.5163,4.645,4.7611,4.9114,5.0239,5.0599,5.1403,5.2147,5.2656,5.2578,5.291,5.3926,5.4004,5.4219,5.4726,5.4765,5.459,5.4219,5.3711,5.3047,5.2168,5.2127,5.1675,5.0816,5.0746,5.0254,4.9421,4.9344,4.903,4.8563,4.8526,4.8289,4.7908,4.7908,4.7682,4.7381,0.0,0.0,0.0,0.0,4.7023,4.6554,4.6554,4.6225,4.58,4.58,4.5752,4.5708,4.5708,4.531,4.4844,4.4786,4.405,4.3168,4.2758,4.1893,4.1037,4.0658,3.9406,3.8188,3.7802,3.646,3.5132,3.442,3.3782,0.0,3.3777,3.3315,3.2809,3.2438,3.1706,3.0921,3.0136,2.9672,2.953,2.9833,2.9988,3.057,3.1841,3.1915,0.0,0.0,0.0,3.2916,3.2916,3.2916,0.0,0.0,0.0,3.3415,3.3615,3.3698,0.0,0.0,3.4945,3.564,0.0,0.0,0.0,0.0,0.0,0.0,0.0,0.0,0.0,0.0,0.0,0.0,0.0,0.0,0.0,0.0,4.6704,4.845,5.0019,5.0256,5.0532,5.1313,5.2084,5.2596,5.2694,5.3301,5.375,5.3848,5.3847,5.3847,5.3847,5.3827,0.0,0.0,0.0,5.2166,5.1385,5.1229,5.0746,4.9985,4.9809,4.9286,4.8436,4.837,4.8297,4.82,4.812,4.7676,4.6941,4.6941,4.6496,4.5955,4.7502,4.7637,4.6864,4.609,4.58,4.58,4.58,0.0,0.0,4.5766,4.5692,4.5596,4.558,4.4897,4.4059,4.3918,4.3247,4.2307,4.1411,4.1009,4.0656,3.9863,3.8903,3.792,3.7087,3.6136,3.5089,3.3845,3.3577,3.3386,3.2979,3.2916,3.2616,3.1813,3.1028,3.0243,2.9494,2.9405,2.969,3.0422,3.1225,0.0,3.2316,3.2616,3.2648,3.2386,3.2705,3.2916,3.2916,3.2916,3.2979,3.3086,3.3117,3.3226,3.3393,3.3393,3.381,3.4624,3.592,3.6691,0.0,0.0,0.0,0.0,0.0,0.0,0.0,0.0,0.0,0.0,0.0,0.0,0.0,0.0,0.0,4.658,4.844,4.9989,5.1008,5.1154,5.1203,5.1384,5.1558,5.193,5.2636,5.2226,5.2187,5.2891,5.2902,5.2869,5.2869,5.2815,5.2714,5.2539,5.185,5.1401,5.1245,5.0537,5.0082,4.9907,4.9138,0.0,4.7476,4.741,4.6997,4.6319,4.6297,4.6206,4.6051,4.6051,4.5955,4.5819,4.6167,4.6187,4.6032,4.5858,4.58,4.58,4.58,4.58,4.5766,4.5677,4.5629,4.558,4.5475,4.4729,0.0,4.3916,4.2743,4.143,4.1123,4.0509,3.9878,3.9613,3.8327,3.7106,3.6932,3.5395,3.3927,3.3651,3.3298,3.3011,3.2916,3.2916,3.2616,3.1813,3.1028,3.0243,2.9494,2.9405,2.969,3.0422,3.1225,3.1979,3.2699,3.2264,3.2175,3.2734,3.2852,3.2916,3.2916,3.2948,3.3011,3.3086,3.3214,3.3322,3.3393,3.3393,3.381,3.4624,3.5527,3.6326,0.0,0.0,0.0,0.0,0.0,0.0,0.0,0.0,0.0,0.0,0.0,4.2672,4.4437,0.0,4.6709,4.8469,4.9508,5.0246,5.0683,5.0717,5.0878,5.1343,5.1367,5.152,5.1965,5.1581,5.1472,5.1921,5.1918,5.1901,5.1901,5.1869,5.1846,5.1846,5.0989,5.0541,5.0541,4.9642,4.8982,4.8535,4.8033,4.7333,4.6499,4.646,4.6206,4.58,4.58,4.58,4.58,4.58,4.58,4.58,4.58,4.58,4.58,4.58,4.58,4.58,4.5723,4.5692,4.5677,4.5545,4.5456,4.5323,4.4805,4.3954,4.3061,4.2661,4.1525,4.0447,4.0377,3.9919,3.9483,3.9427,3.8065,3.6814,3.6814,3.5188,3.3726,3.3633,3.3298,3.2898,3.238,3.2295,3.2028,3.1225,3.044,2.9672,2.8905,2.9476,3.0101,3.0475,3.1581,3.2295,3.2295,3.1564,3.126,3.1671,3.2063,3.2295,3.2295,3.2733,3.3042,3.3086,3.3214,3.3322,3.3393,3.3393,3.381,3.4624,3.5023,3.5856,0.0,0.0,0.0,0.0,0.0,0.0,0.0,4.1986,4.2942,4.3791,4.4779,4.594,4.7411,4.7807,4.8404,4.9868,5.023,5.0278,5.0093,5.0019,5.0192,5.0781,5.0808,5.084,5.1011,5.083,5.0774,5.093,5.0778,5.0672,5.0672,5.0655,5.0665,5.0665,4.9964,4.9623,4.9623,4.8679,4.7878,4.7179,4.6952,4.6477,4.58,4.58,4.58,4.58,4.58,4.5786,4.5752,4.5752,4.5757,4.5723,4.5723,4.5723,4.5723,4.5737,4.5737,4.5708,4.5596,4.5563,4.5545,4.54,4.5279,4.5058,4.4309,4.3285,4.2233,4.1571,4.0575,3.967,3.9647,3.9458,3.9272,3.9219,3.7883,3.6634,3.6581,3.5081,3.3707,3.3559,3.3327,3.2816,3.1862,3.1564,3.1207,3.0422,2.9779,2.9119,2.8289,2.944,3.0297,3.0297,3.1564,3.2099,3.1314,3.0796,3.044,3.0315,3.1028,3.1474,3.1505,3.2161,3.2665,3.2901,3.3028,3.3178,3.3393,3.3382,3.3707,3.4371,3.4503,3.5385,3.7708,3.8853,4.0185,4.0607,4.1801,4.2947,0.0,4.4526,4.5696,4.5928,4.7244,4.84,4.8615,4.9278,4.9868,5.0077,5.07,5.0898,5.0115,4.995,4.9658,4.8981,4.8917,4.9217,4.9978,4.9347,4.9204,4.9983,4.9265,4.8807,4.8807,4.8748,4.872,4.872,4.8623,4.8565,4.8565,4.7699,4.7201,4.7105,4.6317,4.5877,4.58,4.58,4.58,4.58,4.58,4.5723,4.5629,4.5629,4.5545,4.5438,4.5438,4.5438,4.5456,4.558,4.5545,4.5438,4.5438,4.5419,4.54,4.5258,4.5213,4.5151,4.4877,4.3596,4.2208,4.2114,4.0847,3.9483,3.9376,3.9324,3.9219,3.8921,3.7626,3.6362,3.6142,3.4582,3.328,3.325,3.3086,3.2648,3.1831,3.1118,3.0386,2.9637,2.9458,2.9119,2.8289,2.8976,2.953,2.953,3.0279,3.0475,2.9726,3.019,3.0225,2.9565,3.0225,3.0701,3.0814,3.0903,3.135,3.2198,3.2245,3.2618,3.3393,3.3352,3.3406,3.3556,3.4189,3.5033,3.7912,3.9696,4.1595,4.2249,4.3308,4.4347,4.4961,4.6398,4.7645,4.7736,4.872,4.9563,4.9558,4.982,5.0038,5.0038,5.0727,5.077,4.9371,4.914,4.8591,4.7259,4.7009,4.7533,4.8944,4.8718,4.8635,4.9004,4.8664,4.8432,4.8432,4.8435,4.8392,4.8392,4.7908,4.7637,4.7637,4.6786,4.6341,4.6341,4.5974,4.58,4.58,4.58,4.5771,4.5677,4.5596,4.5528,4.5475,4.5475,4.5438,4.54,4.54,4.5341,4.53,4.5419,4.5438,4.54,4.532,4.5279,4.5258,4.5084,4.5033,4.482,4.3691,4.2799,4.197,4.0941,4.0027,3.9331,3.9165,3.9073,3.882,3.8046,3.7014,3.6014,3.5422,3.4195,3.319,3.319,3.3055,3.2616,3.1831,3.1028,3.0261,2.9512,2.9012,2.8602,2.8235,2.8905,2.9565,2.9993,2.994,2.9744,2.944,2.9262,2.9048,2.8727,2.944,2.9869,2.9933,3.042,3.0872,3.1283,3.1312,3.1748,3.2588,3.2559,3.2793,3.3226,3.3635,3.3978,3.8158,4.0338,4.2658,4.3371,4.4384,4.5384,4.6014,4.732,4.841,4.8431,4.9121,4.9734,4.9726,4.9666,4.9715,4.9942,5.0452,5.0283,4.8779,4.8506,4.7839,4.6147,4.5867,4.6416,4.7971,4.7843,4.7773,4.8024,4.7811,4.7676,4.7676,4.7676,4.7676,4.7676,4.7076,4.6728,4.6728,4.6109,4.58,4.58,4.5752,4.5723,4.5688,4.5587,4.5558,4.5545,4.54,4.5342,4.5341,4.5341,4.5321,4.5262,4.5262,4.5197,4.5109,4.497,4.507,4.526,4.5151,4.5125,4.5103,4.4943,4.4719,4.4272,4.2994,4.2197,4.1475,4.0127,3.9466,3.911,3.8884,3.8755,3.842,3.733,3.6466,3.5636,3.4776,3.3828,3.3099,3.3099,3.2993,3.2616,3.1831,3.1225,3.0582,2.9833,2.9226,2.8663,2.8235,2.8727,2.928,2.9815,2.9405,2.9084,2.9084,2.852,2.8182,2.8182,2.8762,2.9084,2.9094,2.9687,3.0155,3.0399,3.0456,3.088,3.1672,3.184,3.2254,3.2811,3.3093,3.3183,3.8488,4.0809,4.35,4.3646,4.4977,4.6261,4.63,4.6979,4.7614,4.7554,4.8239,4.8828,4.8755,4.8747,4.899,4.9783,4.9865,4.9527,4.8641,4.8445,4.7768,4.6007,4.5814,4.6148,4.7071,4.638,4.6225,4.7076,4.6361,4.5877,4.5877,4.5877,4.5877,4.5877,4.5838,4.5838,4.5838,4.58,4.58,4.58,4.5661,4.5543,4.5399,4.5084,4.5104,4.54,4.5263,4.5218,4.5213,4.5213,4.5084,4.4919,4.4919,4.4919,4.4819,4.4047,4.4256,4.4919,4.4895,4.4895,4.4895,4.4895,4.4291,4.3574,4.3615,4.2266,4.0614,4.042,3.961,3.8743,3.8478,3.8415,3.815,3.7073,3.6212,3.5353,3.4324,3.3487,3.2916,3.2916,3.2916,3.2616,3.1831,3.1671,3.1385,3.06,3.0457,2.9904,2.8378,2.8217,2.8235,2.8253,2.8235,2.8235,2.8235,2.82,2.8182,2.8182,2.8217,2.8272,2.8336,2.8354,2.8784,2.962,2.9638,3.0034,3.0844,3.1494,3.1888,3.2049,3.2683,3.3042,3.9839,4.1782,4.372,4.4335,4.5371,4.623,4.623,4.6914,4.7539,4.7499,4.7732,4.7925,4.79,4.7825,4.7852,4.8136,4.8577,4.8567,4.7682,4.8034,4.7966,4.6806,4.7173,4.7637,4.7927,4.7173,4.6786,4.7076,4.6825,4.6399,4.5819,4.58,4.58,4.58,4.5708,4.5661,4.5661,4.558,4.5528,4.5528,4.5493,4.5438,4.5381,4.518,4.5175,4.5258,4.5087,4.4995,4.4991,4.4991,4.4943,4.4895,4.4895,4.4573,4.4061,4.3699,4.3372,4.3107,4.3223,4.3199,4.3107,4.3107,4.2819,4.2352,4.1611,4.1006,4.041,3.9592,3.9164,3.8902,3.851,3.8013,3.7285,3.6032,3.516,3.4357,3.3487,3.308,3.2916,3.2916,3.2916,3.2827,3.2527,3.2045,3.1421,3.0618,3.0083,2.9583,2.9066,2.852,2.8182,2.8182,2.8182,2.8182,2.8182,2.8182,2.8182,2.8182,2.8182,2.8209,2.8237,2.8237,2.8389,2.8684,2.8684,2.9078,2.9866,3.0588,3.1249,3.1816,3.2621,3.2979,4.0722,4.2518,4.4197,4.4759,4.5558,4.6204,4.6204,4.6633,4.6944,4.6602,4.6544,4.6456,4.6099,4.6216,4.6465,4.6729,4.7674,4.8198,4.7637,4.8314,4.8546,4.7676,4.8063,4.8493,4.8736,4.8253,4.7824,4.7579,4.727,4.683,4.6225,4.5896,4.5708,4.5661,4.558,4.5528,4.5528,4.54,4.5302,4.5222,4.518,4.5159,4.5135,4.4881,4.4827,4.4943,4.477,4.4693,4.4764,4.4764,4.4764,4.4764,4.4764,4.4272,4.3517,4.3121,4.2435,4.1757,4.2133,4.2203,4.2128,4.2128,4.1844,4.1376,4.0653,4.0244,3.9872,3.8992,3.8785,3.8737,3.8234,3.7522,3.6609,3.545,3.465,3.3883,3.3062,3.2916,3.2916,3.2916,3.2916,3.2916,3.2916,3.2456,3.1849,3.1046,3.0279,2.9708,2.944,2.8709,2.8182,2.8182,2.8182,2.8182,2.8182,2.8182,2.8182,2.8182,2.8182,2.8182,2.8182,2.8182,2.8182,2.8182,2.8182,2.8431,2.8976,3.0011,3.0779,3.1296,3.2447,3.2948,4.1123,4.2937,4.4774,4.4813,4.5458,4.6085,4.6124,4.6104,4.5821,4.4972,4.4821,4.4546,4.3576,4.412,4.4944,4.5673,4.7231,4.8353,4.8377,4.9131,4.9382,4.8551,4.8493,4.8755,4.9391,4.945,4.9176,4.8555,4.7661,4.7075,4.6887,4.6059,4.5528,4.54,4.54,4.5362,4.5362,4.5222,4.5052,4.4891,4.4745,4.4688,4.4667,4.4248,4.4188,4.4487,4.4373,4.4354,4.4458,4.4458,4.4393,4.4355,4.4383,4.3876,4.305,4.2224,4.1417,4.0816,4.156,4.1841,4.1867,4.1867,4.1237,4.052,4.0652,3.9933,3.8998,3.864,3.8491,3.8285,3.7757,3.7024,3.622,3.54,3.465,3.3883,3.3062,3.2916,3.2916,3.2916,3.2916,3.2916,3.2916,3.288,3.2563,3.1813,3.0975,3.019,2.9494,2.8709,2.8182,2.8182,2.8182,2.8182,2.8182,2.8182,2.8182,2.8182,2.8182,2.8182,2.8182,2.8182,2.8182,2.8182,2.8182,2.8182,2.8182,2.9762,3.0511,3.0547,3.2135,3.2884,4.1657,4.2465,4.3114,4.3777,4.4109,4.4421,4.5084,4.4695,4.4306,4.4725,4.43,4.378,4.353,4.4148,4.4967,4.5757,4.6751,4.7608,4.8111,4.8943,4.9371,4.9029,4.9529,4.9951,5.0122,5.016,5.0084,4.9913,4.8529,4.7396,4.6705,4.5898,4.5438,4.54,4.53,4.5175,4.503,4.4808,4.4648,4.4613,4.456,4.4532,4.457,4.444,4.4411,4.4515,4.4458,4.4149,4.3613,4.3613,4.3118,4.2371,4.2565,4.2031,4.1128,4.0996,4.0317,3.9463,3.9573,3.977,3.9986,3.9986,3.9667,3.9235,3.905,3.8811,3.8523,3.8234,3.8267,3.8318,3.7984,3.7286,3.6443,3.5434,3.465,3.3883,3.3062,3.2916,3.2916,3.2916,3.2916,3.2916,3.2916,3.2384,3.1938,3.1724,3.0547,2.9619,2.9423,2.8709,2.8182,2.8182,2.8182,2.8182,2.8182,2.8182,2.8182,2.8182,2.8182,2.8182,2.8182,2.8182,2.8182,2.8182,2.8182,2.8182,2.8182,2.9762,3.0511,3.0547,3.2135,3.2737,4.2032,4.2591,4.3,4.3481,4.3598,4.3741,4.4228,4.3907,4.3517,4.3635,4.3267,4.2801,4.2391,4.3319,4.4369,4.5084,4.6515,4.7783,4.8471,4.9298,4.9816,4.9733,5.0136,5.0383,5.0313,5.0313,5.0115,4.9682,4.8556,4.7661,4.7119,4.5872,4.5159,4.509,4.4948,4.4802,4.4636,4.4532,4.4487,4.4401,4.4401,4.4401,4.4401,4.4325,4.409,4.3754,4.3754,4.3229,4.2377,4.2377,4.1924,4.1249,4.1419,4.0908,4.0067,4.0115,3.9557,3.8725,3.8652,3.8755,3.8894,3.8894,3.8766,3.859,3.8465,3.8382,3.835,3.8086,3.8119,3.8153,3.788,3.7235,3.6393,3.5434,3.465,3.3883,3.3062,3.2916,3.2916,3.2916,3.2916,3.2916,3.2916,3.2541,3.2099,3.1742,3.0654,2.9779,2.944,2.8709,2.8182,2.8182,2.8182,2.8182,2.8182,2.8182,2.8182,2.8182,2.8182,2.8182,2.8182,2.8548,2.8744,2.8744,2.9048,2.9226,2.9226,3.044,3.0937,3.0783,3.2054,3.242,4.1914,4.2459,4.3023,4.3023,4.2953,4.2941,4.3175,4.3008,4.2663,4.2112,4.1927,4.1625,4.0931,4.2233,4.3602,4.419,4.6446,4.8336,4.906,4.9844,5.0361,5.0339,5.0339,5.0252,5.0011,5.0011,4.9594,4.859,4.7957,4.7592,4.7472,4.5789,4.4789,4.4685,4.4524,4.443,4.4285,4.4401,4.4373,4.4255,4.4255,4.4255,4.4255,4.4036,4.3528,4.2748,4.2687,4.2026,4.0969,4.0969,4.0767,4.0425,4.0477,4.0039,3.937,3.9436,3.8984,3.835,3.835,3.8318,3.8318,3.8382,3.8382,3.835,3.835,3.8318,3.8252,3.8018,3.7949,3.788,3.7649,3.7077,3.6363,3.556,3.4793,3.4026,3.3223,3.2987,3.2916,3.2916,3.2916,3.2916,3.2916,3.2827,3.2491,3.1796,3.1028,3.0279,2.9637,2.8762,2.8182,2.8182,2.8182,2.8182,2.8182,2.8182,2.8182,2.8182,2.8289,2.8342,2.8342,2.9137,2.9547,2.9547,3.0172,3.0511,3.0511,3.1266,3.1434,3.1124,3.1969,3.2141,3.9952,3.9886,4.0053,4.0053,3.9585,3.95,4.0956,4.0189,3.9558,4.08,4.0466,4.015,4.0706,4.2176,4.3529,4.419,4.6427,4.8299,4.8869,4.9682,5.0169,5.0012,4.9986,4.972,4.9048,4.8946,4.8534,4.754,4.6705,4.6259,4.6289,4.5187,4.4551,4.4542,4.4401,4.4314,4.4285,4.4177,4.4067,4.4036,4.4036,4.4036,4.4036,4.3795,4.3236,4.2479,4.2231,4.1272,3.9886,3.9886,3.9319,3.8502,3.8736,3.8613,3.8285,3.8518,3.8361,3.8052,3.8052,3.7915,3.781,3.8252,3.8252,3.8052,3.8052,3.7915,3.7721,3.7685,3.7649,3.7649,3.7613,3.7487,3.7184,3.6381,3.5596,3.4811,3.4062,3.3366,3.2916,3.2916,3.2916,3.2916,3.2916,3.2331,3.1849,3.1706,3.1028,3.0457,3.0332,2.9084,2.8182,2.8182,2.8182,2.8182,2.8182,2.8182,2.8182,2.8182,2.8834,2.9191,2.9191,2.9922,3.0315,3.0315,3.044,3.0511,3.0511,3.0981,3.119,3.1109,3.2209,3.2492,3.9309,3.8917,3.8762,3.9274,3.8786,3.8528,3.9837,3.9127,3.852,3.9721,3.9604,3.9548,4.0395,4.157,4.2826,4.3993,4.5899,4.762,4.8743,4.9556,5.0012,4.9906,4.9843,4.9466,4.8615,4.8484,4.7891,4.6506,4.598,4.5726,4.5848,4.4918,4.4354,4.4248,4.4177,4.4147,4.4147,4.4036,4.4005,4.4005,4.386,4.3795,4.3795,4.3529,4.2933,4.2127,4.1588,4.0611,3.9365,3.893,3.8395,3.781,3.7915,3.7933,3.7828,3.7949,3.7915,3.7792,3.7792,3.7721,3.7649,3.788,3.7898,3.7792,3.7792,3.7721,3.7577,3.7577,3.7577,3.7577,3.7577,3.7577,3.738,3.6577,3.5489,3.4543,3.4187,3.3455,3.2916,3.2916,3.2916,3.2916,3.2916,3.2563,3.2313,3.2313,3.1635,3.1118,3.1118,3.0118,2.9262,2.8887,2.8834,2.8655,2.8245,2.8602,2.8834,2.8834,2.9547,2.9976,2.9976,3.0707,3.1118,3.1118,3.1324,3.1441,3.1441,3.141,3.1513,3.1691,3.1829,3.189,3.8926,3.8503,3.8315,3.8917,3.8588,3.8259,3.8967,3.8408,3.797,3.8738,3.8869,3.9128,4.0109,4.1044,4.2119,4.3561,4.5126,4.6759,4.8367,4.9188,4.9709,4.9852,4.9759,4.9277,4.8211,4.8002,4.7256,4.5537,4.52,4.5151,4.5319,4.4651,4.4177,4.4005,4.3923,4.3892,4.3892,4.3878,4.3828,4.3846,4.3631,4.3529,4.3477,4.3214,4.2632,4.1814,4.0978,4.0022,3.905,3.8257,3.7792,3.7577,3.7577,3.7577,3.7577,3.7577,3.7577,3.7577,3.7577,3.7577,3.7577,3.7577,3.7577,3.7577,3.7577,3.7577,3.7577,3.7577,3.7577,3.7577,3.7577,3.7577,3.738,3.6577,3.5471,3.4561,3.4383,3.3705,3.3152,3.3152,3.3009,3.2916,3.2916,3.2916,3.2916,3.2916,3.2349,3.1956,3.1956,3.1403,3.0725,2.9976,2.9744,2.9387,2.8734,2.928,2.9637,2.9637,3.035,3.0761,3.0761,3.1466,3.1845,3.1845,3.207,3.2162,3.2162,3.1768,3.1722,3.1962,3.1443,3.1332,3.8003,3.8137,3.8556,3.7871,3.7734,3.7783,3.7859,3.7239,3.6903,3.775,3.7923,3.8421,4.0013,4.1111,4.1995,4.264,4.4306,4.5965,4.734,4.8275,4.9029,4.9627,4.9692,4.9012,4.7304,4.7124,4.6352,4.4539,4.4003,4.3906,4.4147,4.4073,4.4005,4.4005,4.3763,4.3631,4.3631,4.341,4.3268,4.3268,4.3232,4.3232,4.3232,4.292,4.2334,4.1576,4.0446,3.9562,3.8774,3.7952,3.7613,3.7577,3.7577,3.7577,3.7577,3.7577,3.7577,3.7577,3.7577,3.7577,3.7577,3.7577,3.7577,3.7577,3.7577,3.7577,3.7577,3.7577,3.7577,3.7577,3.7577,3.7577,3.738,3.6577,3.6292,3.5989,3.5275,3.4526,3.399,3.399,3.3384,3.2916,3.2916,3.2916,3.2916,3.2916,3.2844,3.2809,3.2809,3.2706,3.2367,3.1564,3.0832,3.0368,3.0297,3.0368,3.0404,3.0404,3.1153,3.1581,3.1581,3.2009,3.2247,3.2247,3.1897,3.1768,3.175,3.1338,3.1157,3.1202,3.1433,3.1553,3.8245,3.8074,3.802,3.829,3.7985,3.764,3.764,3.7389,3.7255,3.749,3.7966,3.869,3.9851,4.0387,4.1112,4.2427,4.3624,4.4954,4.6563,4.789,4.8745,4.8909,4.9265,4.8807,4.7005,4.6549,4.5634,4.376,4.3461,4.341,4.3495,4.3495,4.3495,4.3495,4.3391,4.3356,4.3356,4.3232,4.3214,4.3214,4.2995,4.292,4.2882,4.2573,4.2042,4.1253,4.031,3.9486,3.8754,3.7916,3.7577,3.7577,3.7577,3.7577,3.7577,3.7577,3.7577,3.7577,3.7577,3.7577,3.7577,3.7577,3.7577,3.7577,3.7577,3.7577,3.7577,3.7577,3.7577,3.7577,3.7577,3.7577,3.7505,3.7184,3.6738,3.631,3.5989,3.5311,3.4775,3.4775,3.4151,3.3616,3.3616,3.3205,3.2916,3.2916,3.2916,3.2916,3.2916,3.2916,3.2791,3.2456,3.1689,3.1028,3.0547,3.0939,3.1225,3.1225,3.1974,3.2307,3.2062,3.221,3.2179,3.1932,3.1528,3.1338,3.1338,3.1379,3.1642,3.2076,3.2204,3.2497,3.8205,3.8224,3.8245,3.8708,3.8556,3.8156,3.7661,3.7738,3.7833,3.7468,3.8073,3.8944,3.9759,4.0122,4.0832,4.2362,4.327,4.4368,4.6092,4.7448,4.8275,4.8391,4.8969,4.8602,4.6762,4.5722,4.4636,4.3287,4.3123,4.3032,4.3032,4.2975,4.3013,4.3196,4.3123,4.3032,4.3032,4.2975,4.2938,4.2938,4.2691,4.2555,4.2573,4.2391,4.1859,4.1056,4.0253,3.9486,3.8754,3.7916,3.7577,3.7577,3.7577,3.7577,3.7577,3.7577,3.7577,3.7577,3.7577,3.7577,3.7577,3.7577,3.7577,3.7577,3.7577,3.7577,3.7577,3.7577,3.7577,3.7577,3.7577,3.7577,3.7577,3.7577,3.7166,3.6738,3.6738,3.6114,3.556,3.556,3.4775,3.4115,3.4115,3.3419,3.2916,3.2916,3.2916,3.2916,3.2916,3.2916,3.2916,3.2916,3.2272,3.1689,3.126,3.1724,3.2014,3.187,3.2403,3.2521,3.2127,3.202,3.1823,3.1528,3.1123,3.0925,3.0925,3.1382,3.1885,3.2381,3.258,3.2961,3.7637,3.8622,3.9702,3.8888,3.9286,3.9456,3.7769,3.8074,3.8454,3.758,3.8073,3.8944,3.9759,4.0703,4.1603,4.2284,4.3232,4.444,4.5981,4.6773,4.7523,4.8315,4.8877,4.8427,4.6502,4.4415,4.3214,4.3214,4.2864,4.2711,4.2711,4.2454,4.2591,4.316,4.2882,4.2711,4.2711,4.2432,4.2328,4.2328,4.2328,4.2287,4.2287,4.2287,4.1859,4.1056,4.0253,3.9486,3.8754,3.7916,3.7577,3.7577,3.7577,3.7577,3.7577,3.7577,3.7577,3.7577,3.7577,3.7577,3.7577,3.7577,3.7577,3.7577,3.7577,3.7577,3.7577,3.7577,3.7577,3.7577,3.7577,3.7577,3.7577,3.7577,3.7577,3.7577,3.7577,3.6952,3.6381,3.6381,3.515,3.4115,3.4115,3.3419,3.2916,3.2916,3.2916,3.2916,3.2916,3.2916,3.2916,3.2916,3.2521,3.2437,3.2848,3.2898,3.2719,3.23,3.2318,3.2127,3.1714,3.13,3.1123,3.1123,3.0699,3.0526,3.0526,3.1212,3.1576,3.1609,3.2348,3.268,3.8186,3.9077,3.9832,3.9589,3.9721,3.9627,3.8527,3.8925,3.9286,3.8452,3.8944,3.9608,3.9832,4.0656,4.1468,4.2162,4.3109,4.4251,4.5658,4.6421,4.7061,4.7663,4.757,4.6947,4.5621,4.4411,4.3346,4.2627,4.2472,4.2432,4.2432,4.2369,4.2409,4.2591,4.2472,4.2163,4.1608,4.1506,4.1484,4.1484,4.1484,4.177,4.2269,4.1716,4.1038,4.0253,3.9486,3.8701,3.7951,3.7702,3.7577,3.7577,3.7577,3.7577,3.7577,3.7577,3.7577,3.7577,3.7577,3.7577,3.7577,3.7577,3.7577,3.7577,3.7577,3.7577,3.7577,3.7577,3.7577,3.7577,3.7577,3.7577,3.7577,3.7577,3.7577,3.7577,3.7577,3.738,3.7041,3.6506,3.556,3.4704,3.4204,3.3419,3.2916,3.2916,3.2916,3.2916,3.2916,3.2916,3.2916,3.2916,3.2521,3.2352,3.2488,3.2231,3.202,3.1913,3.1913,3.1714,3.13,3.1162,3.0965,3.0716,3.0551,3.0775,3.1229,3.2,3.2878,3.3872,3.4087,3.4203,3.8567,3.9286,3.9889,3.9889,3.9889,3.9702,3.8869,3.9323,3.9683,3.8869,3.9342,3.9984,4.0347,4.1086,4.1893,4.258,4.3725,4.4749,4.5413,4.6346,4.714,4.7574,4.6797,4.5921,4.5152,4.4021,4.3032,4.2364,4.2287,4.2287,4.2287,4.2002,4.1841,4.1841,4.1841,4.1448,4.0663,4.0646,4.0646,4.0646,4.0646,4.0913,4.1377,4.0877,4.0235,3.9468,3.9004,3.8344,0.0,3.7577,3.7577,3.7577,3.7577,3.7577,3.7577,3.7577,3.7577,3.7577,3.7577,3.7577,3.7577,3.7577,3.7577,3.7577,3.7577,3.7577,3.7577,3.7577,3.7577,3.7577,3.7577,3.7577,3.7505,3.7202,3.7131,3.7059,3.6756,3.6916,3.6899,3.6096,3.5543,3.4972,3.424,3.3419,3.2916,3.2916,3.277,3.2672,3.2672,3.2555,3.2454,3.2454,3.2091,3.1841,3.1841,3.1768,3.164,3.149,3.1452,3.13,3.0885,3.0861,3.0874,3.0924,3.094,3.1288,3.2034,3.2762,3.3723,3.4899,3.4899,3.4899,0.0,3.9323,3.9889,3.9889,3.9889,3.9702,3.8944,3.9361,0.0,3.8925,3.9437,4.023,4.1026,4.1878,4.2683,4.3302,4.4764,4.5707,4.5307,4.6434,4.7445,4.7809,4.6379,4.524,4.5003,4.3404,4.2341,4.2287,4.2287,4.2269,4.2216,4.1502,4.1056,4.0949,4.0949,4.0592,3.9843,3.9825,3.9825,3.9825,3.9825,3.986,3.9914,3.986,3.9468,3.8808,3.8754,3.829,3.7577,3.7577,3.7577,3.7577,3.7577,3.7577,3.7577,3.7577,3.7577,3.7577,3.7577,3.7577,3.7577,3.7577,3.7577,3.7577,3.7577,3.7577,3.7577,3.7577,3.7577,3.7577,3.7577,3.7577,3.7398,3.6649,3.6488,3.6274,3.5543,3.5971,3.6238,3.5382,3.5204,3.4972,3.4189,3.344,3.2941,3.2962,3.2611,3.2336,3.2336,3.1966,3.1677,3.1677,3.1389,3.1168,3.1168,3.1449,3.1452,3.1083,3.1044,3.0918,3.0593,3.0593,3.0957,3.1686,3.1709,3.21,3.2762,3.3508,3.422,3.4899,3.4899,3.4899,3.9627,0.0,3.9889,3.9889,3.9889,3.9832,0.0,3.9778,3.9832,3.9665,4.0309,4.0886,4.0822,4.2159,4.3111,4.2656,4.4141,4.5393,4.5516,4.6114,4.6486,4.6342,4.5412,4.4545,4.3948,4.3471,4.2965,4.2341,4.2287,4.2019,4.1413,4.1199,4.0556,3.9379,3.9343,3.9254,3.9075,3.9075,3.9075,3.9075,3.9075,3.9361,3.9896,3.9325,3.8968,3.8772,3.8148,3.7755,3.7577,3.7577,3.7577,3.7577,3.7577,3.7577,3.7577,3.7577,3.7577,3.7577,3.7577,3.7577,3.7577,3.7577,3.7577,3.7577,3.7577,3.7577,3.7577,3.7577,3.7577,3.7577,3.7577,3.7577,3.7541,3.7345,3.7309,3.7255,3.7077,3.7166,3.6899,3.5489,3.5204,3.4851,3.3741,3.3424,3.3371,3.3619,3.309,3.2671,3.2671,3.2113,3.1677,3.1677,3.1827,3.1945,3.1945,3.1221,3.074,3.0634,3.0634,3.0842,3.1338,3.1328,3.1702,3.2431,3.2994,3.3359,3.3524,3.427,3.4717,3.4899,3.4899,3.4899,3.9889,3.9889,3.9889,3.9889,3.9889,3.9889,3.9889,3.9889,3.9962,4.0141,4.0613,4.1086,4.1428,4.2333,4.3114,4.3321,4.4549,4.5696,4.6357,4.6248,4.6004,4.5846,4.4803,4.3946,4.3554,4.3179,4.2769,4.2323,4.1948,4.1556,4.1127,4.0431,3.9664,3.8843,3.8433,3.8255,3.8255,3.8255,3.8255,3.8255,3.8255,3.8451,3.8826,3.8433,3.8255,3.8219,3.7773,3.7577,3.7577,3.7577,3.7577,3.7577,3.7577,3.7577,3.7577,3.7577,3.7577,3.7577,3.7577,3.7577,3.7577,3.7577,3.7577,3.7577,3.7577,3.7577,3.7577,3.7577,3.7577,3.7577,3.7577,3.7449,3.723,3.7094,3.6878,3.6643,3.6307,3.6502,3.6304,3.4865,3.4898,3.4824,3.3796,3.3636,3.3699,3.3864,3.3414,3.3037,3.3037,3.2536,3.2178,3.2178,3.2303,3.2428,3.2428,3.1848,3.152,3.152,3.152,3.1686,3.21,3.2116,3.2448,3.3176,3.3922,3.4286,3.4303,3.47,3.4899,3.4899,3.4899,3.4899,3.9851,3.9984,4.0097,4.0097,4.0151,4.0182,4.0204,4.014,4.0188,4.0566,4.0801,4.1241,4.2147,4.259,4.3185,4.429,4.5205,4.6184,4.7295,4.6372,4.5624,4.5624,4.4268,4.3322,4.3322,4.2697,4.2287,4.2287,4.1538,4.1056,4.0931,3.9575,3.8754,3.8629,3.7897,3.7503,3.7503,3.7577,3.7577,3.7577,3.754,3.7503,3.7503,3.7503,3.7503,3.7503,3.7577,3.7577,3.7577,3.7577,3.7577,3.7577,3.7577,3.7577,3.7577,3.7577,3.7577,3.7577,3.7577,3.7577,3.7577,3.7577,3.7577,3.7577,3.7577,3.7577,3.7577,3.7577,3.754,3.7503,3.7503,3.715,3.6724,3.6448,3.6086,3.5626,3.4976,3.5364,3.544,3.43,3.4616,3.4857,3.4106,3.3985,3.3979,3.4059,3.366,3.338,3.338,3.2994,3.268,3.268,3.2779,3.2862,3.2862,3.2961,3.3027,3.3027,3.2812,3.2729,3.2845,3.2961,3.3326,3.3955,3.4584,3.4899,3.4899,3.4899,3.4899,3.4899,3.4899,3.4899,3.9721,4.0442,4.101,4.101,4.1273,4.1515,4.1574,4.1241,4.097,4.1119,4.1681,4.211,4.1988,4.3245,4.4181,4.3826,4.4899,4.6104,4.6945,4.5757,4.4803,4.4803,4.3411,4.2465,4.2465,4.2358,4.2287,4.2287,4.1538,4.0806,4.0128,3.9272,3.8487,3.7791,3.7259,3.7034,3.7034,3.7411,3.7577,3.7594,3.7206,3.7034,3.7034,3.7034,3.7034,3.7034,3.7411,3.7577,3.7577,3.7577,3.7577,3.7577,3.7577,3.7577,3.7577,3.7577,3.7577,3.7577,3.7577,3.7577,3.7577,3.7577,3.7577,3.7577,3.7577,3.7577,3.7577,3.7577,3.7319,3.7034,3.7034,3.6643,3.6264,3.6243,3.6184,3.6091,3.5987,3.6056,3.5877,3.507,3.5036,3.4947,3.4389,3.4329,3.4418,3.4714,3.4143,3.3698,3.3698,3.3106,3.268,3.268,3.3243,3.3624,3.3624,3.4203,3.4551,3.4551,3.3375,3.2961,3.3607,3.422,3.4618,3.4717,3.4833,3.4899,3.4899,3.4899,3.4899,3.4899,3.4899,3.4899,3.9153,4.0517,4.1798,4.1618,4.1731,4.1871,4.1897,4.1529,4.1285,4.1585,4.1886,4.2118,4.2118,4.3186,4.4213,4.47,4.5739,4.6569,4.6944,4.5998,4.5106,4.466,4.3625,4.2769,4.2323,4.1895,4.1645,4.1645,4.0286,3.9315,3.8961,3.7945,3.7246,3.6878,3.6643,3.6522,3.6522,3.6741,3.686,3.686,3.6603,3.6539,3.6539,3.6162,3.5971,3.6028,3.6456,3.6494,3.6338,3.6953,3.7073,3.6825,3.6422,3.6303,3.6303,3.6303,3.6682,3.7243,3.7243,3.7073,3.6829,3.6655,3.672,3.6829,3.6693,3.6738,3.69,3.715,3.7073,3.69,3.69,3.6399,3.5933,3.6147,3.602,3.5864,3.5864,3.5864,3.5718,3.5104,3.4992,3.4903,3.4693,3.4693,3.4718,3.4897,3.4601,3.4386,3.4386,3.4087,3.3889,3.3889,3.4187,3.4386,3.4386,3.47,3.4899,3.4899,3.4253,3.4038,3.4369,3.4717,3.4899,3.4899,3.4899,3.4899,3.4899,3.4899,3.4899,3.4899,3.4899,3.4899,3.8605,4.0214,4.1831,4.1875,4.2171,4.2425,4.2268,4.2075,4.2026,4.2268,4.2304,4.2354,4.253,4.3281,4.4264,4.5588,4.648,4.6926,4.6748,4.6034,4.5231,4.4446,4.3594,4.2779,4.2157,4.1292,4.0772,4.0772,3.9018,3.7936,3.7936,3.6856,3.6172,3.6172,3.6105,3.5976,3.5805,3.5703,3.5848,3.6172,3.6088,3.5994,3.5839,3.5297,3.4919,3.4788,3.5209,3.5314,3.5278,3.6115,3.6365,3.6146,3.5462,3.5082,3.4927,3.4927,3.5474,3.6239,3.6239,3.6,3.5676,3.5461,3.5553,3.5711,3.5671,3.5792,3.6091,3.6591,3.6661,3.662,3.662,3.6037,3.5526,3.5803,3.5644,3.5453,3.5453,3.5453,3.5316,3.4977,3.4899,3.4899,3.4899,3.4899,3.4899,3.4899,3.4899,3.4899,3.4899,3.4899,3.4899,3.4899,3.4899,3.4851,3.4851,3.4899,3.4899,3.4899,3.4899,3.4899,3.4899,3.4899,3.4899,3.4899,3.4899,3.4899,3.4899,3.4899,3.4982,3.5148,3.5148,3.5247,3.8283,3.938,4.0352,4.1515,4.2978,4.3957,4.3343,4.3579,4.381,4.354,4.3429,4.34,4.3411,4.4036,4.4821,4.5659,4.648,4.673,4.5998,4.5195,4.4428,4.3679,4.244,4.1631,4.1578,4.0506,3.9783,3.9783,3.8321,3.7456,3.7456,3.6646,3.6172,3.6172,3.5864,3.5338,3.4617,3.4175,3.4701,3.619,3.582,3.5304,3.4617,3.4549,3.4202,3.3566,3.3997,3.4609,3.5203,3.5296,3.5669,3.6146,3.5462,3.4794,3.4172,3.4172,3.4229,3.4281,3.4281,3.4281,3.4241,3.4229,3.4246,3.4362,3.5019,3.5261,3.5411,3.6084,3.5977,3.5705,3.5705,3.5316,3.493,3.4977,3.4977,3.4947,3.4947,3.4947,3.493,3.4899,3.4899,3.4899,3.4899,3.4899,3.4899,3.4899,3.4899,3.4899,3.4899,3.4899,3.4899,3.4899,3.4804,3.4691,3.4691,3.4851,3.4899,3.4899,3.4899,3.4899,3.4899,3.4899,3.4899,3.4899,3.4899,3.4899,3.4899,3.4899,3.5247,3.5926,3.5926,3.629,3.7524,3.8964,4.0471,4.1033,4.2174,4.3119,4.3173,4.3482,4.3764,4.3614,4.3882,4.4196,4.4196,4.4053,4.4178,4.4946,4.532,4.5321,4.4713,4.4385,4.3772,4.2706,4.169,4.092,4.045,3.9091,3.8276,3.8276,3.7048,3.629,3.629,3.5723,3.5172,3.4718,3.4583,3.4113,3.3378,3.3184,3.3406,3.3994,3.3879,3.3673,3.3345,3.2894,3.2543,3.2319,3.2785,3.2978,3.301,3.376,3.4058,3.397,3.3246,3.2957,3.2946,3.2662,3.3032,3.3646,3.3646,3.3481,3.3187,3.3042,3.309,3.3364,3.3904,3.4185,3.4536,3.5528,3.5481,3.5241,3.5526,3.5241,3.4899,3.4899,3.4899,3.4899,3.4899,3.4899,3.4899,3.4899,3.4899,3.4899,3.4899,3.4899,3.4899,3.4899,3.4899,3.4899,3.4899,3.4899,3.4899,3.4899,3.4851,3.4835,3.4835,3.4899,3.4899,3.4899,3.4899,3.4899,3.4899,3.4899,3.4899,3.4899,3.4899,3.4899,3.4899,3.5363,3.5727,3.6009,3.6473,3.6837,3.6812,3.8402,4.0132,4.0592,4.1452,4.2307,4.2759,4.3523,4.4078,4.3948,4.4293,4.4464,4.3964,4.3679,4.3618,4.3926,4.421,4.4147,4.3378,4.3296,4.2788,4.1432,4.0703,3.9989,3.9169,3.7815,3.6945,3.6945,3.5994,3.5362,3.5362,3.4838,3.4319,3.3806,3.3557,3.3094,3.2348,3.2348,3.2232,3.2,3.2,3.2133,3.2332,3.1851,3.1444,3.1272,3.1574,3.1667,3.1653,3.2479,3.2637,3.2299,3.1818,3.1624,3.1698,3.1382,3.1783,3.2496,3.2496,3.2285,3.1961,3.1767,3.1884,3.2121,3.2655,3.3111,3.3682,3.4717,3.4981,3.4977,3.5287,3.5148,3.4899,3.4899,3.4899,3.4899,3.4899,3.4899,3.4965,3.5197,3.5247,3.5313,3.5545,3.5546,3.5546,3.5595,3.5481,3.5398,3.528,3.5199,3.5199,3.5199,3.5247,3.533,3.553,3.5379,3.5247,3.5247,3.5032,3.4899,3.4899,3.4899,3.4899,3.4899,3.5131,3.5247,3.5247,3.5992,3.6473,3.6721,3.7218,3.7582,3.6303,3.7646,3.9091,4.0211,4.1107,4.1795,4.2213,4.3858,4.516,4.4675,4.4607,4.4125,4.259,4.2965,4.3294,4.2765,4.3371,4.3413,4.2123,4.1971,4.1401,3.9882,3.9208,3.8548,3.7851,3.6699,3.5976,3.5976,3.5297,3.4883,3.4899,3.4187,3.3789,3.3773,3.3061,3.2332,3.1576,3.1576,3.1196,3.0526,3.0526,3.0907,3.1576,3.1576,3.1163,3.0526,3.0526,3.0924,3.1576,3.1576,3.1576,3.1576,3.1576,3.1113,3.0526,3.0526,3.0526,3.0526,3.0526,3.0526,3.0526,3.0526,3.0526,3.0659,3.1361,3.2116,3.2845,3.3574,3.4319,3.4899,3.4899,3.4899,3.4899,3.4899,3.4899,3.4899,3.4899,3.4899,3.5114,3.586,3.6009,3.6241,3.6986,3.7001,3.6949,3.7068,3.6798,3.6483,3.6042,3.591,3.5811,3.5811,3.591,3.6257,3.6832,3.6323,3.6009,3.6009,3.5313,3.4899,3.4899,3.4899,3.4899,3.4916,3.5628,3.6009,3.6009,3.6754,3.75,3.8212,3.8228,3.8593,3.7526,3.851,3.9534,4.0762,4.1187,4.1486,4.2132,4.3197,4.4133,4.45,4.4196,4.3697,4.3233,4.2587,4.2018,4.1868,4.1789,4.1294,3.9993,3.9842,3.9338,3.8034,3.7268,3.6569,3.5819,3.4961,3.4452,3.4452,3.4237,3.4336,3.4866,3.4187,3.3557,3.3027,3.2315,3.1586,3.0858,3.0858,3.0742,3.0526,3.0526,3.0626,3.0858,3.0858,3.0725,3.0526,3.0526,3.06,3.0858,3.0858,3.0858,3.0858,3.0858,3.0709,3.0526,3.0526,3.0526,3.0526,3.0526,3.0526,3.0526,3.0526,3.0526,3.0659,3.1361,3.2116,3.2845,3.3574,3.4319,3.4899,3.4899,3.4851,3.4804,3.4899,3.4899,3.4899,3.4804,3.4739,3.497,3.5597,3.5745,3.5925,3.6615,3.6746,3.6694,3.6711,3.6678,3.6544,3.645,3.6366,3.6366,3.6348,3.6383,3.65,3.6662,3.6105,3.5745,3.5745,3.5103,3.4804,3.4899,3.4899,3.5148,3.5661,3.5795,3.6158,3.6787,3.7413,3.7892,3.8228,3.8725,3.902,3.8012,3.917,4.0329,4.1053,4.1399,4.1698,4.218,4.2912,4.3643,4.4089,4.3614,4.3058,4.2739,4.1912,4.1157,4.0955,4.0431,3.9705,3.874,3.8371,3.7836,3.6804,3.6274,3.5595,3.4551,3.4054,3.3789,3.3789,3.3789,3.4104,3.4849,3.4187,3.3591,3.3143,3.2415,3.1702,3.0957,3.0957,3.0808,3.0526,3.0526,3.0526,3.0526,3.0526,3.0526,3.0526,3.0526,3.0526,3.0526,3.0526,3.0526,3.0526,3.0526,3.0526,3.0526,3.0526,3.0526,3.0526,3.0526,3.0526,3.0526,3.0526,3.0526,3.0593,3.1014,3.1885,3.2779,3.3226,3.4057,3.4804,3.4804,3.4691,3.4643,3.4804,3.4804,3.4691,3.4643,3.4594,3.4906,3.5824,3.6037,3.6331,3.7314,3.7441,3.7388,3.7458,3.7249,3.7,3.6947,3.6754,3.6689,3.7,3.7068,3.7167,3.7462,3.6839,3.6498,3.6565,3.5926,3.5613,3.5777,3.5495,3.5629,3.6323,3.6621,3.7001,3.7549,3.8104,3.8274,3.8133,3.8879,3.8969,3.8079,3.9657,4.1282,4.1239,4.1752,4.2287,4.2287,4.2876,4.3393,4.3351,4.2935,4.2359,4.1568,4.1065,4.0528,4.0001,3.9277,3.8622,3.8065,3.7433,3.6738,3.5992,3.5909,3.5346,3.3938,3.3789,3.3789,3.3789,3.3789,3.4104,3.4849,3.4187,3.3789,3.3789,3.3061,3.2348,3.1593,3.1593,3.1212,3.0485,3.0485,3.0468,3.0526,3.0526,3.0526,3.0526,3.0526,3.0526,3.0526,3.0526,3.0526,3.0526,3.0526,3.0526,3.0526,3.0526,3.0485,3.0485,3.0526,3.0485,3.0485,3.0468,3.0485,3.0485,3.0485,3.1537,3.268,3.268,3.3664,3.4691,3.4691,3.4594,3.4497,3.4643,3.4594,3.4497,3.4497,3.4497,3.4923,3.6397,3.6692,3.7081,3.8504,3.8655,3.8616,3.875,3.8177,3.7714,3.7584,3.7106,3.6996,3.7687,3.7752,3.803,3.8701,3.8079,3.7724,3.7933,3.7258,3.6915,3.71,3.6439,3.6406,3.7032,3.776,3.8193,3.8259,3.878,3.8701,3.8117,3.8701,3.8717,3.9317,4.0387,4.131,4.1877,4.2162,4.2287,4.2287,4.243,4.2454,4.2017,4.1824,4.1593,4.1053,4.0546,3.9949,3.9257,3.869,3.7935,3.6638,3.634,3.5959,3.5214,3.5131,3.4783,3.3889,3.3789,3.3789,3.3789,3.3789,3.4104,3.4849,3.4187,3.3789,3.3789,3.297,3.2215,3.1523,3.1419,3.1057,3.0401,3.0401,3.0443,3.0526,3.0526,3.0526,3.0526,3.0526,3.0526,3.0526,3.0526,3.0526,3.0526,3.0526,3.0526,3.0526,3.0526,3.0485,3.0443,3.0485,3.0401,3.0274,3.0443,3.0485,3.0401,3.0401,3.1407,3.2545,3.2504,3.3494,3.4546,3.4546,3.4448,3.4349,3.4399,3.4448,3.4448,3.4349,3.4349,3.474,3.6117,3.6409,3.6848,3.8261,3.8448,3.8448,3.8504,3.8374,3.8221,3.8221,3.8091,3.8042,3.8244,3.8277,3.8325,3.8488,3.7838,3.7416,3.7432,3.6857,3.671,3.7227,3.6995,3.7218,3.7911,3.7834,3.8163,3.8809,3.8849,3.8843,3.8772,3.8952,3.8843,3.9799,4.0599,4.1288,4.2091,4.2287,4.2228,4.1959,4.1917,4.1709,4.0955,4.1019,4.1019,4.0497,3.9732,3.8991,3.8606,3.7786,3.6887,3.6108,3.5694,3.533,3.4949,3.4899,3.4601,3.3763,3.3697,3.3697,3.3587,3.3604,3.3917,3.4658,3.4329,3.4131,3.4131,3.3752,3.3208,3.2409,3.2393,3.1851,3.0843,3.0843,3.0662,3.0359,3.0485,3.0526,3.0526,3.0526,3.0526,3.0526,3.0526,3.0485,3.0443,3.0443,3.0401,3.0359,3.0443,3.0443,3.0401,3.0443,3.0401,3.0359,3.0359,3.0359,3.0375,3.0316,3.1292,3.2442,3.2413,3.3352,3.4399,3.4399,3.43,3.4201,3.4201,3.425,3.43,3.4201,3.4477,3.5045,3.6092,3.6562,3.7128,3.8213,3.8391,3.8391,3.8391,3.8391,3.8391,3.8391,3.8391,3.8391,3.8391,3.8391,3.8391,3.8391,3.8051,3.7825,3.7897,3.7649,3.7655,3.8084,3.8011,3.8084,3.848,3.8356,3.8537,3.9023,3.886,3.8623,3.8311,3.8439,3.8197,3.9689,4.0453,4.1288,4.1991,4.2145,4.2002,4.149,4.1383,4.1111,4.0203,4.0351,4.0497,3.9969,3.8972,3.8179,3.8046,3.6887,3.5959,3.5827,3.528,3.4899,3.4899,3.4899,3.4603,3.3851,3.3785,3.3691,3.3596,3.3596,3.3858,3.4464,3.4497,3.4497,3.4497,3.4594,3.4249,3.3352,3.3463,3.2807,3.1466,3.1352,3.0893,3.0189,3.0359,3.0443,3.0443,3.0485,3.0485,3.0443,3.0485,3.0443,3.0375,3.0507,3.0432,3.0248,3.0465,3.0474,3.0375,3.0417,3.0401,3.0401,3.0274,3.0274,3.0349,3.0353,3.1319,3.2417,3.2485,3.3355,3.425,3.425,3.4201,3.4101,3.4101,3.4198,3.4262,3.4133,3.4667,3.5412,3.6157,3.695,3.7695,3.8294,3.8391,3.8391,3.8391,3.8391,3.8391,3.8391,3.8391,3.8391,3.8391,3.8391,3.8391,3.8391,3.8391,3.8464,3.856,3.8576,3.8672,3.8876,3.8805,3.875,3.875,3.886,3.8914,3.8914,3.8805,3.8439,3.778,3.7927,3.7621,3.897,4.0003,4.1189,4.1515,4.1622,4.149,4.099,4.0896,4.0737,4.0103,4.0053,3.9969,3.9451,3.8745,3.7996,3.7367,3.6555,3.5777,3.5131,3.4965,3.4899,3.4899,3.4804,3.4658,3.4559,3.4446,3.4349,3.4349,3.4349,3.4399,3.4497,3.4497,3.4497,3.4497,3.4399,3.3991,3.3209,3.321,3.2819,3.2082,3.1553,3.0893,3.0189,3.0231,3.0231,3.0231,3.0359,3.0359,3.0231,3.0375,3.0333,3.0297,3.0937,3.0849,3.0441,3.0997,3.0789,3.0231,3.0375,3.0205,3.0033,3.029,3.0248,3.0174,3.081,3.1531,3.2329,3.2869,3.3551,3.4151,3.4151,3.4101,3.4101,3.4101,3.4586,3.4862,3.423,3.4667,3.5412,3.6157,3.7371,3.8278,3.8375,3.8391,3.8391,3.8391,3.8391,3.8391,3.8391,3.8391,3.8391,3.8391,3.8391,3.8391,3.8391,3.8391,3.8408,3.8464,3.8464,3.8448,3.8504,3.8448,3.8504,3.8616,3.8616,3.8672,3.8672,3.8616,3.856,3.8488,3.8488,3.8432,3.8797,3.9676,4.0421,4.0983,4.1111,4.0972,4.0449,4.0351,4.0203,3.9679,3.9592,3.9423,3.8795,3.8079,3.735,3.6605,3.586,3.5263,3.4949,3.4899,3.4899,3.4899,3.4851,3.4739,3.4594,3.4546,3.4448,3.43,3.43,3.43,3.43,3.43,3.43,3.43,3.43,3.3909,3.3161,3.3145,3.2593,3.1489,3.0803,3.0342,3.0033,3.0033,3.0076,3.0189,3.0274,3.0231,3.0189,3.0274,3.0231,3.0271,3.092,3.1046,3.0844,3.1083,3.0985,3.0658,3.0293,3.0119,3.0141,3.0549,3.0635,3.0721,3.1407,3.2138,3.2772,3.3048,3.3582,3.4101,3.4101,3.4101,3.4198,3.4603,3.4943,3.5202,3.5315,3.5882,3.6594,3.7339,3.7987,3.8391,3.8391,3.8391,3.8391,3.8391,3.8748,3.9007,3.9007,3.9331,3.9573,3.9573,3.9573,3.9573,3.9573,3.9217,3.9007,3.9007,3.8634,3.8448,3.852,3.8448,3.8448,3.8616,3.8655,3.8672,3.8616,3.8672,3.86,3.8448,3.8221,3.8033,3.8384,3.9051,3.9543,4.0161,4.0456,4.0449,3.9919,3.9817,3.9731,3.9362,3.9272,3.9007,3.8096,3.7483,3.687,3.6125,3.5379,3.4899,3.4899,3.4899,3.4851,3.4851,3.4804,3.4643,3.4448,3.4399,3.43,3.4101,3.4101,3.4101,3.4101,3.3939,3.3841,3.3841,3.3762,3.3421,3.2821,3.2869,3.2236,3.0881,3.0393,3.0036,2.9918,2.9918,2.9989,3.0119,3.0146,3.0162,3.0119,3.0146,3.0162,3.0201,3.1026,3.1225,3.1157,3.1486,3.1372,3.1026,3.0489,3.0223,3.0234,3.0774,3.1018,3.118,3.2059,3.2659,3.3129,3.3291,3.3712,3.4101,3.4101,3.423,3.4505,3.5056,3.5461,3.5882,3.6448,3.6967,3.7533,3.8262,3.8391,3.8391,3.8391,3.8391,3.8456,3.8651,3.9136,3.9541,3.9719,4.0173,4.0496,4.0496,4.0496,4.0496,4.0496,3.9881,3.9476,3.9476,3.8796,3.8448,3.8576,3.8448,3.8464,3.8576,3.8655,3.8655,3.8576,3.8655,3.86,3.8391,3.8049,3.7801,3.7241,3.8035,3.8614,3.8945,3.9511,3.9919,3.9451,3.9325,3.9325,3.9325,3.9272,3.8841,3.7417,3.7135,3.687,3.6125,3.5379,3.4899,3.4899,3.4787,3.4691,3.4691,3.4497,3.4349,3.43,3.4201,3.4101,3.4101,3.4101,3.4101,3.4101,3.3485,3.3145,3.3145,3.2465,3.2093,3.206,3.206,3.1672,3.0881,3.0833,3.0522,2.9918,2.9918,2.9918,2.9918,2.9973,2.9989,2.9902,2.9973,2.9989,3.0048,3.1413,3.1619,3.1271,3.2513,3.2203,3.1108,3.1059,3.0559,3.0032,3.0835,3.1018,3.1186,3.2595,3.3064,3.3226,3.3874,3.4068,3.4101,3.4101,3.4603,3.5137,3.5169,3.6222,3.7226,3.7258,3.729,3.7533,3.8262,3.8391,3.8391,3.8391,3.8391,3.8634,3.9331,3.946,3.9719,4.0367,4.0464,4.0496,4.0496,4.0496,4.0496,4.0496,3.9881,3.9476,3.9476,3.8796,3.8391,3.8391,3.8391,3.8391,3.8391,3.856,3.856,3.8391,3.8391,3.8391,3.8391,3.8391,3.8351,3.6667,3.6937,3.7177,3.8204,3.8671,3.8937,3.9209,3.9272,3.9272,3.9272,3.9272,3.8825,3.7367,3.7001,3.6554,3.5333,3.4872,3.4643,3.4643,3.4594,3.4546,3.4546,3.4497,3.4399,3.43,3.425,3.4201,3.4101,3.4101,3.3906,3.3469,3.3226,3.287,3.2417,3.2141,3.1785,3.1316,3.0862,3.0506,3.0247,3.0247,2.9968,2.938,2.938,2.9182,2.8873,2.8919,2.9273,2.9918,2.9902,3.0222,3.0786,3.167,3.2156,3.2413,3.2416,3.2107,3.154,3.066,3.0129,3.0113,3.128,3.167,3.1882,3.3307,3.3744,3.3777,3.4036,3.4101,3.4214,3.4667,3.4975,3.5412,3.6335,3.729,3.8149,3.8602,3.8343,3.8084,3.8359,3.8391,3.8553,3.9007,3.9104,3.9331,4.0027,4.0529,4.0901,4.116,4.1581,4.1857,4.1857,4.1857,4.1857,4.1857,4.1225,4.082,4.082,3.9735,3.8898,3.8471,3.8025,3.7535,3.7131,3.7191,3.7578,3.8391,3.8059,3.7812,3.7727,3.7326,3.7131,3.589,3.6035,3.6241,3.7218,3.7665,3.803,3.8758,3.8924,3.899,3.9222,3.9272,3.8907,3.7698,3.7166,3.6421,3.4938,3.4594,3.4497,3.4497,3.4448,3.4448,3.4448,3.4399,3.4349,3.425,3.425,3.4201,3.4101,3.4101,3.3906,3.3453,3.2983,3.2287,3.1332,3.1299,3.1056,3.0571,2.9951,2.9621,2.9621,2.947,2.9182,2.8842,2.8842,2.8638,2.8288,2.8288,2.8795,2.9621,2.9425,2.9894,3.0758,3.1467,3.2176,3.2739,3.2497,3.2111,3.1581,3.059,2.9858,2.9603,3.1182,3.1694,3.1999,3.3398,3.3933,3.4101,3.4101,3.3933,3.3976,3.4699,3.507,3.56,3.6982,3.768,3.8341,3.9314,3.9104,3.8829,3.9055,3.9104,3.925,3.9735,3.9816,4.0059,4.0739,4.1274,4.1662,4.1905,4.2342,4.2634,4.2634,4.2634,4.2634,4.2634,4.1986,4.1504,4.1241,4.0148,3.9077,3.8153,3.7865,3.7382,3.6768,3.6951,3.7401,3.8091,3.7488,3.7115,3.7027,3.6631,3.6259,0.0,0.0,0.0,3.5992,3.6539,3.7268,3.8013,3.8179,3.8377,3.9106,3.9239,3.9023,3.8344,3.7513,3.6454,3.5004,3.4627,3.4497,3.4497,3.4399,3.43,3.43,3.4201,3.4101,3.4101,3.4101,3.4101,3.4101,3.4101,3.4084,3.4068,3.2676,3.1286,2.9907,2.9858,2.9858,2.9874,2.9319,2.9074,2.9074,2.8543,2.8288,2.8304,2.8304,2.824,2.8255,2.8255,2.8543,2.9028,2.8496,2.8951,2.9976,3.0831,3.1485,3.2045,3.2741,3.2223,3.1147,3.089,2.9706,2.8647,3.0506,3.1126,3.1444,3.2787,3.3594,3.405,3.405,3.3646,3.3319,3.4006,3.4747,3.5689,3.7065,3.7433,3.7832,3.9156,3.9525,3.9735,4.0367,4.048,4.0496,4.0513,4.0453,4.0712,4.1423,4.1598,4.184,4.2474,4.2571,4.2571,4.2634,4.2571,4.2571,4.2571,4.1986,4.1273,4.0561,3.9803,3.8858,3.7459,3.7982,3.796,3.7389,3.7976,3.796,3.7358,3.6707,3.6384,3.6384,3.6384,3.6009,3.4899,0.0,0.0,0.0,0.0,0.0,3.7251,3.7417,3.7615,3.8361,3.8457,3.8286,3.8088,3.7629,3.7028,3.6097,3.5034,3.43,3.425,3.4201,3.4151,3.4151,3.4101,3.4101,3.4101,3.4101,3.4101,3.4101,3.4101,3.3707,3.2774,3.1027,2.9815,2.935,2.8919,2.8935,2.9319,2.8779,2.8543,2.8543,2.8384,2.8094,2.77,2.77,2.753,2.7203,2.7203,2.7494,2.7947,2.8192,2.879,2.9624,3.0285,3.0694,3.0876,3.1013,3.0588,2.9803,2.9216,2.904,2.9196,3.0196,3.0882,3.1455,3.2323,3.2765,3.2873,3.2873,3.2765,3.2865,3.4043,3.5226,3.6199,3.6584,3.7463,3.8288,3.8638,3.9519,4.0258,4.0485,4.0087,3.9863,4.0404,4.0037,3.9916,4.0653,4.1175,4.158,4.1771,4.1803,4.2013,4.2555,4.2142,4.1803,4.1803,4.1628,4.1241,4.0494,4.0269,3.9539,3.8152,3.7874,3.7402,3.6656,3.5914,3.5657,3.5961,3.6259,3.6134,3.5642,3.5154,3.4839,0.0,3.4899,3.4998,3.5381,0.0,0.0,3.6423,3.6588,3.6854,3.7599,3.7892,3.8002,3.8002,3.7793,3.7416,3.6955,3.5929,3.5161,3.5024,3.5024,3.4894,3.4586,3.4554,3.4441,3.4133,3.4101,3.4101,3.4101,3.4101,3.3526,3.2301,3.0643,2.9543,2.9201,2.8602,2.8448,2.8779,2.824,2.7963,2.7947,2.778,2.7494,2.7188,2.7188,2.7063,2.6779,2.6779,2.6974,2.724,2.7545,2.8156,2.8981,2.976,3.0164,3.0371,3.032,2.9971,2.9404,2.8882,2.8662,2.8839,2.997,3.0639,3.1095,3.1794,3.2216,3.2398,3.2398,3.2614,3.2953,3.3502,3.4615,3.5642,3.5897,3.6796,3.7758,3.8262,3.9284,4.0159,4.0404,4.01,3.9966,4.0388,4.0132,3.9985,4.0355,4.0758,4.1044,4.1044,4.1044,4.1178,4.1672,4.1311,4.1044,4.1044,4.1311,4.1178,4.0416,4.0417,3.9735,3.8027,3.76,3.6935,3.6013,3.5478,3.527,3.54,3.5529,3.5335,3.4957,3.4601,3.4414,0.0,0.0,0.0,3.4739,3.4739,0.0,3.5465,3.5613,3.5861,3.6602,3.7173,3.756,3.7724,3.7546,3.7438,3.741,3.6853,3.6362,3.6319,3.6249,3.5937,3.5275,3.5062,3.4755,3.406,3.3931,3.3933,3.3984,3.3933,3.3358,3.208,3.0794,2.9858,2.9215,2.8526,2.8158,2.8192,2.7665,2.7414,2.7429,2.7011,2.6779,2.6779,2.6779,2.6779,2.6779,2.6779,2.6779,2.6779,2.6779,2.7306,2.8247,2.9155,2.9728,3.002,3.0173,2.994,2.9445,2.9316,2.8644,2.8184,2.9799,3.041,3.063,3.1243,3.1766,3.2231,3.2252,3.2777,3.3161,3.2713,3.3514,3.4534,3.5154,3.5917,3.682,3.7948,3.8815,3.9535,4.0032,4.0209,4.0278,4.0278,4.0209,4.0139,4.0139,4.0209,4.0278,4.0278,4.0347,4.0416,4.0416,4.0416,4.0347,4.0278,4.0894,4.0961,4.0209,4.0209,3.9451,3.7455,3.7336,3.6776,3.5534,3.6054,3.5946,3.5285,3.4721,3.4414,3.4414,3.4414,3.4414,0.0,0.0,0.0,3.4851,3.4448,0.0,3.4182,3.3738,3.3561,3.4273,3.4471,3.4801,3.5933,3.5962,3.6017,3.6518,3.6487,3.6346,3.6287,3.5822,3.5451,3.5308,3.4328,3.3628,3.3488,3.3022,3.2911,3.3355,3.2964,3.2183,3.0879,2.9699,2.8897,2.8666,2.7661,2.724,2.765,2.7203,2.6922,2.6922,2.6832,2.6779,2.6779,2.6779,2.6779,2.6779,2.6779,2.6779,2.6779,2.6779,2.6937,2.7195,2.8393,2.8624,2.8341,2.9369,2.9386,2.8876,2.8855,2.898,2.929,2.9653,3.0134,3.0631,3.0763,3.0851,3.1073,3.1542,3.2138,3.2742,3.3216,3.3848,3.4414,3.4534,3.5925,3.7073,3.6807,3.8091,3.9155,3.8738,3.9103,3.952,3.952,3.903,3.862,3.862,3.9103,3.952,3.952,3.9999,4.0416,4.0416,4.0416,4.0139,3.9591,3.9662,3.9376,3.8694,3.9175,3.8832,3.7418,3.7396,3.7,3.6237,3.5799,3.5285,3.4601,3.4467,3.4414,3.4414,3.4414,3.4414,0.0,0.0,0.0,3.4804,3.4513,0.0,0.0,3.3411,3.3156,3.3232,3.3426,3.382,3.4519,3.5084,3.5491,3.583,3.6168,3.6398,3.6337,3.6052,3.5736,3.5334,3.4685,3.4017,3.3341,3.3059,3.2832,3.2819,3.2256,3.1671,3.1042,2.9809,2.9114,2.9057,2.7846,2.7351,2.7571,2.7083,2.6779,2.6779,2.6779,2.6779,2.6779,2.6779,2.6779,2.6779,2.6779,2.6779,2.6779,2.6779,2.6779,2.691,2.8173,2.8477,2.8318,2.9276,2.9421,2.9145,2.9145,2.9363,2.9682,2.9987,3.0321,3.0568,3.0568,3.0568,3.0713,3.1337,3.2004,3.2658,3.3311,3.3935,3.4414,3.4414,3.54,3.6295,3.5907,3.6848,3.7665,3.7317,3.7799,3.8399,3.8708,3.8412,3.8202,3.8202,3.8472,3.8752,3.8752,3.9103,3.9305,3.9305,3.9305,3.9175,3.8752,3.9103,3.9175,3.8752,3.9103,3.8892,3.7925,3.719,3.6585,3.5938,3.5266,3.4905,3.4905,3.4534,3.4414,3.4414,3.4414,3.4414,0.0,0.0,0.0,0.0,0.0,3.4152,0.0,0.0,0.0,3.2415,3.2696,3.3069,3.3192,3.4117,3.4866,3.4988,3.5582,3.6009,3.6009,3.6009,3.5873,3.537,3.5079,3.4516,3.3437,3.334,3.305,3.2475,3.198,3.1616,3.1499,3.0309,2.9624,2.9624,2.8507,2.7853,2.7668,2.7229,2.6895,2.6779,2.6779,2.6779,2.6779,2.6779,2.6779,2.6779,2.6779,2.6779,2.6779,2.6779,2.6779,2.6895,2.8042,2.8579,2.8753,2.9392,2.9697,2.9798,2.9798,2.9798,2.99,3.0408,3.0568,3.0568,3.0568,3.0568,3.0727,3.1496,3.2092,3.2687,3.3456,3.4022,3.4414,3.4414,3.4893,3.5427,3.5427,3.5851,3.6301,3.6301,3.6751,3.7302,3.7926,3.813,3.8202,3.8202,3.8202,3.8202,3.8202,3.8337,3.8337,3.8202,3.8337,3.8337,3.8202,3.8767,3.9103,3.9103,3.9247,3.902,3.8432,3.7057,3.5962,3.5234,3.4654,3.4654,3.5219,3.4654,3.4414,3.4414,3.4414,3.4414,0.0,0.0,0.0,0.0,3.3869,0.0,3.2833,0.0,3.0896,3.0837,0.0,3.107,3.164,0.0,0.0,3.3615,3.4244,3.4654,3.4654,3.4654,3.4824,3.5359,3.4416,3.3644,3.3498,3.3431,3.3121,3.2533,3.239,3.2049,3.1533,3.0277,2.9624,2.9624,2.8942,2.8303,2.7737,2.765,2.7345,2.6779,2.6779,2.6779,2.6779,2.6779,2.6779,2.6779,2.6779,2.6779,2.6779,2.6779,2.6779,2.6852,2.7563,2.8187,2.8753,2.9392,2.9987,3.0466,3.0466,3.0466,3.048,3.0553,3.0568,3.0568,3.0568,3.0568,3.0829,3.2063,3.2454,3.2803,3.3993,3.4356,3.4414,3.4414,3.4893,3.5427,3.5427,3.5851,3.6301,3.6301,3.6373,3.6635,3.7302,3.7854,3.8202,3.8202,3.8202,3.8202,3.8202,3.8752,3.8899,3.8277,3.8752,3.8899,3.8277,3.8277,3.8337,3.8337,3.8972,3.902,3.8432,3.715,3.5844,3.4549,3.4414,3.4414,3.4534,3.4414,3.4414,3.4414,3.4414,3.4414,3.4899,0.0,0.0,0.0,0.0,0.0,3.221,0.0,3.1029,3.0687,0.0,0.0,0.0,0.0,0.0,0.0,3.289,3.3311,3.3311,3.3311,3.3704,3.4699,3.4368,3.3862,3.3499,3.2767,3.2214,3.1932,3.1567,3.1262,3.0974,3.0466,3.0176,3.0176,2.9566,2.9102,2.884,2.8045,2.7592,2.7331,2.6968,2.6779,2.6779,2.6779,2.6779,2.6779,2.6779,2.6779,2.6779,2.6779,2.6779,2.6823,2.7084,2.7795,2.8753,2.9392,3.0031,3.0568,3.0568,3.0568,3.0568,3.0568,3.0568,3.0568,3.0568,3.0568,3.0843,3.215,3.2513,3.2803,3.408,3.4414,3.4414,3.4414,3.4617,3.482,3.482,3.5024,3.5212,3.5212,3.5503,3.5851,3.6127,3.7012,3.7796,3.8144,3.8202,3.8202,3.8202,3.8486,3.8546,3.8202,3.8486,3.8546,3.8202,3.862,3.8826,3.8826,3.9103,3.8641,3.7208,3.6663,3.5952,3.4986,3.4601,3.4601,3.4971,3.4601,3.4414,3.4414,3.4414,3.4414,3.469,0.0,0.0,0.0,0.0,0.0,0.0,0.0,0.0,0.0,3.0568,0.0,0.0,0.0,3.1526,3.1526,0.0,3.2513,3.2513,3.2513,3.2919,3.4022,3.4312,3.424,3.3775,3.2716,3.2063,3.2063,3.1293,3.0843,3.0843,3.0669,3.0568,3.0568,3.0132,2.9798,2.9624,2.8536,2.7897,2.7668,2.7084,2.6779,2.6779,2.6779,2.6779,2.6779,2.6779,2.6779,2.6779,2.6779,2.6779,2.6779,2.6779,2.7461,2.8492,2.9131,2.9871,3.0568,3.0568,3.0568,3.0568,3.0568,3.0568,3.0568,3.0568,3.0568,3.0843,3.215,3.2513,3.2803,3.408,3.4414,3.4414,3.4414,3.4414,3.4414,3.4414,3.4414,3.4414,3.4414,3.4777,3.5154,3.5398,3.6446,3.7462,3.7897,3.8101,3.8202,3.8202,3.8202,3.8202,3.8202,3.8202,3.8202,3.8202,3.8694,3.9103,3.932,3.9305,3.8522,3.6699,3.657,3.6163,3.5118,3.4668,3.4668,3.5154,3.4668,3.4414,3.4414,3.4414,3.4414,3.4055,3.4101,0.0,3.3214,0.0,0.0,0.0,0.0,3.0628,0.0,0.0,0.0,3.0568,0.0,0.0,0.0,0.0,0.0,0.0,3.2513,3.2759,3.3427,3.4037,3.4399,3.4385,3.379,3.3412,3.3412,3.2222,3.1482,3.1482,3.0916,3.0568,3.0568,3.0553,3.0248,2.9639,2.8971,2.8332,2.7668,2.7084,2.6779,2.6779,2.6779,2.6779,2.6779,2.6779,2.6779,2.6779,2.6779,2.6779,2.6779,2.6779,2.7186,2.7839,2.8477,2.9493,3.0568,3.0568,3.0568,3.0568,3.0568,3.0568,3.0568,3.0568,3.0568,3.0843,3.215,3.2513,3.2803,3.408,3.4414,3.4414,3.4414,3.4414,3.4414,3.4414,3.4414,3.4414,3.4414,3.4428,3.4646,3.5256,3.6446,3.7317,3.7331,3.7839,3.8202,3.8202,3.8202,3.8202,3.8202,3.8202,3.8202,3.8202,3.8202,3.8546,3.9233,3.9305,3.8721,3.7419,3.736,3.6422,3.4496,3.4414,3.4414,3.4414,3.4414,3.4414,3.4414,3.4414,3.4414,3.347,3.3728,3.3815,3.261,0.0,0.0,0.0,0.0,0.0,0.0,0.0,0.0,0.0,0.0,0.0,0.0,0.0,0.0,0.0,3.1598,3.2106,3.2759,3.3775,3.4414,3.4414,3.3456,3.2846,3.2846,3.1627,3.0887,3.0887,3.0684,3.0568,3.0568,3.0568,3.0466,3.0248,2.9203,2.8579,2.8347,2.7287,2.6779,2.6779,2.6779,2.6779,2.6779,2.6779,2.6779,2.6779,2.6779,2.6779,2.6779,2.6779,2.7171,2.7752,2.7969,2.8855,3.0001,3.0437,3.0568,3.0568,3.0568,3.0568,3.0568,3.0568,3.0568,3.0843,3.215,3.2513,3.2803,3.408,3.4414,3.4414,3.4414,3.4414,3.4414,3.4414,3.4414,3.4414,3.4414,3.4414,3.4486,3.4704,3.5444,3.6315,3.7172,3.7825,3.8202,3.8202,3.8202,3.8202,3.8202,3.8202,3.8202,3.8202,3.862,3.903,3.9305,3.9305,3.8522,3.6755,3.6641,3.597,3.4443,3.4414,3.4414,3.4414,3.4414,3.4414,3.4414,3.4414,3.4414,3.2708,3.2892,3.2929,3.1901,3.1694,0.0,3.0807,0.0,3.0642,0.0,0.0,0.0,0.0,0.0,0.0,0.0,0.0,0.0,0.0,3.1119,3.1671,3.2106,3.3296,3.408,3.408,3.3122,3.2425,3.2179,3.1177,3.0568,3.0568,3.0568,3.0568,3.0568,3.0568,3.0568,3.0568,2.9537,2.8898,2.8666,2.7621,2.7012,2.6779,2.6779,2.6779,2.6779,2.6779,2.6779,2.6779,2.6779,2.6779,2.6779,2.6779,2.7171,2.7668,2.7668,2.8536,2.9726,3.035,3.0568,3.0568,3.0568,3.0568,3.0568,3.0568,3.0568,3.08,3.1859,3.2338,3.2759,3.3804,3.424,3.4414,3.4414,3.4414,3.4414,3.4414,3.4414,3.4414,3.4414,3.4414,3.4414,3.4414,3.4936,3.572,3.6794,3.7491,3.7955,3.8173,3.8202,3.8202,3.8202,3.8202,3.8202,3.8202,3.862,3.8899,3.8899,3.8899,3.8105,3.6359,3.6301,3.5706,3.4428,3.4414,3.4414,3.4414,3.4414,3.4414,3.4414,3.4414,3.4414]}]]